[[{"header":{"parameterUnit":"m.s-1","parameterCategory":1,"la1":31.0,"la2":29.5877,"lo1":-88.7671,"lo2":-86.6584,"dy":0.0162,"dx":0.0185,"nx":115,"ny":88,"refTime":"2024-05-06T06:00:00:Z","depth":0,"parameterNumber":2,"parameterNumberName":"U-component_of_WINDS"},"data":[0.0,0.0,0.0,0.0,0.0,0.0,0.0,0.0,0.0,0.0,0.0,0.0,0.0,0.0,0.0,0.0,0.0,0.0,0.0,0.0,0.0,0.0,0.0,0.0,0.0,0.0,0.0,0.0,0.0,0.0,0.0,0.0,0.0,0.0,0.0,0.0,0.0,0.0,0.0,0.0,0.0,0.0,0.0,0.0,0.0,0.0,0.0,0.0,0.0,0.0,0.0,0.0,0.0,0.0,0.0,0.0,0.0,0.0,0.0,0.0,0.0,0.0,0.0,0.0,0.0,0.0,0.0,0.0,0.0,0.0,0.0,0.0,0.0,0.0,0.0,0.0,0.0,0.0,0.0,0.0,0.0,0.0,0.0,0.0,0.0,0.0,0.0,0.0,0.0,0.0,0.0,0.0,0.0,0.0,0.0,0.0,0.0,0.0,0.0,0.0,0.0,0.0,0.0,0.0,0.0,0.0,0.0,0.0,0.0,0.0,0.0,0.0,0.0,0.0,0.0,0.0,0.0,0.0,0.0,0.0,0.0,0.0,0.0,0.0,0.0,0.0,0.0,0.0,0.0,0.0,0.0,0.0,0.0,0.0,0.0,0.0,0.0,0.0,0.0,0.0,0.0,0.0,0.0,0.0,0.0,0.0,0.0,0.0,0.0,0.0,0.0,0.0,0.0,0.0,0.0,0.0,0.0,0.0,0.0,0.0,0.0,0.0,0.0,0.0,0.0,0.0,0.0,0.0,0.0,0.0,0.0,0.0,0.0,0.0,0.0,0.0,0.0,0.0,0.0,0.0,0.0,0.0,0.0,0.0,0.0,0.0,0.0,0.0,0.0,0.0,0.0,0.0,0.0,0.0,0.0,0.0,0.0,0.0,0.0,0.0,0.0,0.0,0.0,0.0,0.0,0.0,0.0,0.0,0.0,0.0,0.0,0.0,0.0,0.0,0.0,0.0,0.0,0.0,0.0,0.0,0.0,0.0,0.0,0.0,0.0,0.0,0.0,0.0,0.0,0.0,0.0,0.0,0.0,0.0,0.0,0.0,0.0,0.0,0.0,0.0,0.0,0.0,0.0,0.0,0.0,0.0,0.0,0.0,0.0,0.0,0.0,0.0,0.0,0.0,0.0,0.0,0.0,0.0,0.0,0.0,0.0,0.0,0.0,0.0,0.0,0.0,0.0,0.0,0.0,0.0,0.0,0.0,0.0,0.0,0.0,0.0,0.0,0.0,0.0,0.0,0.0,0.0,0.0,0.0,0.0,0.0,0.0,0.0,0.0,0.0,0.0,0.0,0.0,0.0,0.0,0.0,0.0,0.0,0.0,0.0,0.0,0.0,0.0,0.0,0.0,0.0,0.0,0.0,0.0,0.0,0.0,0.0,0.0,0.0,0.0,0.0,0.0,0.0,0.0,0.0,0.0,0.0,0.0,0.0,0.0,0.0,0.0,0.0,0.0,0.0,0.0,0.0,0.0,0.0,0.0,0.0,0.0,0.0,0.0,0.0,0.0,0.0,0.0,0.0,0.0,0.0,0.0,0.0,0.0,0.0,0.0,0.0,0.0,0.0,0.0,0.0,0.0,0.0,0.0,0.0,0.0,0.0,0.0,0.0,0.0,0.0,0.0,0.0,0.0,0.0,0.0,0.0,0.0,0.0,0.0,0.0,0.0,0.0,0.0,0.0,0.0,0.0,0.0,0.0,0.0,0.0,0.0,0.0,0.0,0.0,0.0,0.0,0.0,0.0,0.0,0.0,0.0,0.0,0.0,0.0,0.0,0.0,0.0,0.0,0.0,0.0,0.0,0.0,0.0,0.0,0.0,0.0,0.0,0.0,0.0,0.0,0.0,0.0,0.0,0.0,0.0,0.0,0.0,0.0,0.0,0.0,0.0,0.0,0.0,0.0,0.0,0.0,0.0,0.0,0.0,0.0,0.0,0.0,0.0,0.0,0.0,0.0,0.0,0.0,0.0,0.0,0.0,0.0,0.0,0.0,0.0,0.0,0.0,0.0,0.0,0.0,0.0,0.0,0.0,0.0,0.0,0.0,0.0,0.0,0.0,0.0,0.0,0.0,0.0,0.0,0.0,0.0,0.0,0.0,0.0,0.0,0.0,0.0,0.0,0.0,0.0,0.0,0.0,0.0,0.0,0.0,0.0,0.0,0.0,0.0,0.0,0.0,0.0,0.0,0.0,0.0,0.0,0.0,0.0,0.0,0.0,0.0,0.0,0.0,0.0,0.0,0.0,0.0,0.0,0.0,0.0,0.0,0.0,0.0,0.0,0.0,0.0,0.0,0.0,0.0,0.0,0.0,0.0,0.0,0.0,0.0,0.0,0.0,0.0,0.0,0.0,0.0,0.0,0.0,0.0,0.0,0.0,0.0,0.0,0.0,0.0,0.0,0.0,0.0,0.0,0.0,0.0,0.0,0.0,0.0,0.0,0.0,0.0,0.0,0.0,0.0,0.0,0.0,0.0,0.0,0.0,0.0,0.0,0.0,0.0,0.0,0.0,0.0,0.0,0.0,0.0,0.0,0.0,0.0,0.0,0.0,0.0,0.0,0.0,0.0,0.0,0.0,0.0,0.0,0.0,0.0,0.0,0.0,0.0,0.0,0.0,0.0,0.0,0.0,0.0,0.0,0.0,0.0,0.0,0.0,0.0,0.0,0.0,0.0,0.0,0.0,0.0,0.0,0.0,0.0,0.0,0.0,0.0,0.0,0.0,0.0,0.0,0.0,0.0,0.0,0.0,0.0,0.0,0.0,0.0,0.0,0.0,0.0,0.0,0.0,0.0,0.0,0.0,0.0,0.0,0.0,0.0,0.0,0.0,0.0,0.0,0.0,0.0,0.0,0.0,0.0,0.0,0.0,0.0,0.0,0.0,0.0,0.0,0.0,0.0,0.0,0.0,0.0,0.0,0.0,0.0,0.0,0.0,0.0,0.0,0.0,0.0,0.0,0.0,0.0,0.0,0.0,0.0,0.0,0.0,0.0,0.0,0.0,0.0,0.0,0.0,0.0,0.0,0.0,0.0,0.0,0.0,0.0,0.0,0.0,0.0,0.0,0.0,0.0,0.0,0.0,0.0,0.0,0.0,0.0,0.0,0.0,0.0,0.0,0.0,0.0,0.0,0.0,0.0,0.0,0.0,0.0,0.0,0.0,0.0,0.0,0.0,0.0,0.0,0.0,0.0,0.0,0.0,0.0,0.0,0.0,0.0,0.0,0.0,0.0,0.0,0.0,0.0,0.0,0.0,0.0,0.0,0.0,0.0,0.0,0.0,0.0,0.0,0.0,0.0,0.0,0.0,0.0,0.0,0.0,0.0,0.0,0.0,0.0,0.0,0.0,0.0,0.0,0.0,0.0,0.0,0.0,0.0,0.0,0.0,0.0,0.0,0.0,0.0,0.0,0.0,0.0,0.0,0.0,0.0,0.0,0.0,0.0,0.0,0.0,0.0,0.0,0.0,0.0,0.0,0.0,0.0,0.0,0.0,0.0,0.0,0.0,0.0,0.0,0.0,0.0,0.0,0.0,0.0,0.0,0.0,0.0,0.0,0.0,0.0,0.0,0.0,0.0,0.0,0.0,0.0,0.0,0.0,0.0,0.0,0.0,0.0,0.0,0.0,0.0,0.0,0.0,0.0,0.0,0.0,0.0,0.0,0.0,0.0,0.0,0.0,0.0,0.0,0.0,0.0,0.0,0.0,0.0,0.0,0.0,0.0,0.0,0.0,0.0,0.0,0.0,0.0,0.0,0.0,0.0,0.0,0.0,0.0,0.0,0.0,0.0,0.0,0.0,0.0,0.0,0.0,0.0,0.0,0.0,0.0,0.0,0.0,0.0,0.0,0.0,0.0,0.0,0.0,0.0,0.0,0.0,0.0,0.0,0.0,0.0,0.0,0.0,0.0,0.0,0.0,0.0,0.0,0.0,0.0,0.0,0.0,0.0,0.0,0.0,0.0,0.0,0.0,0.0,0.0,0.0,0.0,0.0,0.0,0.0,0.0,0.0,0.0,0.0,0.0,0.0,0.0,0.0,0.0,0.0,0.0,0.0,0.0,0.0,0.0,0.0,0.0,0.0,0.0,0.0,0.0,0.0,0.0,0.0,0.0,0.0,0.0,0.0,0.0,0.0,0.0,0.0,0.0,0.0,0.0,0.0,0.0,0.0,0.0,0.0,0.0,0.0,0.0,0.0,0.0,0.0,0.0,0.0,0.0,0.0,0.0,0.0,0.0,0.0,0.0,0.0,0.0,0.0,0.0,0.0,0.0,0.0,-2.9402,0.0,0.0,0.0,0.0,0.0,0.0,0.0,0.0,0.0,0.0,0.0,0.0,0.0,0.0,0.0,0.0,0.0,0.0,0.0,0.0,0.0,0.0,0.0,0.0,0.0,0.0,0.0,0.0,0.0,0.0,0.0,0.0,0.0,0.0,0.0,0.0,0.0,0.0,0.0,0.0,0.0,0.0,0.0,0.0,0.0,0.0,0.0,0.0,0.0,0.0,0.0,0.0,0.0,0.0,0.0,0.0,0.0,0.0,0.0,0.0,0.0,0.0,0.0,0.0,0.0,0.0,0.0,0.0,0.0,0.0,0.0,0.0,0.0,0.0,0.0,0.0,0.0,0.0,0.0,0.0,0.0,0.0,0.0,0.0,0.0,0.0,0.0,0.0,0.0,0.0,0.0,0.0,0.0,0.0,0.0,0.0,0.0,0.0,0.0,0.0,0.0,0.0,0.0,0.0,0.0,0.0,0.0,0.0,0.0,0.0,-3.1445,-3.1445,-3.1092,-3.0736,-3.0302,0.0,0.0,0.0,0.0,0.0,0.0,0.0,0.0,0.0,0.0,0.0,0.0,0.0,0.0,0.0,0.0,0.0,0.0,0.0,0.0,0.0,0.0,0.0,0.0,0.0,0.0,0.0,0.0,0.0,0.0,0.0,0.0,0.0,0.0,0.0,0.0,0.0,0.0,0.0,0.0,0.0,0.0,0.0,0.0,0.0,0.0,0.0,0.0,0.0,0.0,0.0,0.0,0.0,0.0,0.0,0.0,0.0,0.0,0.0,0.0,0.0,0.0,0.0,0.0,0.0,0.0,0.0,0.0,0.0,0.0,0.0,0.0,0.0,0.0,0.0,0.0,0.0,0.0,0.0,0.0,0.0,0.0,0.0,0.0,0.0,0.0,0.0,0.0,0.0,0.0,0.0,0.0,0.0,0.0,0.0,0.0,0.0,0.0,0.0,0.0,0.0,0.0,0.0,0.0,0.0,0.0,0.0,0.0,0.0,0.0,0.0,0.0,-3.117,-3.1088,-3.0889,0.0,0.0,0.0,0.0,0.0,0.0,0.0,0.0,0.0,0.0,0.0,0.0,0.0,0.0,0.0,0.0,0.0,0.0,0.0,0.0,0.0,0.0,0.0,0.0,0.0,0.0,0.0,0.0,0.0,0.0,0.0,0.0,0.0,0.0,0.0,0.0,0.0,0.0,0.0,0.0,0.0,0.0,0.0,0.0,0.0,0.0,0.0,0.0,0.0,0.0,0.0,0.0,0.0,0.0,0.0,0.0,0.0,0.0,0.0,0.0,0.0,0.0,0.0,0.0,0.0,0.0,0.0,0.0,0.0,0.0,0.0,0.0,0.0,0.0,0.0,0.0,0.0,0.0,0.0,0.0,0.0,0.0,0.0,0.0,0.0,0.0,0.0,0.0,0.0,0.0,0.0,0.0,0.0,0.0,0.0,0.0,0.0,0.0,0.0,0.0,0.0,0.0,0.0,0.0,0.0,0.0,0.0,0.0,0.0,0.0,-3.207,-3.207,-3.1991,0.0,-3.0928,0.0,0.0,0.0,0.0,0.0,0.0,0.0,0.0,0.0,0.0,0.0,0.0,0.0,0.0,0.0,0.0,0.0,0.0,0.0,0.0,0.0,0.0,0.0,0.0,0.0,0.0,0.0,0.0,0.0,0.0,0.0,0.0,0.0,0.0,0.0,0.0,0.0,0.0,0.0,0.0,0.0,0.0,0.0,0.0,0.0,0.0,0.0,0.0,0.0,0.0,0.0,0.0,0.0,0.0,0.0,0.0,0.0,0.0,0.0,0.0,0.0,0.0,0.0,0.0,0.0,0.0,0.0,0.0,0.0,0.0,0.0,0.0,0.0,0.0,0.0,0.0,0.0,0.0,0.0,0.0,0.0,0.0,0.0,0.0,0.0,0.0,0.0,0.0,0.0,0.0,0.0,0.0,0.0,0.0,0.0,0.0,0.0,0.0,0.0,0.0,0.0,0.0,0.0,0.0,0.0,0.0,0.0,0.0,0.0,0.0,-3.1445,-3.1445,-3.1874,-3.2184,0.0,0.0,0.0,0.0,0.0,0.0,0.0,0.0,0.0,0.0,0.0,0.0,0.0,0.0,0.0,0.0,0.0,0.0,0.0,0.0,0.0,0.0,0.0,0.0,0.0,0.0,0.0,0.0,0.0,0.0,0.0,0.0,0.0,0.0,0.0,0.0,0.0,0.0,0.0,0.0,0.0,0.0,0.0,0.0,0.0,0.0,0.0,0.0,0.0,0.0,0.0,0.0,0.0,0.0,0.0,0.0,0.0,0.0,0.0,0.0,0.0,0.0,0.0,0.0,0.0,0.0,0.0,0.0,0.0,0.0,0.0,0.0,0.0,0.0,0.0,0.0,0.0,0.0,0.0,0.0,0.0,0.0,0.0,0.0,0.0,0.0,0.0,0.0,0.0,0.0,0.0,0.0,0.0,0.0,0.0,0.0,0.0,0.0,0.0,0.0,0.0,0.0,0.0,0.0,0.0,0.0,0.0,0.0,0.0,0.0,-3.125,-3.125,-3.125,-3.1601,-3.2262,-3.335,0.0,0.0,0.0,0.0,0.0,0.0,0.0,0.0,0.0,0.0,0.0,0.0,0.0,0.0,0.0,0.0,0.0,0.0,0.0,0.0,0.0,0.0,0.0,0.0,0.0,0.0,0.0,0.0,0.0,0.0,0.0,0.0,0.0,0.0,0.0,0.0,0.0,0.0,0.0,0.0,0.0,0.0,0.0,0.0,0.0,0.0,0.0,0.0,0.0,0.0,0.0,0.0,0.0,0.0,0.0,0.0,0.0,0.0,0.0,0.0,0.0,0.0,0.0,0.0,0.0,0.0,0.0,0.0,0.0,0.0,0.0,0.0,0.0,0.0,0.0,0.0,0.0,0.0,0.0,0.0,0.0,0.0,0.0,0.0,0.0,0.0,0.0,0.0,0.0,0.0,0.0,0.0,0.0,0.0,0.0,0.0,0.0,0.0,0.0,0.0,0.0,0.0,0.0,0.0,0.0,0.0,0.0,0.0,-3.2109,-3.2148,-3.2148,-3.2148,-3.1406,-3.1716,0.0,0.0,0.0,0.0,0.0,0.0,0.0,0.0,0.0,0.0,0.0,0.0,0.0,0.0,0.0,0.0,0.0,0.0,0.0,0.0,0.0,0.0,0.0,0.0,0.0,0.0,0.0,0.0,0.0,0.0,0.0,0.0,0.0,0.0,0.0,0.0,0.0,0.0,0.0,0.0,0.0,0.0,0.0,0.0,0.0,0.0,0.0,0.0,0.0,0.0,0.0,0.0,0.0,0.0,0.0,0.0,0.0,0.0,0.0,0.0,0.0,0.0,0.0,0.0,0.0,0.0,0.0,0.0,0.0,0.0,0.0,0.0,0.0,0.0,0.0,0.0,0.0,0.0,0.0,0.0,0.0,0.0,0.0,0.0,0.0,0.0,0.0,0.0,0.0,0.0,0.0,0.0,0.0,0.0,0.0,0.0,0.0,0.0,0.0,0.0,0.0,0.0,0.0,0.0,0.0,0.0,0.0,0.0,0.0,-3.2969,-3.2969,-3.3242,-3.375,-3.2969,-3.3046,0.0,0.0,0.0,0.0,0.0,0.0,0.0,0.0,0.0,0.0,0.0,0.0,0.0,0.0,0.0,0.0,0.0,0.0,0.0,0.0,0.0,0.0,0.0,0.0,0.0,0.0,0.0,0.0,0.0,0.0,0.0,0.0,0.0,0.0,0.0,0.0,0.0,0.0,0.0,0.0,0.0,0.0,0.0,0.0,0.0,0.0,0.0,0.0,0.0,0.0,0.0,0.0,0.0,0.0,0.0,0.0,0.0,0.0,0.0,0.0,0.0,0.0,0.0,0.0,0.0,0.0,0.0,0.0,0.0,0.0,0.0,0.0,0.0,0.0,0.0,0.0,0.0,0.0,0.0,0.0,0.0,0.0,0.0,0.0,0.0,0.0,0.0,0.0,0.0,0.0,0.0,0.0,0.0,0.0,0.0,0.0,0.0,0.0,0.0,0.0,0.0,0.0,0.0,0.0,0.0,0.0,0.0,0.0,0.0,-3.4998,0.0,-3.5622,-3.5896,-3.5115,-3.4804,0.0,0.0,0.0,0.0,0.0,0.0,0.0,0.0,0.0,0.0,0.0,0.0,0.0,0.0,0.0,0.0,0.0,0.0,0.0,0.0,0.0,0.0,0.0,0.0,0.0,0.0,0.0,0.0,0.0,0.0,0.0,0.0,0.0,0.0,0.0,0.0,0.0,0.0,0.0,0.0,0.0,0.0,0.0,0.0,0.0,0.0,0.0,0.0,0.0,0.0,0.0,0.0,0.0,0.0,0.0,0.0,0.0,0.0,0.0,0.0,0.0,0.0,0.0,0.0,0.0,0.0,0.0,0.0,0.0,0.0,0.0,0.0,0.0,0.0,0.0,0.0,0.0,0.0,0.0,0.0,0.0,0.0,0.0,0.0,0.0,0.0,0.0,0.0,0.0,0.0,0.0,0.0,0.0,0.0,0.0,0.0,0.0,0.0,0.0,0.0,0.0,0.0,0.0,0.0,0.0,0.0,0.0,0.0,-3.6087,-3.8379,-3.9348,-3.9346,-3.8535,-3.7793,-3.6944,0.0,0.0,0.0,0.0,0.0,0.0,0.0,0.0,0.0,0.0,0.0,0.0,0.0,0.0,0.0,0.0,0.0,0.0,0.0,0.0,0.0,0.0,0.0,0.0,0.0,0.0,0.0,0.0,0.0,0.0,0.0,0.0,0.0,0.0,0.0,0.0,0.0,0.0,0.0,0.0,0.0,0.0,0.0,0.0,0.0,0.0,0.0,0.0,0.0,0.0,0.0,0.0,0.0,0.0,0.0,0.0,0.0,0.0,0.0,0.0,0.0,0.0,0.0,0.0,0.0,0.0,0.0,0.0,0.0,0.0,0.0,0.0,0.0,0.0,0.0,0.0,0.0,0.0,0.0,0.0,0.0,0.0,0.0,0.0,0.0,0.0,0.0,0.0,0.0,0.0,0.0,0.0,0.0,0.0,0.0,0.0,0.0,0.0,0.0,0.0,0.0,0.0,0.0,0.0,0.0,0.0,0.0,0.0,0.0,-4.0296,-4.1607,-4.2226,-4.1922,-4.1159,-4.0086,0.0,0.0,0.0,0.0,0.0,0.0,0.0,0.0,0.0,0.0,0.0,0.0,0.0,0.0,0.0,0.0,0.0,0.0,0.0,0.0,0.0,0.0,0.0,0.0,0.0,0.0,0.0,0.0,0.0,0.0,0.0,0.0,0.0,0.0,0.0,0.0,0.0,0.0,0.0,0.0,0.0,0.0,0.0,0.0,0.0,0.0,0.0,0.0,0.0,0.0,0.0,0.0,0.0,0.0,0.0,0.0,0.0,0.0,0.0,0.0,0.0,0.0,0.0,0.0,0.0,0.0,0.0,0.0,0.0,0.0,0.0,0.0,0.0,0.0,0.0,0.0,0.0,0.0,0.0,0.0,0.0,0.0,0.0,0.0,0.0,0.0,0.0,0.0,0.0,0.0,0.0,0.0,0.0,0.0,0.0,0.0,0.0,0.0,0.0,0.0,0.0,0.0,0.0,0.0,0.0,0.0,0.0,0.0,0.0,-4.5672,-4.6294,-4.6533,-4.6231,-4.5451,-4.3835,-4.1324,0.0,0.0,0.0,0.0,0.0,0.0,0.0,0.0,0.0,0.0,0.0,0.0,0.0,0.0,0.0,0.0,0.0,0.0,0.0,0.0,0.0,0.0,0.0,0.0,0.0,0.0,0.0,0.0,0.0,0.0,0.0,0.0,0.0,0.0,0.0,0.0,0.0,0.0,0.0,0.0,0.0,0.0,0.0,0.0,0.0,0.0,0.0,0.0,0.0,0.0,0.0,0.0,0.0,0.0,0.0,0.0,0.0,0.0,0.0,0.0,0.0,0.0,0.0,0.0,0.0,0.0,0.0,0.0,0.0,0.0,0.0,0.0,0.0,0.0,0.0,0.0,0.0,0.0,0.0,0.0,0.0,0.0,0.0,0.0,0.0,0.0,0.0,0.0,0.0,0.0,0.0,0.0,0.0,0.0,0.0,0.0,0.0,0.0,0.0,0.0,0.0,0.0,0.0,0.0,0.0,0.0,0.0,0.0,-5.3597,-5.3014,-5.2158,-5.1076,-5.0199,-4.7922,0.0,0.0,0.0,0.0,0.0,0.0,0.0,0.0,0.0,0.0,0.0,0.0,0.0,0.0,0.0,0.0,0.0,0.0,0.0,0.0,0.0,0.0,0.0,0.0,0.0,0.0,0.0,0.0,0.0,0.0,0.0,0.0,0.0,0.0,0.0,0.0,0.0,0.0,0.0,0.0,0.0,0.0,0.0,0.0,0.0,0.0,0.0,0.0,0.0,0.0,0.0,0.0,0.0,0.0,0.0,0.0,0.0,0.0,0.0,0.0,0.0,0.0,0.0,0.0,0.0,0.0,0.0,0.0,0.0,0.0,0.0,0.0,0.0,0.0,0.0,0.0,0.0,0.0,0.0,0.0,0.0,0.0,0.0,0.0,0.0,0.0,0.0,0.0,0.0,0.0,0.0,0.0,0.0,0.0,0.0,0.0,0.0,0.0,0.0,0.0,0.0,0.0,0.0,0.0,0.0,0.0,0.0,0.0,0.0,-5.7543,-5.9178,-5.8167,-5.4493,-5.3038,-5.0695,0.0,0.0,0.0,0.0,0.0,0.0,0.0,0.0,0.0,0.0,0.0,0.0,0.0,0.0,0.0,0.0,0.0,0.0,0.0,0.0,0.0,0.0,0.0,0.0,0.0,0.0,0.0,0.0,0.0,0.0,0.0,0.0,0.0,0.0,0.0,0.0,0.0,0.0,0.0,0.0,0.0,0.0,0.0,0.0,0.0,0.0,0.0,0.0,0.0,0.0,0.0,0.0,0.0,0.0,0.0,0.0,0.0,0.0,0.0,0.0,0.0,0.0,0.0,0.0,0.0,0.0,0.0,0.0,0.0,0.0,0.0,0.0,0.0,0.0,0.0,0.0,0.0,0.0,0.0,0.0,0.0,0.0,0.0,0.0,0.0,0.0,0.0,0.0,0.0,0.0,0.0,0.0,0.0,0.0,0.0,0.0,0.0,0.0,0.0,0.0,0.0,0.0,0.0,0.0,0.0,0.0,0.0,0.0,-5.6991,-6.0725,-6.2733,-6.2406,-5.9674,-5.7136,-5.3965,0.0,0.0,0.0,0.0,0.0,0.0,0.0,0.0,0.0,0.0,0.0,0.0,0.0,0.0,0.0,0.0,0.0,0.0,0.0,0.0,0.0,0.0,0.0,0.0,0.0,0.0,0.0,0.0,0.0,0.0,0.0,0.0,0.0,0.0,0.0,0.0,0.0,0.0,0.0,0.0,0.0,0.0,0.0,0.0,0.0,0.0,0.0,0.0,0.0,0.0,0.0,0.0,0.0,0.0,0.0,0.0,0.0,0.0,0.0,0.0,0.0,0.0,0.0,0.0,0.0,0.0,0.0,0.0,0.0,0.0,0.0,0.0,0.0,0.0,0.0,0.0,0.0,0.0,0.0,0.0,0.0,0.0,0.0,0.0,0.0,0.0,0.0,0.0,0.0,0.0,0.0,0.0,0.0,0.0,0.0,0.0,0.0,0.0,0.0,0.0,0.0,0.0,0.0,0.0,0.0,0.0,0.0,0.0,-5.835,-6.2894,-6.4486,-6.5289,-6.5275,-6.1534,-5.728,0.0,0.0,0.0,0.0,0.0,0.0,0.0,0.0,0.0,0.0,0.0,0.0,0.0,0.0,0.0,0.0,0.0,0.0,0.0,0.0,0.0,0.0,0.0,0.0,0.0,0.0,0.0,0.0,0.0,0.0,0.0,0.0,0.0,0.0,0.0,0.0,0.0,0.0,0.0,0.0,0.0,0.0,0.0,0.0,0.0,0.0,0.0,0.0,0.0,0.0,0.0,0.0,0.0,0.0,0.0,0.0,0.0,0.0,0.0,0.0,0.0,0.0,0.0,0.0,0.0,0.0,0.0,0.0,0.0,0.0,0.0,0.0,0.0,0.0,0.0,0.0,0.0,0.0,0.0,0.0,0.0,0.0,0.0,0.0,0.0,0.0,0.0,0.0,0.0,0.0,0.0,0.0,0.0,0.0,0.0,0.0,0.0,0.0,0.0,0.0,0.0,0.0,0.0,0.0,0.0,0.0,0.0,0.0,-6.0056,-6.2877,-6.5623,-6.7102,-6.7185,-6.3236,-5.9152,0.0,0.0,0.0,0.0,0.0,0.0,0.0,0.0,0.0,0.0,0.0,0.0,0.0,0.0,0.0,0.0,0.0,0.0,0.0,0.0,0.0,0.0,0.0,0.0,0.0,0.0,0.0,0.0,0.0,0.0,0.0,0.0,0.0,0.0,0.0,0.0,0.0,0.0,0.0,0.0,0.0,0.0,0.0,0.0,0.0,0.0,0.0,0.0,-3.8527,0.0,0.0,0.0,0.0,0.0,0.0,0.0,0.0,0.0,0.0,0.0,0.0,0.0,0.0,0.0,0.0,0.0,0.0,0.0,0.0,0.0,0.0,0.0,0.0,0.0,0.0,0.0,0.0,0.0,0.0,0.0,0.0,0.0,0.0,0.0,0.0,0.0,0.0,0.0,0.0,0.0,0.0,0.0,0.0,0.0,0.0,0.0,0.0,0.0,0.0,0.0,0.0,0.0,0.0,0.0,0.0,0.0,0.0,0.0,-6.1109,-6.4459,-6.651,-6.7774,-6.813,-6.541,-6.1639,0.0,0.0,0.0,0.0,0.0,0.0,0.0,0.0,0.0,0.0,0.0,0.0,0.0,0.0,0.0,0.0,0.0,0.0,0.0,0.0,0.0,0.0,0.0,0.0,0.0,0.0,0.0,0.0,0.0,0.0,0.0,0.0,0.0,0.0,0.0,0.0,0.0,0.0,0.0,0.0,0.0,0.0,0.0,0.0,0.0,0.0,0.0,0.0,0.0,0.0,0.0,0.0,0.0,0.0,0.0,0.0,0.0,0.0,0.0,0.0,0.0,0.0,0.0,0.0,0.0,0.0,0.0,0.0,0.0,0.0,0.0,0.0,0.0,0.0,0.0,0.0,0.0,0.0,0.0,0.0,0.0,0.0,0.0,0.0,0.0,0.0,0.0,0.0,0.0,0.0,0.0,0.0,0.0,0.0,0.0,0.0,0.0,0.0,0.0,0.0,0.0,0.0,0.0,0.0,0.0,0.0,0.0,-5.8588,-6.2013,-6.5998,-6.7054,-6.7911,-6.8595,-6.6954,-6.3603,-5.8545,0.0,0.0,0.0,0.0,0.0,0.0,0.0,0.0,0.0,0.0,0.0,0.0,0.0,0.0,0.0,0.0,0.0,0.0,0.0,0.0,0.0,0.0,0.0,0.0,0.0,0.0,0.0,0.0,0.0,0.0,0.0,0.0,0.0,0.0,0.0,0.0,0.0,0.0,-3.7097,-3.7295,0.0,0.0,0.0,0.0,0.0,0.0,0.0,0.0,-4.0476,0.0,0.0,0.0,0.0,0.0,0.0,0.0,0.0,0.0,0.0,0.0,0.0,0.0,0.0,0.0,0.0,0.0,0.0,0.0,0.0,0.0,0.0,0.0,0.0,0.0,0.0,0.0,0.0,0.0,0.0,0.0,0.0,0.0,0.0,0.0,0.0,0.0,0.0,0.0,0.0,0.0,0.0,0.0,0.0,0.0,0.0,0.0,0.0,0.0,0.0,0.0,0.0,0.0,0.0,0.0,0.0,-5.6643,-6.0544,-6.3479,-6.5275,-6.6857,-6.7732,-6.7808,-6.5629,-6.2753,-5.93,0.0,0.0,0.0,0.0,0.0,0.0,0.0,0.0,0.0,0.0,0.0,0.0,0.0,0.0,0.0,0.0,0.0,0.0,0.0,0.0,0.0,0.0,0.0,0.0,0.0,0.0,0.0,0.0,0.0,0.0,0.0,0.0,0.0,0.0,0.0,0.0,0.0,0.0,0.0,-3.7841,-3.867,0.0,0.0,0.0,0.0,0.0,0.0,0.0,0.0,-4.1067,0.0,0.0,0.0,0.0,0.0,0.0,0.0,0.0,0.0,0.0,0.0,0.0,0.0,0.0,0.0,0.0,0.0,0.0,0.0,0.0,0.0,0.0,0.0,0.0,0.0,0.0,0.0,0.0,0.0,0.0,0.0,0.0,0.0,0.0,0.0,0.0,0.0,0.0,0.0,0.0,0.0,0.0,0.0,0.0,0.0,0.0,0.0,0.0,0.0,0.0,0.0,0.0,0.0,0.0,0.0,-5.7455,-6.1186,-6.3967,-6.577,-6.7914,-6.86,-6.7673,-6.6554,-6.3891,0.0,0.0,0.0,0.0,0.0,0.0,0.0,0.0,0.0,0.0,0.0,0.0,0.0,0.0,0.0,0.0,0.0,0.0,0.0,0.0,0.0,0.0,0.0,0.0,0.0,0.0,0.0,0.0,0.0,0.0,0.0,0.0,0.0,0.0,0.0,0.0,0.0,0.0,0.0,0.0,-3.8898,-3.9495,-4.0409,0.0,0.0,0.0,0.0,0.0,0.0,-4.209,-4.1894,0.0,0.0,0.0,0.0,0.0,0.0,0.0,0.0,0.0,0.0,0.0,0.0,0.0,0.0,0.0,0.0,0.0,0.0,0.0,0.0,0.0,0.0,0.0,0.0,0.0,0.0,0.0,0.0,0.0,0.0,0.0,0.0,0.0,0.0,0.0,0.0,0.0,0.0,0.0,0.0,0.0,0.0,0.0,0.0,0.0,0.0,0.0,0.0,0.0,0.0,0.0,0.0,0.0,0.0,0.0,-5.8546,-6.1682,-6.4443,-6.6836,-6.8786,-6.9167,-6.7901,-6.7359,-6.4652,0.0,0.0,0.0,0.0,0.0,0.0,0.0,0.0,0.0,0.0,0.0,0.0,0.0,0.0,0.0,0.0,0.0,0.0,0.0,0.0,0.0,0.0,0.0,0.0,0.0,0.0,0.0,0.0,0.0,0.0,0.0,0.0,0.0,0.0,0.0,0.0,0.0,0.0,0.0,0.0,0.0,-4.098,-4.1304,-4.2131,0.0,0.0,0.0,0.0,-4.3352,-4.3155,0.0,0.0,0.0,0.0,0.0,0.0,0.0,0.0,0.0,0.0,0.0,0.0,0.0,0.0,0.0,0.0,0.0,0.0,0.0,0.0,0.0,0.0,0.0,0.0,0.0,0.0,0.0,0.0,0.0,0.0,0.0,0.0,0.0,0.0,0.0,0.0,0.0,0.0,0.0,0.0,0.0,0.0,0.0,0.0,0.0,0.0,0.0,0.0,0.0,0.0,0.0,0.0,0.0,0.0,0.0,0.0,-6.0187,-6.2831,-6.5589,-6.8413,-6.8291,-6.8307,-6.8701,-6.6132,-6.3027,0.0,0.0,0.0,0.0,0.0,0.0,0.0,0.0,0.0,0.0,0.0,0.0,0.0,0.0,0.0,0.0,0.0,0.0,0.0,0.0,0.0,0.0,0.0,0.0,0.0,0.0,0.0,0.0,0.0,0.0,0.0,0.0,0.0,0.0,0.0,0.0,0.0,0.0,0.0,0.0,0.0,-4.3784,-4.2442,-4.2997,-4.3236,0.0,0.0,-4.332,-4.2655,-4.3748,0.0,0.0,0.0,0.0,0.0,0.0,0.0,0.0,0.0,0.0,0.0,0.0,0.0,0.0,0.0,0.0,0.0,0.0,0.0,0.0,0.0,0.0,0.0,0.0,0.0,0.0,0.0,0.0,0.0,0.0,0.0,0.0,0.0,0.0,0.0,0.0,0.0,0.0,0.0,0.0,0.0,0.0,0.0,0.0,0.0,0.0,0.0,0.0,0.0,0.0,0.0,0.0,0.0,0.0,0.0,-5.5668,-6.0531,-6.3451,-6.5979,-6.8243,-6.9437,-6.9475,-6.8357,-6.6695,-6.3835,0.0,0.0,0.0,0.0,0.0,0.0,0.0,0.0,0.0,0.0,0.0,0.0,0.0,0.0,0.0,0.0,0.0,0.0,0.0,0.0,0.0,0.0,0.0,0.0,0.0,0.0,0.0,0.0,0.0,0.0,0.0,0.0,0.0,0.0,0.0,0.0,0.0,0.0,0.0,0.0,0.0,0.0,-4.3251,-4.3888,0.0,0.0,0.0,-4.4449,-4.4606,0.0,0.0,0.0,0.0,0.0,0.0,0.0,0.0,0.0,0.0,0.0,0.0,0.0,0.0,0.0,0.0,0.0,0.0,0.0,0.0,0.0,0.0,0.0,0.0,0.0,0.0,0.0,0.0,0.0,0.0,0.0,0.0,0.0,0.0,0.0,0.0,0.0,0.0,0.0,0.0,0.0,0.0,0.0,0.0,0.0,0.0,0.0,0.0,0.0,0.0,0.0,0.0,0.0,0.0,0.0,0.0,0.0,-6.0964,-6.3858,-6.6284,-6.8203,-7.0075,-7.0151,-6.8295,-6.6984,0.0,0.0,0.0,0.0,0.0,0.0,0.0,0.0,0.0,0.0,0.0,0.0,0.0,0.0,0.0,0.0,0.0,0.0,0.0,0.0,0.0,0.0,0.0,0.0,0.0,0.0,0.0,-3.6871,0.0,0.0,0.0,0.0,0.0,0.0,0.0,0.0,0.0,0.0,0.0,0.0,0.0,0.0,-4.4499,-4.4064,-4.4935,-4.5329,0.0,0.0,-4.5648,-4.5644,-4.4914,-4.4059,0.0,0.0,0.0,0.0,0.0,0.0,0.0,0.0,0.0,0.0,0.0,0.0,0.0,0.0,0.0,0.0,0.0,0.0,0.0,0.0,0.0,0.0,0.0,0.0,0.0,0.0,0.0,0.0,0.0,0.0,0.0,0.0,0.0,0.0,0.0,0.0,0.0,0.0,0.0,0.0,0.0,0.0,0.0,0.0,0.0,0.0,0.0,0.0,0.0,0.0,0.0,0.0,0.0,0.0,-5.7681,-6.181,-6.4207,-6.6598,-6.9005,-6.9273,-6.9273,-6.9082,-6.6121,-6.3297,0.0,0.0,0.0,0.0,0.0,0.0,0.0,0.0,0.0,0.0,0.0,0.0,0.0,0.0,0.0,0.0,0.0,0.0,0.0,0.0,0.0,0.0,0.0,0.0,0.0,0.0,0.0,0.0,0.0,0.0,0.0,0.0,0.0,0.0,0.0,0.0,0.0,0.0,0.0,0.0,0.0,-4.6679,-4.5125,-4.6298,-4.7002,0.0,-4.6761,-4.652,-4.4218,-4.5086,-4.4972,-4.1802,0.0,0.0,0.0,0.0,0.0,0.0,0.0,0.0,0.0,0.0,0.0,0.0,0.0,0.0,0.0,0.0,0.0,0.0,0.0,0.0,0.0,0.0,0.0,0.0,0.0,0.0,0.0,0.0,0.0,0.0,0.0,0.0,0.0,0.0,0.0,0.0,0.0,0.0,0.0,0.0,0.0,0.0,0.0,0.0,0.0,0.0,0.0,0.0,0.0,0.0,0.0,0.0,0.0,-5.7824,-6.1876,-6.4767,-6.7171,-6.912,-6.9693,-6.9693,-6.9196,-6.6498,-6.3921,0.0,0.0,0.0,0.0,0.0,0.0,0.0,0.0,0.0,0.0,0.0,0.0,0.0,0.0,0.0,0.0,0.0,0.0,0.0,0.0,0.0,0.0,0.0,0.0,0.0,0.0,0.0,0.0,-3.8741,-3.9172,-3.9717,0.0,0.0,0.0,0.0,0.0,0.0,0.0,0.0,0.0,0.0,-4.653,-4.5909,-4.6339,0.0,0.0,-4.6155,-4.5997,-4.396,-4.4165,-4.3975,-4.2176,-4.1427,0.0,0.0,0.0,0.0,0.0,0.0,0.0,0.0,0.0,0.0,0.0,0.0,0.0,0.0,0.0,0.0,0.0,0.0,0.0,0.0,0.0,0.0,0.0,0.0,0.0,0.0,0.0,0.0,0.0,0.0,0.0,0.0,0.0,0.0,0.0,0.0,0.0,0.0,0.0,0.0,0.0,0.0,0.0,0.0,0.0,0.0,0.0,0.0,0.0,0.0,0.0,0.0,-5.8676,-6.2273,-6.5441,-6.7744,-6.9196,-6.9769,-6.9655,-6.8776,-6.6415,-6.412,0.0,0.0,0.0,0.0,0.0,0.0,0.0,0.0,0.0,0.0,0.0,0.0,0.0,0.0,0.0,0.0,0.0,0.0,0.0,0.0,0.0,0.0,0.0,0.0,0.0,0.0,0.0,0.0,-3.9163,-3.9423,-4.0109,0.0,0.0,0.0,0.0,0.0,0.0,0.0,0.0,0.0,0.0,-4.6303,-4.63,-4.6296,-4.6048,-4.5393,-4.5582,-4.5306,-4.3815,-4.3389,-4.2844,-4.1755,0.0,0.0,0.0,0.0,0.0,0.0,0.0,0.0,0.0,0.0,0.0,0.0,0.0,0.0,0.0,0.0,0.0,0.0,0.0,0.0,0.0,0.0,0.0,0.0,0.0,0.0,0.0,-4.0991,0.0,0.0,-4.1073,0.0,0.0,0.0,0.0,0.0,0.0,0.0,0.0,0.0,0.0,0.0,0.0,0.0,0.0,0.0,0.0,0.0,0.0,0.0,0.0,0.0,0.0,-6.0604,-6.3143,-6.6207,-6.8279,-6.9158,-6.9234,-6.8814,-6.7935,-6.5543,-6.3461,-6.1799,0.0,0.0,0.0,0.0,0.0,0.0,0.0,0.0,0.0,0.0,0.0,0.0,0.0,0.0,0.0,0.0,0.0,0.0,0.0,0.0,0.0,0.0,0.0,0.0,0.0,0.0,-4.0874,-4.0925,-4.0928,0.0,0.0,0.0,0.0,0.0,0.0,0.0,0.0,0.0,-4.6009,-4.6278,-4.6309,-4.6302,-4.6245,-4.6184,-4.6128,-4.5436,-4.4631,-4.3697,-4.2864,-4.1716,0.0,0.0,0.0,0.0,0.0,0.0,0.0,0.0,0.0,0.0,0.0,0.0,0.0,0.0,0.0,0.0,0.0,0.0,0.0,0.0,0.0,0.0,0.0,0.0,0.0,0.0,0.0,-4.3796,-4.6513,0.0,0.0,0.0,0.0,0.0,0.0,0.0,0.0,0.0,0.0,0.0,-5.4477,-5.4149,0.0,0.0,0.0,0.0,0.0,0.0,0.0,0.0,0.0,0.0,0.0,0.0,-6.0659,-6.3115,-6.5756,-6.7515,-6.8279,-6.8317,-6.8203,-6.7897,-6.6025,-6.3489,-6.0289,0.0,0.0,0.0,0.0,0.0,0.0,0.0,0.0,0.0,0.0,0.0,0.0,0.0,0.0,0.0,0.0,0.0,0.0,0.0,0.0,0.0,0.0,0.0,0.0,0.0,-4.1565,0.0,0.0,0.0,0.0,0.0,0.0,0.0,0.0,0.0,0.0,-4.4215,-4.4997,-4.6171,-4.6282,-4.6312,-4.6309,-4.6247,-4.5791,0.0,0.0,0.0,0.0,0.0,0.0,0.0,0.0,0.0,0.0,0.0,0.0,0.0,0.0,-4.1512,-4.093,-4.0403,-4.018,-4.0742,0.0,0.0,0.0,0.0,0.0,0.0,0.0,0.0,0.0,0.0,0.0,0.0,0.0,0.0,-4.7302,-4.974,-4.9029,0.0,0.0,0.0,0.0,0.0,0.0,0.0,0.0,-5.6324,-5.7805,-5.7769,-5.745,-5.7193,-5.6894,-5.5852,-5.4313,0.0,0.0,0.0,0.0,0.0,0.0,0.0,0.0,-6.1492,-6.3904,-6.5741,-6.7095,-6.7821,-6.763,-6.7477,-6.7439,-6.5597,-6.334,-6.0786,-5.8175,-5.5864,0.0,0.0,0.0,0.0,0.0,0.0,0.0,0.0,0.0,0.0,0.0,0.0,0.0,0.0,0.0,0.0,0.0,0.0,0.0,0.0,0.0,0.0,0.0,-4.2437,0.0,0.0,0.0,0.0,0.0,0.0,0.0,0.0,0.0,-4.4531,-4.4844,-4.5429,-4.6601,-4.648,-4.6312,-4.6309,0.0,0.0,0.0,0.0,0.0,0.0,0.0,-4.1885,-4.071,-4.0503,-4.0679,-4.1179,-4.195,-4.2303,-4.1728,0.0,0.0,-4.0904,-4.0377,-4.0193,-4.0715,-4.0426,-4.032,-4.1092,-4.1224,-4.1213,0.0,0.0,0.0,0.0,-4.7139,0.0,0.0,0.0,-5.0612,-5.065,0.0,-5.1529,0.0,0.0,0.0,0.0,-5.2203,-5.4521,0.0,0.0,-6.016,-6.1712,-6.1614,-6.0925,-6.0964,-6.159,-6.0163,-5.9381,-5.9098,-5.4647,0.0,0.0,0.0,0.0,0.0,0.0,-6.3129,-6.5403,-6.6246,-6.7056,-6.7782,-6.7095,-6.6674,-6.6598,-6.4355,-6.3127,-6.3066,-6.0023,-5.7965,-5.7091,-5.4049,0.0,0.0,0.0,0.0,0.0,0.0,0.0,0.0,0.0,0.0,0.0,0.0,0.0,0.0,0.0,0.0,0.0,0.0,0.0,0.0,-4.3598,0.0,0.0,0.0,0.0,0.0,0.0,0.0,0.0,0.0,-4.6312,-4.6436,-4.566,-4.5702,-4.7383,0.0,0.0,0.0,0.0,-4.6157,-4.6102,-4.5363,-4.4509,-4.3592,-4.2752,-4.1641,-3.9981,0.0,0.0,-3.963,-4.0331,-4.0971,-4.0848,-4.0926,-4.0828,-4.0809,-4.0704,-4.0743,-4.0859,-4.0821,-4.1086,-4.1898,-4.2067,-4.2035,-5.6175,0.0,0.0,0.0,0.0,-5.1222,-5.33,-5.6499,-5.4625,-5.4867,-5.6486,-5.4931,0.0,0.0,0.0,0.0,0.0,0.0,-5.7784,-5.8719,-6.1959,-6.3179,-6.2577,-6.2959,-6.2921,-6.2538,-6.2108,-6.1562,-6.0912,-5.9536,-5.8155,-5.6851,0.0,0.0,0.0,0.0,-6.3608,-6.5403,-6.5673,-6.6178,-6.7018,-6.6216,-6.5788,-6.5847,-6.4698,-6.3796,-6.322,-6.0604,-5.8809,-5.8016,-5.5409,0.0,0.0,0.0,0.0,0.0,0.0,0.0,0.0,0.0,0.0,0.0,0.0,0.0,0.0,0.0,0.0,0.0,0.0,0.0,-4.532,-4.5853,-4.5991,0.0,0.0,0.0,0.0,0.0,0.0,0.0,0.0,0.0,-4.8813,-4.7764,-4.7028,0.0,0.0,-4.6269,-4.6253,-4.6217,-4.5985,-4.5383,-4.5005,0.0,-4.3631,-4.2752,-4.2029,-4.1533,-4.1413,-4.1368,-4.1293,-4.1957,-4.2317,-4.1672,-4.1608,-4.1474,-4.0836,-4.0242,-4.0325,-4.1306,-4.1164,-4.1235,-4.2535,-4.2876,-4.2844,-6.277,-5.8296,-5.5977,-5.557,-5.6369,-5.6369,-5.7901,-6.0355,-5.8845,-5.8692,-5.9417,-5.7891,-5.6421,-5.4966,-5.4522,0.0,0.0,0.0,-5.9945,-6.077,-6.3155,-6.4312,-6.4458,-6.4955,-6.5108,-6.4879,-6.4879,-6.4267,-6.3083,-6.3121,-6.2251,-6.0597,0.0,-6.0904,-6.2093,-6.3034,-6.4126,-6.5397,-6.5429,-6.5658,-6.6223,-6.5718,-6.5547,-6.558,-6.4895,-6.4103,-6.3258,-6.1488,-6.0161,-5.937,-5.7274,-5.5177,0.0,0.0,0.0,0.0,0.0,0.0,0.0,0.0,0.0,0.0,0.0,-4.4595,-4.5774,0.0,0.0,0.0,-4.7007,-4.7123,-4.745,-4.7687,0.0,0.0,0.0,0.0,0.0,0.0,0.0,-4.7952,-4.832,-4.8917,-4.9944,-4.8938,-4.8123,-4.8086,-4.7022,-4.6259,-4.6201,0.0,-4.5889,-4.497,-4.4833,-4.4491,-4.3598,-4.2767,-4.2087,-4.1696,-4.1606,-4.1564,-4.1532,-4.1892,-4.1988,-4.1574,-4.1682,-4.1812,-4.1272,-4.1008,-4.1092,-4.1833,-4.184,-4.2174,-4.3443,-4.3674,-4.3667,-6.8394,-6.6522,-6.1288,-6.0136,-6.1781,-6.1931,-6.23,-6.2802,-6.2785,-6.1911,-6.0523,-6.0349,-5.9507,-5.8195,-5.8221,0.0,-6.072,-6.1447,-6.2261,-6.3121,-6.4,-6.5222,-6.6674,-6.6713,-6.7133,-6.7897,-6.7744,-6.6942,-6.5528,-6.5413,-6.507,-6.4397,-6.2887,-6.2915,-6.4408,-6.4484,-6.4838,-6.549,-6.5467,-6.542,-6.5509,-6.558,-6.5635,-6.5678,-6.4872,-6.4014,-6.3231,-6.2397,-6.1639,-6.0781,-5.9331,-5.7746,-5.6058,0.0,0.0,0.0,0.0,0.0,0.0,0.0,0.0,0.0,0.0,0.0,0.0,0.0,0.0,-4.8741,-4.8742,0.0,-4.9644,-4.9149,0.0,0.0,0.0,-4.8903,-4.8903,-4.8943,-4.9007,-4.9007,0.0,0.0,-5.0178,-4.9372,-4.8789,-4.8788,-4.7325,-4.6201,-4.6189,-4.6187,-4.587,-4.4954,-4.4811,-4.4463,-4.3562,-4.2731,-4.1895,-4.1064,-4.079,-4.0797,-4.0758,-4.0745,-4.0693,-4.0665,-4.1314,-4.1846,-4.1808,-4.2325,-4.2865,-4.2198,-4.2717,-4.3497,-4.4153,-4.4391,-4.4405,-6.997,-6.9264,-6.7948,-6.6589,-6.529,-6.528,-6.5346,-6.5373,-6.4133,-6.3045,-6.2086,-6.1484,-6.0681,-5.9824,-5.9838,-6.0756,-6.2333,-6.2524,-6.3403,-6.484,-6.5681,-6.633,-6.6713,-6.6713,-6.7133,-6.7782,-6.6598,-6.6139,-6.6369,-6.5719,-6.5643,-6.6063,-6.5696,-6.5711,-6.6132,-6.6117,-6.6231,-6.6407,-6.5779,-6.5509,-6.5566,-6.5688,-6.546,-6.482,-6.4027,-6.3218,-6.2397,-6.1601,-6.1012,-6.0781,-5.9804,-5.8511,-5.6898,-5.5741,0.0,0.0,0.0,0.0,0.0,0.0,0.0,0.0,0.0,-4.8435,-5.0169,0.0,-5.1198,0.0,-5.0787,-5.0252,-4.9794,-5.0222,0.0,0.0,-5.0612,-5.0593,-5.0597,-5.0664,-5.0685,-5.07,-5.0321,-5.0356,-5.0997,-4.9217,-4.8162,-4.8745,-4.7322,-4.6204,-4.6189,-4.6187,-4.587,-4.4989,-4.4733,-4.4472,-4.3539,-4.2726,-4.1829,-4.0951,-4.0752,-4.072,-4.0647,-4.0619,-4.0583,-4.0592,-4.1262,-4.1578,-4.1084,-4.2079,-4.2965,-4.2903,-4.3489,-4.408,-4.4311,-4.4816,-4.4858,-7.0451,-7.0307,-7.0319,-6.9513,-6.8199,-6.7736,-6.7131,-6.6369,-6.5525,-6.4679,-6.3879,-6.3047,-6.248,-6.2089,-6.2104,-6.2777,-6.4,-6.442,-6.5108,-6.5987,-6.6483,-6.6865,-6.7209,-6.6865,-6.7133,-6.7859,-6.6973,-6.6606,-6.672,-6.6268,-6.6513,-6.7355,-6.6972,-6.7163,-6.7852,-6.7133,-6.672,-6.672,-6.5997,-6.566,-6.5688,-6.5409,-6.5026,-6.4526,-6.3757,-6.2909,-6.2136,-6.1636,-6.1212,-6.0866,-6.0019,-5.8952,-5.7706,-5.6559,-5.5017,0.0,0.0,0.0,0.0,0.0,0.0,0.0,0.0,0.0,0.0,0.0,-5.2862,-5.2841,-5.2058,-5.1545,-5.1488,-5.1593,-5.1713,-5.173,-5.1397,-5.1208,-5.1214,-5.1249,-5.1239,-5.1248,-5.0586,-5.0432,-5.1228,-4.9179,-4.7925,-4.8782,-4.7359,-4.624,-4.6108,-4.5563,-4.4853,-4.4366,-4.3912,-4.3335,-4.2431,-4.2183,-4.1776,-4.0939,-4.0654,-4.0612,-4.0523,-4.0546,-4.0531,-4.0569,-4.1247,-4.1732,-4.1309,-4.2179,-4.3065,-4.3165,-4.3464,-4.3995,-4.471,-4.4935,-4.4639,-7.0419,-7.0364,-7.0288,-7.019,-7.002,-6.9077,-6.7937,-6.6679,-6.6567,-6.6101,-6.5337,-6.4649,-6.4359,-6.4359,-6.4359,-6.4741,-6.5467,-6.6308,-6.6728,-6.6743,-6.6919,-6.7339,-6.7875,-6.7225,-6.7225,-6.7913,-6.776,-6.7408,-6.681,-6.6768,-6.718,-6.7961,-6.7271,-6.7693,-6.9112,-6.765,-6.6801,-6.6672,-6.6085,-6.5807,-6.5807,-6.5128,-6.4666,-6.4448,-6.3717,-6.2894,-6.1989,-6.1962,-6.1643,-6.0911,-6.0063,-5.9205,-5.8357,-5.6869,-5.5668,0.0,-5.42,0.0,0.0,0.0,0.0,0.0,0.0,0.0,0.0,-5.3345,-5.3739,-5.3669,-5.2957,-5.2768,-5.355,-5.2874,-5.2407,-5.2368,-5.1668,-5.1202,-5.1202,-5.1219,-5.1215,-5.1215,-5.0465,-5.0282,-5.0988,-4.9023,-4.7767,-4.8352,-4.6967,-4.5889,-4.5913,-4.4943,-4.4082,-4.3592,-4.2629,-4.1845,-4.1197,-4.1439,-4.1525,-4.0763,-4.0591,-4.0531,-4.0422,-4.0438,-4.0476,-4.0559,-4.1198,-4.1684,-4.1684,-4.2302,-4.2856,-4.2901,-4.2771,-4.3203,-4.4633,-4.4743,-4.4246,-7.0473,-7.0281,-6.966,-6.9005,-6.8317,-6.7499,-6.7331,-6.7537,-6.6216,-6.5566,-6.5375,-6.5222,-6.5184,-6.5146,-6.5184,-6.5267,-6.5518,-6.6398,-6.681,-6.6945,-6.8212,-6.8541,-6.8044,-6.7837,-6.7837,-6.7875,-6.6686,-6.6346,-6.6859,-6.6169,-6.6298,-6.7103,-6.702,-6.7456,-6.8339,0.0,0.0,0.0,-6.5871,-6.5846,-6.5885,-6.5743,-6.4999,-6.37,-6.3469,0.0,-6.1285,-6.1208,-6.1109,-6.0911,-6.0063,0.0,0.0,0.0,0.0,0.0,0.0,0.0,0.0,0.0,0.0,0.0,-5.405,-5.4304,-5.442,-5.4512,-5.4576,-5.4521,-5.3824,-5.3441,-5.3663,-5.2887,-5.2407,-5.2368,-5.1668,-5.1202,-5.1202,-5.1234,-5.1282,-5.1248,-4.9976,-4.9394,-5.0022,-4.8125,-4.6947,-4.761,-4.5753,-4.4558,-4.5058,-4.5351,-4.4851,-4.2973,-4.176,-4.1126,-4.0837,-4.0891,-4.0939,-4.064,-4.05,-4.043,-4.0406,-4.0419,-4.0386,-4.0351,-4.1093,-4.1489,-4.0841,-4.1429,-4.2055,-4.2047,-4.1477,-4.1524,-4.3201,-4.3974,-4.3892,-7.0435,-7.0315,-6.9944,-6.9311,0.0,-6.763,-6.7324,-6.7209,-6.5948,-6.5413,-6.5413,-6.5413,-6.5405,-6.5435,-6.5435,-6.5479,-6.559,-6.6892,-6.7496,-6.7563,-6.8378,-6.8555,-6.8133,-6.7237,-6.6801,-6.6763,-6.6082,-6.5931,-6.6315,-6.592,-6.6191,-6.7038,-6.6692,-6.691,-6.7706,-6.7034,-6.6429,-6.5909,-6.5895,-6.5907,-6.5921,-6.5125,-6.4313,-6.3461,-6.2635,0.0,0.0,0.0,0.0,0.0,0.0,0.0,0.0,-5.7166,0.0,-5.5462,-5.5475,-5.5341,-5.4996,-5.4951,-5.4964,-5.4951,-5.5391,-5.5618,-5.5539,-5.5116,-5.5009,-5.542,-5.4714,-5.4432,-5.484,-5.3786,-5.3028,-5.2989,-5.194,-5.1208,-5.1192,-5.1249,-5.1101,-5.0622,-4.956,-4.8967,-4.9362,-4.7656,-4.6751,-4.7336,-4.5757,-4.4287,-4.4239,-4.3908,-4.3094,-4.184,-4.1289,-4.0888,-4.0837,-4.0736,-4.0662,-4.0559,-4.05,-4.0436,-4.0386,-4.0394,-4.0441,-4.0424,-4.082,-4.0938,-4.0614,-4.0885,-4.1185,-4.1131,-4.0831,-4.0954,-4.22,-4.2757,-4.279,-7.0402,-7.0381,-7.0266,-6.9807,-6.912,-6.8126,-6.7209,-6.6407,-6.5719,0.0,0.0,-6.539,-6.5435,-6.5494,-6.5509,-6.5552,-6.5737,-6.7285,-6.8028,-6.8042,-6.8129,-6.8129,-6.7899,-6.6542,-6.5775,-6.566,-6.5742,-6.5807,-6.582,-6.5885,-6.6255,-6.687,-6.6328,-6.6376,-6.7,-6.6477,-6.6091,-6.6047,-6.587,-6.5874,-6.5943,-6.4524,-6.367,-6.3527,-6.22,-6.1427,-6.1238,-6.1164,-6.107,-6.0973,-5.934,-5.8402,-5.8252,-5.6791,-5.5961,-5.6054,-5.6157,-5.6194,-5.6199,-5.6272,-5.6278,-5.6213,-5.6278,-5.6278,-5.6199,-5.5546,-5.5416,-5.6156,-5.5564,-5.5391,-5.5902,-5.4608,-5.3617,-5.3462,-5.2102,-5.122,-5.1208,-5.1264,-5.0961,-5.0102,-4.9296,-4.8736,-4.8547,-4.7265,-4.6477,-4.6789,-4.564,-4.4367,-4.3336,-4.2136,-4.1438,-4.1408,-4.1172,-4.0888,-4.0798,-4.0736,-4.0649,-4.0561,-4.0531,-4.0427,-4.0368,-4.0394,-4.0474,-4.0466,-4.0476,-4.0531,-4.05,-4.0562,-4.0585,-4.0516,-4.0539,-4.0777,-4.1385,-4.1511,-4.1566,-7.0402,-7.0342,-6.9655,-6.9311,-6.9082,-6.7553,-6.6407,-6.5605,-6.5452,-6.5413,-6.5413,-6.545,-6.5479,-6.5509,-6.5552,-6.5622,-6.5818,-6.674,-6.7203,-6.7295,-6.7958,-6.7892,-6.7163,-6.6918,-6.6458,-6.5818,-6.5846,-6.5885,-6.5897,-6.596,-6.6073,-6.6162,-6.6101,-6.6179,-6.6309,-6.6242,-6.6165,-6.6165,-6.5456,-6.5363,-6.5963,-6.5093,-6.4335,-6.368,-6.3429,-6.2671,-6.1328,-6.1281,-6.1182,-6.0973,-5.9379,-5.8442,-5.8252,-5.6762,-5.5961,-5.6012,-5.6094,-5.6156,-5.6199,-5.6272,-5.6291,-5.6285,-5.6291,-5.6278,-5.6199,-5.6082,-5.6044,-5.6192,-5.6044,-5.5747,-5.523,-5.4271,-5.3384,-5.2684,-5.1769,-5.1208,-5.1214,-5.12,-5.0903,-5.004,-4.9298,-4.8465,-4.777,-4.6913,-4.6048,-4.5459,-4.4582,-4.3336,-4.1983,-4.1243,-4.1334,-4.1789,-4.1406,-4.0966,-4.0798,-4.0736,-4.0662,-4.0583,-4.0531,-4.0492,-4.0389,-4.0397,-4.0444,-4.0402,-4.0482,-4.0491,-4.0427,-4.0468,-4.0508,-4.0516,-4.0523,-4.0593,-4.0776,-4.0726,-4.0875,-7.0151,-6.9731,-6.9349,-6.8661,-6.7744,-6.6522,-6.5788,-6.545,-6.5518,-6.5479,-6.545,-6.5479,-6.5537,-6.566,-6.5688,-6.5742,-6.5897,-6.6705,-6.7064,-6.7128,-6.7474,-6.746,-6.7051,-6.6615,-6.623,-6.5859,-6.5885,-6.5923,-6.596,-6.5984,-6.5993,-6.6063,-6.6102,-6.6155,-6.6185,-6.6185,-6.5992,-6.5566,-6.5585,-6.5543,-6.5402,-6.4598,-6.3797,-6.3003,-6.262,-6.2097,-6.1399,-6.1306,-6.1001,-6.0394,-5.9195,-5.8298,-5.7639,-5.656,-5.5986,-5.604,-5.6102,-5.6192,-5.6265,-5.6285,-5.6291,-5.6291,-5.6291,-5.6285,-5.6233,-5.6265,-5.6226,-5.6233,-5.5838,-5.5417,-5.5009,-5.3817,-5.2896,-5.2508,-5.1719,-5.124,-5.1181,-5.0836,-5.0254,-4.943,-4.8644,-4.7842,-4.699,-4.6561,-4.5969,-4.5069,-4.3876,-4.2512,-4.1269,-4.1041,-4.1132,-4.1478,-4.1172,-4.0937,-4.0853,-4.0798,-4.0726,-4.0679,-4.0605,-4.0515,-4.0462,-4.0454,-4.0492,-4.0468,-4.0468,-4.0476,-4.046,-4.0484,-4.0508,-4.0516,-4.0516,-4.05,-4.0484,-4.0458,-4.0551,-6.9922,-6.9228,-6.9228,-6.8272,-6.672,-6.6047,-6.5656,-6.5523,-6.5594,-6.5608,-6.558,-6.558,-6.5663,-6.5859,-6.5846,-6.5885,-6.6037,-6.6768,-6.7013,-6.6885,-6.7039,-6.7,-6.6795,-6.6167,-6.5897,-6.5897,-6.5923,-6.5947,-6.5996,-6.6032,-6.6063,-6.6112,-6.6165,-6.6185,-6.6185,-6.6185,-6.5876,-6.5334,-6.5693,-6.5489,-6.4636,-6.3835,-6.3097,-6.2448,-6.1895,-6.1524,-6.1391,-6.1128,-6.0638,-5.9821,-5.8854,-5.7967,-5.7178,-5.645,-5.604,-5.6109,-5.6192,-5.6226,-5.6291,-5.6291,-5.6291,-5.6291,-5.6291,-5.6298,-5.6304,-5.6104,-5.6019,-5.5942,-5.5398,-5.4893,-5.4322,-5.333,-5.2414,-5.2225,-5.1629,-5.1264,-5.1209,-5.0544,-4.9682,-4.8894,-4.8102,-4.7258,-4.6522,-4.6288,-4.5851,-4.4711,-4.3207,-4.1849,-4.1003,-4.0893,-4.0945,-4.0774,-4.0784,-4.0893,-4.0863,-4.0826,-4.0814,-4.0746,-4.0681,-4.064,-4.0583,-4.0576,-4.0561,-4.0531,-4.0516,-4.0508,-4.0508,-4.0516,-4.0516,-4.0516,-4.0516,-4.0508,-4.0492,-4.0466,-4.0389,-6.9954,-6.9345,-6.9268,-6.8357,-6.696,-6.6768,-6.6308,-6.5685,-6.5676,-6.5705,-6.5756,-6.5756,-6.587,-6.5967,-6.597,-6.6005,-6.6135,-6.6912,-6.6865,-6.6266,-6.6844,-6.6768,-6.6102,-6.5936,-6.5897,-6.591,-6.596,-6.5996,-6.602,-6.6074,-6.6112,-6.6175,-6.6185,-6.6185,-6.6185,-6.6185,-6.6147,-6.6069,-6.5422,-6.4667,-6.3815,-6.3046,-6.2568,-6.2491,-6.2463,-6.2121,-6.1283,-6.0538,-6.0024,-5.9705,-5.8299,-5.7448,-5.7211,-5.6504,-5.6109,-5.6192,-5.6272,-5.6291,-5.6291,-5.6291,-5.6298,-5.6291,-5.6298,-5.6272,-5.6218,-5.5572,-5.5126,-5.5048,-5.5009,-5.4284,-5.2986,-5.2569,-5.2152,-5.1517,-5.1346,-5.1287,-5.1217,-5.0583,-4.976,-4.8894,-4.798,-4.7177,-4.6445,-4.617,-4.5535,-4.3993,-4.2299,-4.0991,-4.031,-4.0439,-4.0528,-4.0116,-4.0356,-4.0738,-4.0736,-4.0848,-4.0583,-4.0596,-4.0706,-4.0597,-4.0468,-4.0511,-4.0574,-4.0554,-4.0531,-4.0516,-4.0516,-4.0516,-4.0516,-4.0516,-4.0508,-4.05,-4.0499,-4.0449,-4.0398,-6.997,-6.9322,-6.9275,-6.8602,-6.762,-6.7127,-6.6737,-6.6473,-6.6,-6.5881,-6.6036,-6.6047,-6.6058,-6.6058,-6.6036,-6.608,-6.6183,-6.6405,-6.6349,-6.6044,-6.6328,-6.628,-6.5948,-6.5897,-6.5923,-6.596,-6.5996,-6.6005,-6.6074,-6.6112,-6.6165,-6.6185,-6.6185,-6.6185,-6.6185,-6.5721,-6.5257,-6.4725,-6.3912,-6.3106,-6.2435,-6.2469,-6.233,-6.1848,-6.1865,-6.1446,-6.0616,-6.0205,-5.9553,-5.8471,-5.773,-5.7156,-5.6629,-5.6296,-5.6192,-5.6233,-5.6265,-5.6323,-5.6323,-5.6341,-5.6353,-5.6353,-5.6353,-5.6164,-5.563,-5.523,-5.4675,-5.3702,-5.353,-5.318,-5.2547,-5.2106,-5.1648,-5.1312,-5.1295,-5.1308,-5.1269,-5.0134,-4.9145,-4.8769,-4.7629,-4.6712,-4.621,-4.5388,-4.4318,-4.3006,-4.143,-4.0211,-3.9839,-3.9659,-3.9325,-3.9069,-3.9237,-3.963,-3.9932,-3.9606,-3.9425,-3.9309,-3.928,-3.9334,-3.9857,-3.99,-3.9988,-4.0431,-4.0485,-4.0477,-4.0516,-4.0516,-4.0516,-4.0516,-4.0508,-4.05,-4.0491,-4.0466,-4.0449,-7.008,-6.9442,-6.9144,-6.8723,-6.8139,-6.7341,-6.7038,-6.7013,-6.6302,-6.6069,-6.6185,-6.6225,-6.6225,-6.6185,-6.6165,-6.6185,-6.6274,-6.6387,-6.6284,-6.6135,-6.6514,-6.6495,-6.6012,-6.6178,-6.6203,-6.6047,-6.6044,-6.6063,-6.6123,-6.6165,-6.6185,-6.6185,-6.6185,-6.6069,-6.5837,-6.5267,-6.4542,-6.37,-6.2904,-6.225,-6.1801,-6.2036,-6.1927,-6.136,-6.1345,-6.1035,-6.0359,-5.9917,-5.9095,-5.7791,-5.7335,-5.6784,-5.6194,-5.6192,-5.6233,-5.6304,-5.6341,-5.6319,-5.6358,-5.6375,-5.6308,-5.6075,-5.6041,-5.5652,-5.4918,-5.4523,-5.3867,-5.2826,-5.2295,-5.2212,-5.2115,-5.1667,-5.133,-5.13,-5.1312,-5.1242,-5.0899,-4.9796,-4.8995,-4.8457,-4.744,-4.6404,-4.5859,-4.4681,-4.3453,-4.2494,-4.0962,-3.9665,-3.9447,-3.8922,-3.8475,-3.8143,-3.8085,-3.8404,-3.902,-3.8889,-3.8355,-3.8285,-3.8374,-3.856,-3.9026,-3.9122,-3.9434,-3.9923,-4.0254,-4.0477,-4.0477,-4.0516,-4.0523,-4.0523,-4.0523,-4.0516,-4.0538,-4.0515,-4.0507,-7.0357,-6.9631,-6.8935,-6.8565,-6.8308,-6.7639,-6.7239,-6.7164,-6.6488,-6.6175,-6.6215,-6.6329,-6.6389,-6.6373,-6.6301,-6.6311,-6.6497,-6.7074,-6.6922,-6.6369,-6.775,-6.7675,-6.6124,-6.6827,-6.68,-6.6071,-6.6074,-6.6074,-6.6136,-6.6185,-6.6185,-6.6147,-6.6108,-6.5799,-6.5151,-6.4919,-6.4512,-6.3592,-6.2857,-6.2493,-6.2314,-6.1687,-6.1392,-6.1306,-6.1242,-6.1161,-6.0919,-5.9534,-5.8604,-5.8518,-5.7125,-5.6269,-5.6199,-5.6272,-5.6304,-5.6302,-5.637,-5.6386,-5.6347,-5.6314,-5.6002,-5.5302,-5.5151,-5.4801,-5.3925,-5.3254,-5.2791,-5.2555,-5.1836,-5.1438,-5.1442,-5.1408,-5.13,-5.1312,-5.1316,-5.0977,-5.0332,-5.0075,-4.9235,-4.8081,-4.7487,-4.664,-4.5264,-4.4278,-4.3331,-4.2266,-4.0849,-3.9509,-3.8834,-3.8547,-3.7984,-3.7459,-3.7286,-3.7494,-3.817,-3.8001,-3.8074,-3.7962,-3.7683,-3.8048,-3.8369,-3.8691,-3.9066,-3.953,-4.0092,-4.0439,-4.0477,-4.0523,-4.0539,-4.0539,-4.0531,-4.0523,-4.0569,-4.0562,-4.05,-7.0315,-6.9577,-6.9463,-6.9077,-6.8475,-6.8251,-6.7895,-6.7338,-6.6582,-6.6312,-6.6329,-6.6381,-6.6422,-6.6477,-6.6453,-6.6453,-6.6516,-6.6722,-6.6621,-6.6361,-6.6863,-6.6731,-6.6106,-6.6349,-6.6372,-6.6124,-6.6119,-6.5863,-6.5528,-6.5953,-6.5644,-6.4831,-6.518,-6.5006,-6.4222,-6.366,-6.3222,-6.29,-6.2183,-6.1764,-6.1732,-6.143,-6.1322,-6.1322,-6.1289,-6.0976,-6.0372,-5.9813,-5.8994,-5.7862,-5.7295,-5.6795,-5.6311,-5.6304,-5.6341,-5.637,-5.6363,-5.6145,-5.5677,-5.5614,-5.5268,-5.445,-5.4333,-5.3983,-5.3213,-5.2741,-5.2356,-5.1857,-5.1546,-5.1308,-5.1308,-5.1308,-5.1312,-5.1316,-5.1281,-5.1172,-5.0725,-4.9928,-4.8977,-4.8335,-4.7498,-4.609,-4.4676,-4.3886,-4.3133,-4.171,-4.0064,-3.9002,-3.8436,-3.7645,-3.6779,-3.6492,-3.6359,-3.6452,-3.6612,-3.6695,-3.6677,-3.6634,-3.6593,-3.6914,-3.7255,-3.8048,-3.8541,-3.9198,-3.9877,-4.0439,-4.0523,-4.0539,-4.0554,-4.0561,-4.0554,-4.0546,-4.0607,-4.0562,-4.0523,-7.0169,-6.9694,-6.955,-6.9162,-6.8535,-6.8381,-6.8032,-6.7415,-6.667,-6.6346,-6.6398,-6.6414,-6.6477,-6.6508,-6.6508,-6.6508,-6.6501,-6.6453,-6.6403,-6.6388,-6.6593,-6.6476,-6.619,-6.6383,-6.6366,-6.6193,-6.6155,-6.5915,-6.5577,-6.5993,-6.549,-6.4309,-6.4764,-6.4434,-6.3416,-6.2775,-6.2452,-6.2097,-6.1586,-6.1322,-6.1283,-6.105,-6.1042,-6.1228,-6.1026,-6.0614,-5.9973,-5.973,-5.8956,-5.7637,-5.7247,-5.6854,-5.6349,-5.6314,-5.6225,-5.6013,-5.5999,-5.5623,-5.4883,-5.4741,-5.4394,-5.358,-5.3459,-5.3108,-5.229,-5.2177,-5.1865,-5.1437,-5.132,-5.132,-5.132,-5.1285,-5.1289,-5.1289,-5.1289,-5.1069,-5.0553,-4.9755,-4.9038,-4.8315,-4.7148,-4.5617,-4.4124,-4.3805,-4.2893,-4.1349,-3.9592,-3.8605,-3.8311,-3.7058,-3.5886,-3.5875,-3.5934,-3.5956,-3.6083,-3.6172,-3.6133,-3.6052,-3.6022,-3.6184,-3.6565,-3.7398,-3.8214,-3.8873,-3.9584,-4.0223,-4.0539,-4.0592,-4.0607,-4.0583,-4.0569,-4.0592,-4.0577,-4.0531,-4.0499,-6.9938,-6.9729,-6.9071,-6.8657,-6.8315,-6.7918,-6.7581,-6.7329,-6.6713,-6.6406,-6.6422,-6.6454,-6.6508,-6.6508,-6.6516,-6.6508,-6.6508,-6.6501,-6.6439,-6.6467,-6.7127,-6.7044,-6.6341,-6.699,-6.6912,-6.6303,-6.6303,-6.6292,-6.6174,-6.6215,-6.5827,-6.5127,-6.4894,-6.4158,-6.2538,-6.2493,-6.2129,-6.1562,-6.1391,-6.1352,-6.1213,-6.0655,-6.06,-6.1034,-6.0483,-6.0018,-5.9855,-5.9281,-5.8559,-5.755,-5.6815,-5.6349,-5.6347,-5.628,-5.5999,-5.5341,-5.5204,-5.4745,-5.4004,-5.3888,-5.3502,-5.2762,-5.2606,-5.2255,-5.1632,-5.1437,-5.1398,-5.132,-5.132,-5.132,-5.1285,-5.1303,-5.131,-5.1275,-5.1236,-5.0553,-4.961,-4.9588,-4.9407,-4.7889,-4.6672,-4.5575,-4.4236,-4.3564,-4.2813,-4.1276,-3.9628,-3.8524,-3.835,-3.7019,-3.6045,-3.5883,-3.5908,-3.5885,-3.5861,-3.5873,-3.5793,-3.5747,-3.58,-3.588,-3.625,-3.6929,-3.7874,-3.8618,-3.9767,-4.0407,-4.0592,-4.0615,-4.0598,-4.0605,-4.0583,-4.0561,-4.0562,-4.0523,-4.0466,-6.9121,-6.8988,-6.8285,-6.759,-6.7125,-6.7453,-6.7334,-6.6752,-6.6539,-6.6501,-6.6531,-6.6546,-6.6553,-6.6592,-6.6592,-6.6538,-6.6508,-6.6531,-6.6516,-6.6492,-6.6717,-6.6691,-6.6493,-6.6648,-6.6657,-6.6403,-6.6364,-6.6062,-6.5721,-6.6101,-6.5657,-6.4485,-6.4244,-6.3641,-6.2626,-6.2013,-6.1524,-6.1398,-6.1405,-6.1359,-6.1283,-6.105,-6.0794,-6.0414,-6.0197,-5.956,-5.8425,-5.9187,-5.8954,-5.7557,-5.7301,-5.693,-5.6397,-5.5799,-5.5424,-5.5165,-5.4585,-5.3931,-5.3151,-5.2995,-5.2645,-5.1943,-5.171,-5.1593,-5.1359,-5.132,-5.132,-5.1281,-5.1292,-5.1303,-5.1307,-5.132,-5.133,-5.1369,-5.0831,-5.0306,-4.9556,-4.8865,-4.7929,-4.6905,-4.5959,-4.4941,-4.3926,-4.3297,-4.2391,-4.1168,-3.9562,-3.8539,-3.8196,-3.698,-3.5967,-3.5886,-3.5908,-3.5892,-3.5868,-3.5834,-3.5784,-3.5708,-3.5718,-3.5692,-3.6024,-3.6858,-3.7726,-3.8716,-3.9827,-4.0398,-4.0552,-4.0644,-4.0626,-4.0626,-4.0612,-4.0576,-4.0523,-4.046,-4.0441,-6.8794,-6.8618,-6.758,-6.6825,-6.6379,-6.7002,-6.6919,-6.6469,-6.6508,-6.6546,-6.6606,-6.6581,-6.6581,-6.6574,-6.6581,-6.656,-6.6516,-6.6567,-6.6553,-6.6501,-6.6493,-6.6477,-6.65,-6.6492,-6.6469,-6.6446,-6.6454,-6.6182,-6.5716,-6.6128,-6.5716,-6.4535,-6.4023,-6.3456,-6.2664,-6.181,-6.1352,-6.1412,-6.1412,-6.1405,-6.1189,-6.0723,-6.0281,-5.9956,-5.9466,-5.8634,-5.7683,-5.8609,-5.8531,-5.7386,-5.7124,-5.6742,-5.5999,-5.5385,-5.4888,-5.4195,-5.3693,-5.3034,-5.2255,-5.2099,-5.1943,-5.1398,-5.132,-5.132,-5.132,-5.1285,-5.1292,-5.1296,-5.131,-5.1323,-5.1362,-5.1386,-5.1282,-5.0937,-5.043,-4.9824,-4.9216,-4.7967,-4.7062,-4.6313,-4.5567,-4.4667,-4.3808,-4.2942,-4.1921,-4.0775,-3.9401,-3.8263,-3.7885,-3.6785,-3.6201,-3.5886,-3.5875,-3.5895,-3.5872,-3.5795,-3.5741,-3.5704,-3.5669,-3.5687,-3.5847,-3.7102,-3.8182,-3.9217,-4.0289,-4.0472,-4.0626,-4.0686,-4.0706,-4.0654,-4.0588,-4.0523,-4.05,-4.0427,-4.0407,-6.8777,-6.8517,-6.698,-6.6379,-6.6385,-6.6467,-6.6508,-6.6508,-6.6546,-6.6606,-6.6581,-6.6607,-6.6607,-6.6594,-6.6614,-6.6594,-6.6538,-6.6594,-6.6607,-6.662,-6.6613,-6.6606,-6.6553,-6.6585,-6.6592,-6.6567,-6.6528,-6.6535,-6.6411,-6.65,-6.6042,-6.5095,-6.4326,-6.3556,-6.2694,-6.1801,-6.1412,-6.1412,-6.1412,-6.1373,-6.1218,-5.9897,-5.9198,-5.9781,-5.8506,-5.7696,-5.7476,-5.7462,-5.7175,-5.6508,-5.6412,-5.5994,-5.5307,-5.5087,-5.416,-5.2918,-5.2606,-5.2138,-5.1515,-5.1437,-5.1398,-5.132,-5.1285,-5.132,-5.1285,-5.1303,-5.1317,-5.132,-5.1369,-5.1378,-5.1389,-5.1256,-5.0843,-5.0108,-4.9718,-4.906,-4.7731,-4.6829,-4.6395,-4.6078,-4.5452,-4.4591,-4.3609,-4.2776,-4.1551,-4.0248,-3.9107,-3.828,-3.7411,-3.6629,-3.6045,-3.5883,-3.5875,-3.5853,-3.5826,-3.5775,-3.5722,-3.5733,-3.5697,-3.5676,-3.593,-3.7198,-3.8659,-3.9693,-4.0433,-4.057,-4.0661,-4.072,-4.0706,-4.064,-4.0559,-4.0539,-4.0468,-4.0441,-4.0407,-6.849,-6.7842,-6.6805,-6.6367,-6.6394,-6.6461,-6.6493,-6.6508,-6.6592,-6.6588,-6.6614,-6.6645,-6.6651,-6.6684,-6.669,-6.6633,-6.6614,-6.6639,-6.6657,-6.669,-6.6684,-6.6653,-6.6613,-6.6606,-6.6588,-6.6607,-6.6633,-6.6633,-6.6607,-6.6517,-6.6055,-6.518,-6.4333,-6.3556,-6.2701,-6.1847,-6.1412,-6.1412,-6.1412,-6.107,-6.0526,-6.006,-5.9205,-5.824,-5.7813,-5.7295,-5.6714,-5.6135,-5.6076,-5.6339,-5.576,-5.5385,-5.5009,-5.4004,-5.3151,-5.2606,-5.1982,-5.1593,-5.1398,-5.132,-5.132,-5.132,-5.1296,-5.1303,-5.1307,-5.1359,-5.1375,-5.1383,-5.1391,-5.1364,-5.1306,-5.0768,-4.984,-4.8554,-4.8358,-4.7926,-4.6982,-4.6428,-4.6072,-4.5405,-4.4624,-4.3844,-4.2942,-4.204,-4.1094,-3.9984,-3.9036,-3.821,-3.7342,-3.6512,-3.5889,-3.588,-3.5869,-3.5843,-3.5811,-3.5758,-3.5747,-3.5718,-3.5725,-3.5704,-3.6234,-3.7183,-3.8691,-4.01,-4.052,-4.0739,-4.0733,-4.0739,-4.0668,-4.064,-4.0574,-4.0523,-4.046,-4.0415,-4.0398,-6.8597,-6.8073,-6.6898,-6.642,-6.6445,-6.6493,-6.6508,-6.6516,-6.6567,-6.6601,-6.6588,-6.6669,-6.6719,-6.6713,-6.6724,-6.6663,-6.6633,-6.6669,-6.6719,-6.6713,-6.6708,-6.6684,-6.6607,-6.6607,-6.6666,-6.6645,-6.6674,-6.6429,-6.6082,-6.6037,-6.5531,-6.4658,-6.3867,-6.3168,-6.2701,-6.184,-6.1412,-6.1412,-6.1373,-6.1102,-6.0681,-5.9904,-5.9166,-5.804,-5.7541,-5.6795,-5.6347,-5.5609,-5.5389,-5.5575,-5.5073,-5.4463,-5.4082,-5.3229,-5.245,-5.2099,-5.1554,-5.132,-5.132,-5.132,-5.1285,-5.1292,-5.1307,-5.1317,-5.1323,-5.1375,-5.1391,-5.1396,-5.1403,-5.1224,-5.0693,-4.9763,-4.871,-4.7842,-4.7287,-4.6855,-4.6347,-4.6658,-4.6186,-4.5286,-4.4507,-4.3725,-4.2588,-4.1649,-4.0783,-3.9911,-3.9041,-3.8176,-3.7308,-3.6482,-3.5889,-3.5883,-3.5908,-3.5885,-3.5857,-3.5849,-3.5722,-3.5728,-3.5702,-3.5715,-3.6704,-3.751,-3.8762,-4.0063,-4.0481,-4.081,-4.0759,-4.0746,-4.0674,-4.0647,-4.0588,-4.0569,-4.0499,-4.0415,-4.0407,-6.8885,-6.8735,-6.7066,-6.6431,-6.6501,-6.6508,-6.6508,-6.6531,-6.6588,-6.662,-6.6639,-6.6686,-6.6696,-6.6719,-6.6696,-6.668,-6.66,-6.6686,-6.6691,-6.6724,-6.668,-6.6585,-6.6373,-6.6612,-6.6702,-6.6674,-6.6618,-6.609,-6.5549,-6.5297,-6.4682,-6.3934,-6.3097,-6.267,-6.2366,-6.1737,-6.1458,-6.1412,-6.1412,-6.1218,-6.0759,-5.9671,-5.8778,-5.8273,-5.7088,-5.6535,-5.6158,-5.5488,-5.4956,-5.4952,-5.4191,-5.3459,-5.2758,-5.2606,-5.2138,-5.1554,-5.1359,-5.132,-5.132,-5.1285,-5.1292,-5.1307,-5.1317,-5.1323,-5.1378,-5.1394,-5.1406,-5.1406,-5.1295,-5.0683,-4.9721,-4.8476,-4.7763,-4.7281,-4.6731,-4.6378,-4.6456,-4.7047,-4.6892,-4.5208,-4.4901,-4.4114,-4.274,-4.1599,-4.0775,-3.9908,-3.9041,-3.8176,-3.731,-3.6482,-3.6047,-3.5889,-3.5911,-3.5931,-3.5942,-3.5908,-3.5788,-3.5708,-3.5689,-3.5973,-3.7345,-3.8257,-3.909,-3.994,-4.0533,-4.0816,-4.081,-4.0746,-4.0674,-4.064,-4.0612,-4.0546,-4.0507,-4.0458,-4.0424,-6.8635,-6.793,-6.6841,-6.6431,-6.6501,-6.6508,-6.6531,-6.656,-6.6601,-6.6639,-6.6663,-6.6696,-6.6707,-6.6702,-6.6707,-6.6663,-6.6647,-6.6702,-6.6707,-6.6702,-6.6702,-6.6268,-6.5945,-6.6252,-6.6635,-6.6485,-6.5922,-6.5512,-6.516,-6.4519,-6.3878,-6.3061,-6.2743,-6.2354,-6.1732,-6.157,-6.1408,-6.1419,-6.1412,-6.1063,-6.0448,-5.9438,-5.8506,-5.7852,-5.6885,-5.6425,-5.6067,-5.4961,-5.4195,-5.3961,-5.342,-5.284,-5.2489,-5.1982,-5.1554,-5.1398,-5.132,-5.132,-5.1285,-5.1296,-5.1307,-5.1317,-5.1339,-5.1391,-5.1394,-5.1375,-5.1382,-5.1267,-5.0762,-4.9871,-4.8515,-4.7883,-4.7284,-4.6768,-4.6495,-4.6296,-4.6407,-4.6993,-4.6368,-4.4844,-4.4487,-4.4051,-4.1783,-4.1393,-4.065,-3.9865,-3.9041,-3.8176,-3.7427,-3.664,-3.644,-3.6356,-3.6456,-3.6593,-3.6657,-3.6472,-3.6004,-3.5926,-3.5907,-3.6319,-3.7649,-3.8584,-3.9301,-3.9997,-4.0694,-4.0816,-4.0816,-4.0739,-4.0661,-4.0626,-4.0598,-4.0539,-4.0523,-4.0482,-4.0474,-6.8824,-6.8309,-6.7044,-6.6507,-6.656,-6.656,-6.6567,-6.662,-6.6627,-6.6657,-6.6713,-6.6696,-6.6707,-6.6712,-6.6712,-6.6707,-6.6712,-6.6712,-6.6478,-6.62,-6.6044,-6.5621,-6.4992,-6.5216,-6.5483,-6.5405,-6.5026,-6.4621,-6.4126,-6.3687,-6.3007,-6.2238,-6.2154,-6.1875,-6.1473,-6.1396,-6.1648,-6.1854,-6.1568,-6.114,-6.0642,-5.9438,-5.813,-5.7223,-5.657,-5.6261,-5.5692,-5.4619,-5.3771,-5.3303,-5.2879,-5.2411,-5.2021,-5.1593,-5.1359,-5.132,-5.1292,-5.1296,-5.13,-5.1314,-5.1366,-5.1336,-5.1357,-5.1371,-5.1379,-5.1389,-5.1157,-5.0807,-5.026,-4.9445,-4.7812,-4.7137,-4.6731,-4.6489,-4.6294,-4.6288,-4.636,-4.6631,-4.6123,-4.436,-4.4044,-4.3102,-4.1969,-4.1269,-4.1037,-4.0452,-3.9163,-3.8337,-3.8561,-3.7848,-3.7333,-3.7211,-3.7232,-3.7336,-3.7446,-3.7109,-3.6332,-3.6263,-3.6284,-3.693,-3.7962,-3.8701,-3.9364,-4.0093,-4.0784,-4.0816,-4.081,-4.0733,-4.0661,-4.0633,-4.0598,-4.0546,-4.0516,-4.05,-4.0508,-6.9148,-6.9065,-6.7321,-6.6588,-6.6627,-6.662,-6.6607,-6.664,-6.6684,-6.6713,-6.6719,-6.6702,-6.6712,-6.6717,-6.6717,-6.6717,-6.6683,-6.6449,-6.6069,-6.5631,-6.5319,-6.473,-6.414,-6.4018,-6.3901,-6.375,-6.3867,-6.3541,-6.3091,-6.2619,-6.2291,-6.1651,-6.1528,-6.1562,-6.146,-6.1441,-6.1545,-6.179,-6.1342,-6.0868,-6.0526,-5.9244,-5.7826,-5.6741,-5.6436,-5.6159,-5.5545,-5.4697,-5.3849,-5.3073,-5.2875,-5.2415,-5.1912,-5.1522,-5.1487,-5.153,-5.1473,-5.1323,-5.1327,-5.1375,-5.1386,-5.1401,-5.1412,-5.1385,-5.1395,-5.1163,-5.0773,-5.0266,-4.972,-4.8903,-4.7577,-4.6859,-4.6452,-4.6286,-4.6282,-4.6199,-4.5997,-4.596,-4.498,-4.4111,-4.3677,-4.2969,-4.1925,-4.1111,-4.1113,-4.0881,-3.9555,-3.877,-3.8992,-3.8826,-3.8191,-3.7837,-3.7864,-3.7495,-3.7523,-3.7867,-3.7051,-3.6474,-3.6574,-3.7384,-3.8224,-3.8888,-3.9547,-4.0304,-4.0796,-4.0784,-4.0803,-4.0733,-4.0661,-4.0595,-4.0574,-4.0583,-4.0569,-4.0569,-4.0569,-6.9155,-6.9026,-6.7321,-6.6639,-6.6657,-6.6639,-6.6639,-6.6657,-6.6708,-6.6724,-6.6702,-6.6707,-6.6722,-6.6697,-6.6702,-6.6755,-6.6646,-6.6178,-6.5663,-6.5264,-6.4753,-6.393,-6.321,-6.3054,-6.2737,-6.2387,-6.2698,-6.2917,-6.2629,-6.2112,-6.1762,-6.1523,-6.1523,-6.1479,-6.1468,-6.1451,-6.1298,-6.1227,-6.0695,-6.0176,-5.9523,-5.8409,-5.7423,-5.6458,-5.6417,-5.6246,-5.6065,-5.5407,-5.4901,-5.4706,-5.4082,-5.3639,-5.3231,-5.2692,-5.2425,-5.22,-5.1698,-5.1389,-5.1391,-5.1391,-5.1401,-5.1412,-5.1382,-5.1355,-5.1207,-5.078,-5.0271,-4.9686,-4.875,-4.7616,-4.6636,-4.6383,-4.6286,-4.6233,-4.6189,-4.595,-4.5279,-4.4691,-4.4187,-4.3512,-4.335,-4.3036,-4.1914,-4.11,-4.1103,-4.0872,-4.0014,-3.9541,-3.9689,-3.9291,-3.8619,-3.8422,-3.838,-3.7855,-3.7407,-3.7945,-3.7848,-3.6914,-3.6936,-3.7713,-3.8471,-3.9102,-3.9807,-4.0483,-4.0802,-4.0816,-4.0759,-4.0733,-4.0713,-4.0661,-4.064,-4.0626,-4.0605,-4.0583,-4.053,-6.8495,-6.8397,-6.7169,-6.6669,-6.6669,-6.6674,-6.6669,-6.6713,-6.6724,-6.6696,-6.6712,-6.6727,-6.6697,-6.6711,-6.6763,-6.6775,-6.6545,-6.5921,-6.5293,-6.4778,-6.3959,-6.3089,-6.2366,-6.2288,-6.2006,-6.1807,-6.2075,-6.2265,-6.2138,-6.1827,-6.1549,-6.1549,-6.1549,-6.1544,-6.1489,-6.1495,-6.1466,-6.1162,-6.0546,-5.9879,-5.9277,-5.798,-5.6814,-5.6563,-5.6398,-5.6221,-5.5797,-5.5528,-5.494,-5.4593,-5.4523,-5.432,-5.3916,-5.3545,-5.3123,-5.2657,-5.1876,-5.1408,-5.1408,-5.1406,-5.141,-5.1375,-5.1385,-5.1124,-5.0818,-5.0312,-4.9726,-4.8789,-4.7851,-4.6752,-4.6356,-4.6255,-4.6233,-4.622,-4.6176,-4.5741,-4.4991,-4.4127,-4.3503,-4.2958,-4.2406,-4.1974,-4.1587,-4.1128,-4.1092,-4.0783,-4.0276,-4.0273,-4.0346,-3.9869,-3.924,-3.9474,-3.9471,-3.8988,-3.8383,-3.845,-3.8478,-3.7591,-3.7489,-3.8266,-3.8869,-3.9573,-4.0095,-4.066,-4.0781,-4.0816,-4.0797,-4.0739,-4.0726,-4.072,-4.0706,-4.0647,-4.0619,-4.0598,-4.0576,-6.7909,-6.7837,-6.7042,-6.6696,-6.6724,-6.6696,-6.6691,-6.6724,-6.6702,-6.6712,-6.6722,-6.6702,-6.6716,-6.6728,-6.6787,-6.6798,-6.6716,-6.5897,-6.5195,-6.4528,-6.3514,-6.2606,-6.2317,-6.1764,-6.1755,-6.205,-6.1694,-6.1612,-6.1685,-6.1602,-6.1607,-6.1564,-6.1568,-6.1559,-6.1534,-6.1234,-6.1744,-6.1246,-6.0482,-5.9672,-5.8886,-5.757,-5.6393,-5.6398,-5.6459,-5.616,-5.5723,-5.561,-5.5108,-5.4765,-5.4702,-5.4804,-5.4057,-5.3803,-5.3419,-5.2715,-5.1893,-5.1501,-5.138,-5.1379,-5.1379,-5.138,-5.1229,-5.0853,-5.0508,-5.0037,-4.9218,-4.7811,-4.687,-4.6394,-4.6269,-4.6245,-4.622,-4.6125,-4.5962,-4.5569,-4.4627,-4.3725,-4.2828,-4.2202,-4.1461,-4.1188,-4.1117,-4.1117,-4.1123,-4.1084,-4.0616,-4.0655,-4.0688,-4.049,-4.0172,-4.0601,-4.0637,-4.0237,-3.9714,-3.9229,-3.8941,-3.8175,-3.8387,-3.9116,-3.9646,-4.0165,-4.0532,-4.0782,-4.0775,-4.081,-4.0797,-4.0759,-4.0746,-4.0739,-4.0733,-4.072,-4.0706,-4.0696,-4.0684,-6.7909,-6.7837,-6.7025,-6.6724,-6.6702,-6.6724,-6.673,-6.6707,-6.6712,-6.6722,-6.6702,-6.6711,-6.6736,-6.6762,-6.6781,-6.679,-6.6556,-6.5967,-6.5373,-6.4821,-6.3689,-6.3172,-6.3393,-6.2177,-6.2048,-6.2188,-6.1829,-6.1625,-6.1578,-6.1573,-6.1568,-6.1568,-6.1568,-6.1559,-6.1461,-6.09,-6.0066,-5.9416,-5.8509,-5.7698,-5.7086,-5.6651,-5.6471,-5.6407,-5.6464,-5.6363,-5.6078,-5.5969,-5.5631,-5.4986,-5.5028,-5.4791,-5.4044,-5.3231,-5.2925,-5.2498,-5.1951,-5.1402,-5.1396,-5.1273,-5.1348,-5.1192,-5.0804,-5.0741,-5.0621,-4.9744,-4.8686,-4.7632,-4.6772,-4.6305,-4.6222,-4.6233,-4.6206,-4.5956,-4.5602,-4.4858,-4.3952,-4.3332,-4.2471,-4.1848,-4.1227,-4.1149,-4.111,-4.111,-4.111,-4.1071,-4.1033,-4.1033,-4.0994,-4.0757,-4.0676,-4.0948,-4.1068,-4.0708,-4.0496,-4.0089,-3.968,-3.8878,-3.9289,-3.9893,-4.015,-4.0441,-4.061,-4.0815,-4.0808,-4.0816,-4.081,-4.0803,-4.0765,-4.0765,-4.0752,-4.0759,-4.0803,-4.0815,-4.0961,-6.7236,-6.7197,-6.6847,-6.6702,-6.6707,-6.6696,-6.6702,-6.6712,-6.6727,-6.6697,-6.6716,-6.674,-6.6766,-6.6745,-6.6795,-6.6795,-6.6641,-6.5975,-6.527,-6.4799,-6.3701,-6.2993,-6.2551,-6.2077,-6.1992,-6.2052,-6.1842,-6.1599,-6.1586,-6.1578,-6.1568,-6.1568,-6.1568,-6.1602,-6.1432,-6.0716,-6.0194,-5.9482,-5.8431,-5.7302,-5.6612,-5.6437,-5.645,-5.6455,-5.6433,-5.616,-5.5844,-5.5727,-5.5322,-5.4642,-5.4459,-5.4096,-5.3423,-5.2884,-5.2536,-5.1914,-5.164,-5.1404,-5.136,-5.0964,-5.1002,-5.1124,-5.0699,-5.0507,-5.0754,-4.983,-4.8696,-4.8285,-4.6989,-4.6327,-4.6214,-4.6223,-4.6196,-4.5946,-4.5361,-4.454,-4.3679,-4.2822,-4.212,-4.1575,-4.1107,-4.1107,-4.1107,-4.111,-4.111,-4.111,-4.1071,-4.1068,-4.1068,-4.0994,-4.0948,-4.0977,-4.1023,-4.0945,-4.0811,-4.056,-4.0579,-4.0053,-4.0027,-4.048,-4.051,-4.0684,-4.0775,-4.0821,-4.0787,-4.0802,-4.0822,-4.081,-4.0771,-4.081,-4.0816,-4.0842,-4.0945,-4.1472,-4.1817,-6.6712,-6.6712,-6.6702,-6.6702,-6.6707,-6.6707,-6.6707,-6.6722,-6.6702,-6.6599,-6.6463,-6.6453,-6.6472,-6.66,-6.6639,-6.668,-6.6444,-6.6053,-6.5429,-6.4609,-6.3945,-6.3313,-6.2878,-6.2368,-6.2086,-6.1914,-6.1786,-6.1619,-6.1608,-6.1591,-6.1578,-6.1568,-6.1257,-6.1369,-6.1242,-6.0458,-5.9708,-5.9202,-5.7994,-5.7064,-5.6528,-5.6221,-5.6156,-5.6082,-5.5926,-5.5576,-5.5022,-5.4874,-5.4465,-5.3799,-5.3618,-5.3251,-5.2532,-5.2264,-5.203,-5.1601,-5.1406,-5.1406,-5.1169,-5.0814,-5.0579,-5.0662,-5.0779,-5.0521,-5.0176,-4.937,-4.8602,-4.8316,-4.7101,-4.6364,-4.621,-4.622,-4.6193,-4.5832,-4.5163,-4.4423,-4.3601,-4.2627,-4.1887,-4.1419,-4.1107,-4.1107,-4.1107,-4.1107,-4.1107,-4.1107,-4.1107,-4.1068,-4.1065,-4.1065,-4.1055,-4.1006,-4.1013,-4.102,-4.097,-4.0914,-4.0972,-4.0991,-4.0926,-4.0912,-4.0786,-4.0767,-4.0814,-4.0826,-4.0798,-4.0808,-4.0822,-4.0816,-4.0816,-4.0816,-4.081,-4.0933,-4.1176,-4.183,-4.2587,-6.6712,-6.6707,-6.6724,-6.673,-6.6707,-6.6724,-6.6707,-6.6702,-6.6711,-6.6307,-6.5751,-6.5652,-6.5699,-6.5858,-6.6288,-6.6288,-6.5702,-6.6405,-6.5897,-6.5507,-6.5312,-6.4411,-6.3628,-6.2964,-6.2649,-6.256,-6.2041,-6.168,-6.163,-6.1612,-6.1591,-6.1495,-6.091,-6.1008,-6.0731,-5.9879,-5.8754,-5.8135,-5.7122,-5.6745,-5.6281,-5.5892,-5.542,-5.5202,-5.4621,-5.4028,-5.4009,-5.3989,-5.3628,-5.2847,-5.2776,-5.2521,-5.1873,-5.1719,-5.1523,-5.1445,-5.1406,-5.1328,-5.1054,-5.0586,-5.0234,-5.0387,-5.0596,-5.0576,-4.9889,-4.9141,-4.8422,-4.7874,-4.6938,-4.6364,-4.6208,-4.6192,-4.62,-4.5875,-4.5166,-4.4302,-4.3406,-4.2276,-4.1614,-4.1263,-4.1107,-4.1107,-4.1107,-4.1107,-4.1107,-4.1107,-4.1107,-4.1065,-4.1013,-4.1009,-4.0999,-4.0991,-4.1002,-4.1009,-4.1009,-4.0991,-4.0972,-4.0995,-4.0935,-4.0917,-4.0869,-4.0883,-4.0868,-4.0832,-4.0804,-4.0814,-4.079,-4.079,-4.0784,-4.0816,-4.0913,-4.1344,-4.2068,-4.2903,-4.3541,-6.6712,-6.6707,-6.6696,-6.6702,-6.6707,-6.6702,-6.6717,-6.6711,-6.6724,-6.6326,-6.5499,-6.5075,-6.4804,-6.5038,-6.5585,-6.5585,-6.4999,-6.5663,-6.5468,-6.4804,-6.4258,-6.3828,-6.3204,-6.2774,-6.2145,-6.2178,-6.1822,-6.1696,-6.1651,-6.1556,-6.1194,-6.0867,-6.0417,-6.0516,-6.0161,-5.9191,-5.7983,-5.7213,-5.671,-5.6488,-5.6332,-5.5708,-5.5202,-5.5128,-5.4351,-5.3607,-5.3214,-5.3111,-5.2632,-5.2188,-5.2005,-5.179,-5.1562,-5.1444,-5.1402,-5.1401,-5.1401,-5.1168,-5.078,-5.035,-5.0111,-5.0232,-5.0683,-5.0824,-4.9764,-4.9305,-4.872,-4.8008,-4.7014,-4.6284,-4.6255,-4.6233,-4.6161,-4.5881,-4.5251,-4.4306,-4.3484,-4.2474,-4.1848,-4.1692,-4.1341,-4.1107,-4.1107,-4.1107,-4.1107,-4.1107,-4.1107,-4.1062,-4.1009,-4.0995,-4.0988,-4.098,-4.0991,-4.1006,-4.1006,-4.0991,-4.0976,-4.096,-4.0939,-4.0926,-4.0907,-4.0907,-4.0883,-4.0853,-4.0821,-4.0804,-4.082,-4.0808,-4.0879,-4.0989,-4.1493,-4.2135,-4.2965,-4.3904,-4.4372,-6.6712,-6.6712,-6.6712,-6.6712,-6.6712,-6.6717,-6.6697,-6.6681,-6.6471,-6.5949,-6.5155,-6.4336,-6.3906,-6.4179,-6.5116,-6.5116,-6.4882,-6.5351,-6.5119,-6.4687,-6.414,-6.3321,-6.2735,-6.2345,-6.2186,-6.1835,-6.1713,-6.1705,-6.1666,-6.1378,-6.0981,-6.046,-5.9857,-5.9646,-5.9603,-5.8542,-5.7407,-5.7018,-5.6601,-5.6496,-5.6383,-5.5684,-5.495,-5.4755,-5.3897,-5.3043,-5.2617,-5.2509,-5.2528,-5.2159,-5.1941,-5.1873,-5.1718,-5.1595,-5.1432,-5.139,-5.1312,-5.1042,-5.0617,-5.0182,-4.9965,-4.9705,-5.0283,-5.0393,-4.9917,-4.898,-4.8174,-4.7708,-4.6779,-4.624,-4.6298,-4.6236,-4.6212,-4.6008,-4.5329,-4.4501,-4.4072,-4.3293,-4.2705,-4.2276,-4.1887,-4.1536,-4.138,-4.138,-4.1146,-4.1107,-4.1107,-4.1062,-4.1006,-4.0995,-4.0984,-4.098,-4.0984,-4.0995,-4.1006,-4.0995,-4.0988,-4.0968,-4.0948,-4.0926,-4.0912,-4.0912,-4.0907,-4.0878,-4.0853,-4.0832,-4.0976,-4.1158,-4.1219,-4.1278,-4.2112,-4.3125,-4.3613,-4.4443,-4.4936,-6.6712,-6.6712,-6.6712,-6.6712,-6.6717,-6.6697,-6.672,-6.6549,-6.5865,-6.5181,-6.4531,-6.3594,-6.3125,-6.3516,-6.4765,-6.4804,-6.457,-6.5585,-6.5665,-6.4611,-6.4179,-6.3594,-6.2852,-6.2306,-6.2149,-6.1835,-6.1559,-6.1481,-6.1679,-6.0768,-6.0414,-5.9823,-5.891,-5.8311,-5.8939,-5.8223,-5.7736,-5.7524,-5.68,-5.6581,-5.6322,-5.5662,-5.4931,-5.439,-5.361,-5.2791,-5.2486,-5.2455,-5.2546,-5.2443,-5.2261,-5.2226,-5.2224,-5.1665,-5.1421,-5.1385,-5.1385,-5.1309,-5.1231,-5.0462,-4.9786,-4.9175,-4.9727,-4.925,-4.8059,-4.7435,-4.7324,-4.6894,-4.6396,-4.6288,-4.6288,-4.6243,-4.6223,-4.6014,-4.5375,-4.489,-4.4462,-4.4111,-4.3526,-4.29,-4.2549,-4.2237,-4.1965,-4.1692,-4.1302,-4.1149,-4.1107,-4.1062,-4.1006,-4.0995,-4.0988,-4.0984,-4.0984,-4.0995,-4.0967,-4.0967,-4.0999,-4.098,-4.096,-4.0943,-4.093,-4.0926,-4.0917,-4.0903,-4.0917,-4.093,-4.1274,-4.1585,-4.2017,-4.2562,-4.3374,-4.4191,-4.46,-4.4914,-4.5338,-6.6712,-6.6712,-6.6712,-6.6722,-6.6697,-6.6707,-6.642,-6.5826,-6.5142,-6.4841,-6.4804,-6.3672,-6.3008,-6.3399,-6.3945,-6.4297,-6.3867,-6.4416,-6.4494,-6.4338,-6.3711,-6.3086,-6.2501,-6.2189,-6.1993,-6.1603,-6.1291,-6.1213,-6.1679,-6.0268,-5.9644,-5.9134,-5.7994,-5.7239,-5.7255,-5.7003,-5.6917,-5.6878,-5.662,-5.6482,-5.638,-5.5681,-5.5059,-5.4716,-5.3862,-5.3242,-5.278,-5.2749,-5.2679,-5.2607,-5.2381,-5.207,-5.1986,-5.1499,-5.141,-5.1403,-5.136,-5.1076,-5.067,-5.0088,-4.9893,-4.9377,-4.874,-4.8234,-4.7436,-4.6867,-4.6518,-4.6345,-4.6355,-4.6364,-4.6294,-4.624,-4.6223,-4.6217,-4.5774,-4.5365,-4.4968,-4.4695,-4.4267,-4.364,-4.3172,-4.2744,-4.2432,-4.2322,-4.1974,-4.1506,-4.1428,-4.1185,-4.1052,-4.1006,-4.0999,-4.0991,-4.0988,-4.0999,-4.1006,-4.1013,-4.1009,-4.0995,-4.098,-4.0968,-4.0956,-4.0948,-4.0943,-4.0939,-4.098,-4.1101,-4.1877,-4.2682,-4.3418,-4.4105,-4.4527,-4.4847,-4.5147,-4.5324,-4.5517,-6.6712,-6.6712,-6.6722,-6.6702,-6.6681,-6.6408,-6.5847,-6.5139,-6.4841,-6.4921,-6.4765,-6.3594,-6.3008,-6.3164,-6.3477,-6.3672,-6.3125,-6.3906,-6.3948,-6.3789,-6.2813,-6.2462,-6.2267,-6.1993,-6.1564,-6.1213,-6.0783,-6.0666,-6.0547,-5.93,-5.8556,-5.797,-5.7189,-5.6782,-5.6644,-5.6595,-5.6549,-5.6592,-5.6482,-5.6497,-5.635,-5.5965,-5.5387,-5.4769,-5.4151,-5.3648,-5.3188,-5.2881,-5.269,-5.2496,-5.2187,-5.1835,-5.1786,-5.1574,-5.1442,-5.1389,-5.1024,-5.0657,-5.0194,-4.9153,-4.8885,-4.8715,-4.8069,-4.7578,-4.7319,-4.7159,-4.6732,-4.656,-4.6535,-4.6431,-4.6321,-4.6265,-4.6178,-4.6209,-4.6079,-4.567,-4.5549,-4.5273,-4.5156,-4.4529,-4.4026,-4.352,-4.2981,-4.2835,-4.2685,-4.2217,-4.1788,-4.1506,-4.1185,-4.1062,-4.102,-4.1016,-4.1009,-4.102,-4.1023,-4.1062,-4.102,-4.1009,-4.0999,-4.0988,-4.0972,-4.0964,-4.0964,-4.1081,-4.1401,-4.1917,-4.2985,-4.3818,-4.431,-4.4712,-4.5015,-4.5349,-4.5648,-4.5695,-4.5703,-6.6712,-6.6712,-6.6697,-6.6724,-6.6584,-6.5886,-6.5166,-6.4492,-6.5116,-6.5038,-6.4416,-6.3594,-6.3089,-6.3089,-6.3086,-6.305,-6.3089,-6.3831,-6.3633,-6.3204,-6.2696,-6.2306,-6.1837,-6.1525,-6.0978,-6.0549,-6.0122,-5.9614,-5.9104,-5.848,-5.766,-5.6996,-5.676,-5.6555,-5.6548,-5.635,-5.638,-5.6416,-5.6266,-5.6238,-5.6126,-5.6057,-5.5207,-5.4509,-5.4006,-5.3349,-5.2846,-5.2498,-5.2655,-5.2617,-5.2538,-5.2534,-5.233,-5.1845,-5.1562,-5.1121,-5.0525,-5.0336,-4.9668,-4.8509,-4.8079,-4.8188,-4.8316,-4.7524,-4.7077,-4.7207,-4.712,-4.6796,-4.6697,-4.6518,-4.641,-4.6287,-4.6161,-4.619,-4.6176,-4.6087,-4.6084,-4.6006,-4.6002,-4.5613,-4.5149,-4.4607,-4.3913,-4.3608,-4.3509,-4.3005,-4.2579,-4.2276,-4.1875,-4.1123,-4.1084,-4.1056,-4.105,-4.1042,-4.1042,-4.1078,-4.1071,-4.1029,-4.1016,-4.1045,-4.0991,-4.1062,-4.1186,-4.1455,-4.1976,-4.2723,-4.3733,-4.4422,-4.495,-4.5272,-4.5423,-4.5495,-4.5735,-4.575,-4.5758,-6.6712,-6.6712,-6.6697,-6.6373,-6.5886,-6.564,-6.5733,-6.5897,-6.4609,-6.4414,-6.5939,-6.3867,-6.3325,-6.3839,-6.3325,-6.3013,-6.3054,-6.3208,-6.3206,-6.2891,-6.2427,-6.1603,-6.1134,-6.0863,-6.0276,-5.9575,-5.9072,-5.8916,-5.8831,-5.8168,-5.7348,-5.676,-5.6528,-5.6526,-5.6294,-5.5944,-5.6089,-5.6082,-5.5814,-5.5706,-5.5478,-5.5212,-5.4517,-5.409,-5.386,-5.3317,-5.3084,-5.2578,-5.2656,-5.2617,-5.2069,-5.1831,-5.1734,-5.1492,-5.1288,-5.0603,-5.0508,-5.052,-4.9309,-4.8564,-4.8209,-4.8144,-4.8455,-4.7577,-4.7014,-4.7101,-4.747,-4.7112,-4.7093,-4.703,-4.6498,-4.6222,-4.6137,-4.6162,-4.6142,-4.6117,-4.6113,-4.6113,-4.6113,-4.6013,-4.5589,-4.5383,-4.4685,-4.4517,-4.4337,-4.3833,-4.3412,-4.3146,-4.2717,-4.2005,-4.1379,-4.1349,-4.1269,-4.1301,-4.1139,-4.1098,-4.1089,-4.1084,-4.1071,-4.1065,-4.1059,-4.1172,-4.1409,-4.1976,-4.2801,-4.3573,-4.4416,-4.4992,-4.5448,-4.5596,-4.5711,-4.574,-4.5781,-4.5788,-4.5803,-6.6717,-6.6732,-6.6716,-6.6467,-6.5907,-6.4992,-6.5194,-6.5858,-6.4648,-6.5155,-6.6366,-6.4101,-6.3481,-6.3954,-6.305,-6.2427,-6.2438,-6.2434,-6.2434,-6.2281,-6.1965,-6.1579,-6.1069,-6.0753,-6.0206,-5.931,-5.8568,-5.8412,-5.8172,-5.7699,-5.6957,-5.6651,-5.6378,-5.6107,-5.5798,-5.5254,-5.5056,-5.513,-5.5052,-5.4862,-5.4554,-5.4208,-5.3937,-5.3512,-5.3475,-5.3359,-5.3047,-5.2382,-5.2264,-5.2184,-5.1559,-5.1437,-5.1421,-5.1377,-5.133,-5.0762,-5.0498,-5.0279,-4.9456,-4.8857,-4.8665,-4.8605,-4.8638,-4.8105,-4.8149,-4.8432,-4.7879,-4.7367,-4.757,-4.7579,-4.6773,-4.6119,-4.6107,-4.6095,-4.6056,-4.6007,-4.6007,-4.6007,-4.6022,-4.6042,-4.5957,-4.5835,-4.5627,-4.5459,-4.5323,-4.498,-4.4599,-4.4177,-4.3747,-4.3116,-4.2375,-4.1913,-4.1753,-4.1629,-4.143,-4.1189,-4.1103,-4.1098,-4.1089,-4.1084,-4.112,-4.138,-4.1721,-4.2677,-4.3821,-4.4511,-4.5076,-4.5413,-4.5796,-4.5874,-4.5861,-4.5814,-4.5778,-4.5817,-4.5824,-6.6727,-6.6672,-6.6619,-6.6414,-6.6246,-6.4101,-6.4023,-6.539,-6.5155,-6.578,-6.5897,-6.3945,-6.3284,-6.3603,-6.2586,-6.1926,-6.1894,-6.1935,-6.1935,-6.1747,-6.1783,-6.151,-6.1352,-6.1429,-6.0176,-5.9395,-5.8733,-5.803,-5.7005,-5.669,-5.6692,-5.6504,-5.5801,-5.5412,-5.5065,-5.4326,-5.4013,-5.4013,-5.3857,-5.3625,-5.382,-5.3705,-5.3434,-5.2734,-5.25,-5.2304,-5.1714,-5.1438,-5.1398,-5.1398,-5.1397,-5.1394,-5.1387,-5.138,-5.133,-5.1074,-5.0608,-5.026,-4.9789,-4.923,-4.9082,-4.8949,-4.8755,-4.8871,-4.9227,-4.9376,-4.8782,-4.7714,-4.768,-4.7349,-4.6627,-4.6195,-4.6065,-4.6042,-4.5997,-4.5958,-4.5941,-4.5953,-4.598,-4.6012,-4.6056,-4.5978,-4.5985,-4.5816,-4.5796,-4.5811,-4.5666,-4.5164,-4.4811,-4.4261,-4.3519,-4.2703,-4.2192,-4.1952,-4.1638,-4.1397,-4.1154,-4.1108,-4.1178,-4.1323,-4.1509,-4.177,-4.2064,-4.3288,-4.4543,-4.5128,-4.5659,-4.5858,-4.5905,-4.5912,-4.5861,-4.5827,-4.5814,-4.5845,-4.58,-6.6727,-6.6594,-6.5347,-6.4866,-6.4765,-6.3555,-6.3594,-6.4492,-6.3867,-6.4104,-6.4414,-6.3089,-6.2549,-6.3105,-6.2242,-6.1701,-6.171,-6.1708,-6.1708,-6.1709,-6.171,-6.1438,-6.089,-6.085,-5.9833,-5.8702,-5.8,-5.7687,-5.6826,-5.6508,-5.6192,-5.5691,-5.5222,-5.4951,-5.4289,-5.3471,-5.316,-5.3004,-5.2615,-5.2654,-5.2927,-5.2382,-5.1836,-5.1757,-5.1678,-5.1716,-5.1399,-5.1397,-5.1395,-5.1394,-5.1393,-5.1387,-5.1379,-5.1375,-5.1008,-5.055,-5.0754,-5.0521,-5.016,-4.9837,-4.9848,-5.0037,-5.0076,-5.0192,-5.0264,-5.0207,-4.9619,-4.8438,-4.7567,-4.7126,-4.663,-4.627,-4.6017,-4.5986,-4.5941,-4.5905,-4.5874,-4.5911,-4.5947,-4.6035,-4.6085,-4.6134,-4.6183,-4.6209,-4.6231,-4.6206,-4.6177,-4.5948,-4.587,-4.5437,-4.4657,-4.3839,-4.2746,-4.2313,-4.1999,-4.1878,-4.1792,-4.1547,-4.1537,-4.1719,-4.1938,-4.2695,-4.3413,-4.4241,-4.5182,-4.5613,-4.5869,-4.5942,-4.5947,-4.5905,-4.5912,-4.5848,-4.5905,-4.5937,-4.5891,-6.6507,-6.5987,-6.435,-6.3901,-6.4023,-6.2969,-6.293,-6.3479,-6.2781,-6.2666,-6.3017,-6.2236,-6.2164,-6.276,-6.2093,-6.1709,-6.1716,-6.1714,-6.1715,-6.1716,-6.168,-6.1482,-6.1013,-6.0503,-5.9721,-5.8668,-5.7612,-5.7026,-5.6559,-5.6086,-5.5653,-5.5228,-5.4955,-5.4331,-5.3476,-5.2891,-5.25,-5.2109,-5.1601,-5.1758,-5.2148,-5.168,-5.1405,-5.1404,-5.1401,-5.1397,-5.1391,-5.1389,-5.1385,-5.1384,-5.1384,-5.1382,-5.1377,-5.1375,-5.1164,-5.0943,-5.0984,-5.1062,-5.0617,-5.0492,-5.0658,-5.0814,-5.0891,-5.0775,-5.0814,-5.0679,-4.9914,-4.881,-4.837,-4.7928,-4.6683,-4.6095,-4.6022,-4.5991,-4.5935,-4.588,-4.5899,-4.5941,-4.5975,-4.6056,-4.6108,-4.6158,-4.6193,-4.6215,-4.6236,-4.6251,-4.6261,-4.6262,-4.6302,-4.6305,-4.56,-4.4974,-4.3922,-4.3217,-4.298,-4.2781,-4.2623,-4.2377,-4.2049,-4.2454,-4.2978,-4.3969,-4.488,-4.5122,-4.5439,-4.5808,-4.5986,-4.6058,-4.5958,-4.5911,-4.5886,-4.5912,-4.6009,-4.6221,-4.6394,-6.5987,-6.5031,-6.3737,-6.3438,-6.3711,-6.2384,-6.2149,-6.2623,-6.2045,-6.1738,-6.1857,-6.1779,-6.2209,-6.2327,-6.2097,-6.187,-6.1716,-6.1717,-6.1718,-6.1719,-6.1719,-6.1367,-6.1055,-6.0702,-5.9725,-5.8591,-5.7418,-5.6755,-5.6249,-5.5776,-5.5307,-5.4958,-5.4297,-5.3516,-5.2851,-5.2578,-5.2422,-5.1797,-5.1406,-5.1406,-5.1405,-5.1405,-5.1402,-5.1398,-5.1393,-5.1384,-5.1375,-5.1408,-5.1406,-5.141,-5.1375,-5.1377,-5.141,-5.1408,-5.135,-5.1242,-5.1164,-5.1204,-5.1079,-5.1031,-5.113,-5.1163,-5.1202,-5.1202,-5.1202,-5.0814,-5.0087,-4.9526,-4.9046,-4.8283,-4.7077,-4.6333,-4.626,-4.6069,-4.6013,-4.5996,-4.6001,-4.6042,-4.6079,-4.6154,-4.6165,-4.6251,-4.6203,-4.6223,-4.6279,-4.6296,-4.6303,-4.6303,-4.6306,-4.6309,-4.5998,-4.5724,-4.5176,-4.4588,-4.3998,-4.3564,-4.3326,-4.3158,-4.2983,-4.3422,-4.3977,-4.4767,-4.5248,-4.5259,-4.5585,-4.6147,-4.6208,-4.6236,-4.6129,-4.6072,-4.6248,-4.6429,-4.6513,-4.6763,-4.7168,-6.4836,-6.3527,-6.3862,-6.336,-6.2267,-6.1835,-6.1803,-6.1928,-6.1815,-6.1701,-6.1708,-6.1713,-6.187,-6.1988,-6.1832,-6.1719,-6.1719,-6.168,-6.1719,-6.1719,-6.1523,-6.1172,-6.0703,-6.0117,-5.9375,-5.8202,-5.699,-5.6327,-5.5742,-5.535,-5.4569,-5.3398,-5.4023,-5.3242,-5.1992,-5.1992,-5.2305,-5.168,-5.1406,-5.1406,-5.1405,-5.1404,-5.14,-5.1396,-5.139,-5.138,-5.1408,-5.1399,-5.1399,-5.1403,-5.141,-5.1412,-5.1408,-5.1399,-5.1375,-5.1342,-5.1261,-5.1254,-5.1203,-5.1214,-5.1202,-5.1202,-5.1202,-5.1202,-5.1202,-5.1202,-5.0548,-5.0015,-4.9498,-4.8818,-4.7806,-4.7296,-4.7077,-4.6546,-4.6308,-4.629,-4.6302,-4.6302,-4.6333,-4.6333,-4.6333,-4.63,-4.6217,-4.6275,-4.6407,-4.6461,-4.651,-4.6471,-4.651,-4.6433,-4.6317,-4.6198,-4.6039,-4.5604,-4.4896,-4.4224,-4.3944,-4.3817,-4.3877,-4.4231,-4.474,-4.5365,-4.5726,-4.5862,-4.6201,-4.6729,-4.6707,-4.6818,-4.6607,-4.6666,-4.6881,-4.7017,-4.7139,-4.746,-4.7973]},{"header":{"parameterUnit":"m.s-1","parameterCategory":1,"la1":31.0,"la2":29.5877,"lo1":-88.7671,"lo2":-86.6584,"dy":0.0162,"dx":0.0185,"nx":115,"ny":88,"refTime":"2024-05-06T06:00:00:Z","depth":0,"parameterNumber":3,"parameterNumberName":"V-component_of_WINDS"},"data":[0.0,0.0,0.0,0.0,0.0,0.0,0.0,0.0,0.0,0.0,0.0,0.0,0.0,0.0,0.0,0.0,0.0,0.0,0.0,0.0,0.0,0.0,0.0,0.0,0.0,0.0,0.0,0.0,0.0,0.0,0.0,0.0,0.0,0.0,0.0,0.0,0.0,0.0,0.0,0.0,0.0,0.0,0.0,0.0,0.0,0.0,0.0,0.0,0.0,0.0,0.0,0.0,0.0,0.0,0.0,0.0,0.0,0.0,0.0,0.0,0.0,0.0,0.0,0.0,0.0,0.0,0.0,0.0,0.0,0.0,0.0,0.0,0.0,0.0,0.0,0.0,0.0,0.0,0.0,0.0,0.0,0.0,0.0,0.0,0.0,0.0,0.0,0.0,0.0,0.0,0.0,0.0,0.0,0.0,0.0,0.0,0.0,0.0,0.0,0.0,0.0,0.0,0.0,0.0,0.0,0.0,0.0,0.0,0.0,0.0,0.0,0.0,0.0,0.0,0.0,0.0,0.0,0.0,0.0,0.0,0.0,0.0,0.0,0.0,0.0,0.0,0.0,0.0,0.0,0.0,0.0,0.0,0.0,0.0,0.0,0.0,0.0,0.0,0.0,0.0,0.0,0.0,0.0,0.0,0.0,0.0,0.0,0.0,0.0,0.0,0.0,0.0,0.0,0.0,0.0,0.0,0.0,0.0,0.0,0.0,0.0,0.0,0.0,0.0,0.0,0.0,0.0,0.0,0.0,0.0,0.0,0.0,0.0,0.0,0.0,0.0,0.0,0.0,0.0,0.0,0.0,0.0,0.0,0.0,0.0,0.0,0.0,0.0,0.0,0.0,0.0,0.0,0.0,0.0,0.0,0.0,0.0,0.0,0.0,0.0,0.0,0.0,0.0,0.0,0.0,0.0,0.0,0.0,0.0,0.0,0.0,0.0,0.0,0.0,0.0,0.0,0.0,0.0,0.0,0.0,0.0,0.0,0.0,0.0,0.0,0.0,0.0,0.0,0.0,0.0,0.0,0.0,0.0,0.0,0.0,0.0,0.0,0.0,0.0,0.0,0.0,0.0,0.0,0.0,0.0,0.0,0.0,0.0,0.0,0.0,0.0,0.0,0.0,0.0,0.0,0.0,0.0,0.0,0.0,0.0,0.0,0.0,0.0,0.0,0.0,0.0,0.0,0.0,0.0,0.0,0.0,0.0,0.0,0.0,0.0,0.0,0.0,0.0,0.0,0.0,0.0,0.0,0.0,0.0,0.0,0.0,0.0,0.0,0.0,0.0,0.0,0.0,0.0,0.0,0.0,0.0,0.0,0.0,0.0,0.0,0.0,0.0,0.0,0.0,0.0,0.0,0.0,0.0,0.0,0.0,0.0,0.0,0.0,0.0,0.0,0.0,0.0,0.0,0.0,0.0,0.0,0.0,0.0,0.0,0.0,0.0,0.0,0.0,0.0,0.0,0.0,0.0,0.0,0.0,0.0,0.0,0.0,0.0,0.0,0.0,0.0,0.0,0.0,0.0,0.0,0.0,0.0,0.0,0.0,0.0,0.0,0.0,0.0,0.0,0.0,0.0,0.0,0.0,0.0,0.0,0.0,0.0,0.0,0.0,0.0,0.0,0.0,0.0,0.0,0.0,0.0,0.0,0.0,0.0,0.0,0.0,0.0,0.0,0.0,0.0,0.0,0.0,0.0,0.0,0.0,0.0,0.0,0.0,0.0,0.0,0.0,0.0,0.0,0.0,0.0,0.0,0.0,0.0,0.0,0.0,0.0,0.0,0.0,0.0,0.0,0.0,0.0,0.0,0.0,0.0,0.0,0.0,0.0,0.0,0.0,0.0,0.0,0.0,0.0,0.0,0.0,0.0,0.0,0.0,0.0,0.0,0.0,0.0,0.0,0.0,0.0,0.0,0.0,0.0,0.0,0.0,0.0,0.0,0.0,0.0,0.0,0.0,0.0,0.0,0.0,0.0,0.0,0.0,0.0,0.0,0.0,0.0,0.0,0.0,0.0,0.0,0.0,0.0,0.0,0.0,0.0,0.0,0.0,0.0,0.0,0.0,0.0,0.0,0.0,0.0,0.0,0.0,0.0,0.0,0.0,0.0,0.0,0.0,0.0,0.0,0.0,0.0,0.0,0.0,0.0,0.0,0.0,0.0,0.0,0.0,0.0,0.0,0.0,0.0,0.0,0.0,0.0,0.0,0.0,0.0,0.0,0.0,0.0,0.0,0.0,0.0,0.0,0.0,0.0,0.0,0.0,0.0,0.0,0.0,0.0,0.0,0.0,0.0,0.0,0.0,0.0,0.0,0.0,0.0,0.0,0.0,0.0,0.0,0.0,0.0,0.0,0.0,0.0,0.0,0.0,0.0,0.0,0.0,0.0,0.0,0.0,0.0,0.0,0.0,0.0,0.0,0.0,0.0,0.0,0.0,0.0,0.0,0.0,0.0,0.0,0.0,0.0,0.0,0.0,0.0,0.0,0.0,0.0,0.0,0.0,0.0,0.0,0.0,0.0,0.0,0.0,0.0,0.0,0.0,0.0,0.0,0.0,0.0,0.0,0.0,0.0,0.0,0.0,0.0,0.0,0.0,0.0,0.0,0.0,0.0,0.0,0.0,0.0,0.0,0.0,0.0,0.0,0.0,0.0,0.0,0.0,0.0,0.0,0.0,0.0,0.0,0.0,0.0,0.0,0.0,0.0,0.0,0.0,0.0,0.0,0.0,0.0,0.0,0.0,0.0,0.0,0.0,0.0,0.0,0.0,0.0,0.0,0.0,0.0,0.0,0.0,0.0,0.0,0.0,0.0,0.0,0.0,0.0,0.0,0.0,0.0,0.0,0.0,0.0,0.0,0.0,0.0,0.0,0.0,0.0,0.0,0.0,0.0,0.0,0.0,0.0,0.0,0.0,0.0,0.0,0.0,0.0,0.0,0.0,0.0,0.0,0.0,0.0,0.0,0.0,0.0,0.0,0.0,0.0,0.0,0.0,0.0,0.0,0.0,0.0,0.0,0.0,0.0,0.0,0.0,0.0,0.0,0.0,0.0,0.0,0.0,0.0,0.0,0.0,0.0,0.0,0.0,0.0,0.0,0.0,0.0,0.0,0.0,0.0,0.0,0.0,0.0,0.0,0.0,0.0,0.0,0.0,0.0,0.0,0.0,0.0,0.0,0.0,0.0,0.0,0.0,0.0,0.0,0.0,0.0,0.0,0.0,0.0,0.0,0.0,0.0,0.0,0.0,0.0,0.0,0.0,0.0,0.0,0.0,0.0,0.0,0.0,0.0,0.0,0.0,0.0,0.0,0.0,0.0,0.0,0.0,0.0,0.0,0.0,0.0,0.0,0.0,0.0,0.0,0.0,0.0,0.0,0.0,0.0,0.0,0.0,0.0,0.0,0.0,0.0,0.0,0.0,0.0,0.0,0.0,0.0,0.0,0.0,0.0,0.0,0.0,0.0,0.0,0.0,0.0,0.0,0.0,0.0,0.0,0.0,0.0,0.0,0.0,0.0,0.0,0.0,0.0,0.0,0.0,0.0,0.0,0.0,0.0,0.0,0.0,0.0,0.0,0.0,0.0,0.0,0.0,0.0,0.0,0.0,0.0,0.0,0.0,0.0,0.0,0.0,0.0,0.0,0.0,0.0,0.0,0.0,0.0,0.0,0.0,0.0,0.0,0.0,0.0,0.0,0.0,0.0,0.0,0.0,0.0,0.0,0.0,0.0,0.0,0.0,0.0,0.0,0.0,0.0,0.0,0.0,0.0,0.0,0.0,0.0,0.0,0.0,0.0,0.0,0.0,0.0,0.0,0.0,0.0,0.0,0.0,0.0,0.0,0.0,0.0,0.0,0.0,0.0,0.0,0.0,0.0,0.0,0.0,0.0,0.0,0.0,0.0,0.0,0.0,0.0,0.0,0.0,0.0,0.0,0.0,0.0,0.0,0.0,0.0,0.0,0.0,0.0,0.0,0.0,0.0,0.0,0.0,0.0,0.0,0.0,0.0,0.0,0.0,0.0,0.0,0.0,0.0,0.0,0.0,0.0,0.0,0.0,0.0,0.0,0.0,0.0,0.0,0.0,0.0,0.0,0.0,0.0,0.0,0.0,0.0,0.0,0.0,0.0,0.0,0.0,0.0,0.0,0.0,0.0,0.0,0.0,0.0,0.0,0.0,0.0,0.0,0.0,0.0,0.0,0.0,0.0,0.0,0.0,0.0,0.0,0.0,0.0,0.0,0.0,0.0,0.0,0.0,0.0,0.0,0.0,0.0,0.0,0.0834,0.0,0.0,0.0,0.0,0.0,0.0,0.0,0.0,0.0,0.0,0.0,0.0,0.0,0.0,0.0,0.0,0.0,0.0,0.0,0.0,0.0,0.0,0.0,0.0,0.0,0.0,0.0,0.0,0.0,0.0,0.0,0.0,0.0,0.0,0.0,0.0,0.0,0.0,0.0,0.0,0.0,0.0,0.0,0.0,0.0,0.0,0.0,0.0,0.0,0.0,0.0,0.0,0.0,0.0,0.0,0.0,0.0,0.0,0.0,0.0,0.0,0.0,0.0,0.0,0.0,0.0,0.0,0.0,0.0,0.0,0.0,0.0,0.0,0.0,0.0,0.0,0.0,0.0,0.0,0.0,0.0,0.0,0.0,0.0,0.0,0.0,0.0,0.0,0.0,0.0,0.0,0.0,0.0,0.0,0.0,0.0,0.0,0.0,0.0,0.0,0.0,0.0,0.0,0.0,0.0,0.0,0.0,0.0,0.0,0.0,-0.0206,0.0,0.0339,0.0604,0.0793,0.0,0.0,0.0,0.0,0.0,0.0,0.0,0.0,0.0,0.0,0.0,0.0,0.0,0.0,0.0,0.0,0.0,0.0,0.0,0.0,0.0,0.0,0.0,0.0,0.0,0.0,0.0,0.0,0.0,0.0,0.0,0.0,0.0,0.0,0.0,0.0,0.0,0.0,0.0,0.0,0.0,0.0,0.0,0.0,0.0,0.0,0.0,0.0,0.0,0.0,0.0,0.0,0.0,0.0,0.0,0.0,0.0,0.0,0.0,0.0,0.0,0.0,0.0,0.0,0.0,0.0,0.0,0.0,0.0,0.0,0.0,0.0,0.0,0.0,0.0,0.0,0.0,0.0,0.0,0.0,0.0,0.0,0.0,0.0,0.0,0.0,0.0,0.0,0.0,0.0,0.0,0.0,0.0,0.0,0.0,0.0,0.0,0.0,0.0,0.0,0.0,0.0,0.0,0.0,0.0,0.0,0.0,0.0,0.0,0.0,0.0,0.0,0.0306,0.0577,0.0775,0.0,0.0,0.0,0.0,0.0,0.0,0.0,0.0,0.0,0.0,0.0,0.0,0.0,0.0,0.0,0.0,0.0,0.0,0.0,0.0,0.0,0.0,0.0,0.0,0.0,0.0,0.0,0.0,0.0,0.0,0.0,0.0,0.0,0.0,0.0,0.0,0.0,0.0,0.0,0.0,0.0,0.0,0.0,0.0,0.0,0.0,0.0,0.0,0.0,0.0,0.0,0.0,0.0,0.0,0.0,0.0,0.0,0.0,0.0,0.0,0.0,0.0,0.0,0.0,0.0,0.0,0.0,0.0,0.0,0.0,0.0,0.0,0.0,0.0,0.0,0.0,0.0,0.0,0.0,0.0,0.0,0.0,0.0,0.0,0.0,0.0,0.0,0.0,0.0,0.0,0.0,0.0,0.0,0.0,0.0,0.0,0.0,0.0,0.0,0.0,0.0,0.0,0.0,0.0,0.0,0.0,0.0,0.0,0.0,0.0,-0.0035,0.0,0.0209,0.0,0.0776,0.0,0.0,0.0,0.0,0.0,0.0,0.0,0.0,0.0,0.0,0.0,0.0,0.0,0.0,0.0,0.0,0.0,0.0,0.0,0.0,0.0,0.0,0.0,0.0,0.0,0.0,0.0,0.0,0.0,0.0,0.0,0.0,0.0,0.0,0.0,0.0,0.0,0.0,0.0,0.0,0.0,0.0,0.0,0.0,0.0,0.0,0.0,0.0,0.0,0.0,0.0,0.0,0.0,0.0,0.0,0.0,0.0,0.0,0.0,0.0,0.0,0.0,0.0,0.0,0.0,0.0,0.0,0.0,0.0,0.0,0.0,0.0,0.0,0.0,0.0,0.0,0.0,0.0,0.0,0.0,0.0,0.0,0.0,0.0,0.0,0.0,0.0,0.0,0.0,0.0,0.0,0.0,0.0,0.0,0.0,0.0,0.0,0.0,0.0,0.0,0.0,0.0,0.0,0.0,0.0,0.0,0.0,0.0,0.0,0.0,0.0,0.0,0.0209,0.0492,0.0,0.0,0.0,0.0,0.0,0.0,0.0,0.0,0.0,0.0,0.0,0.0,0.0,0.0,0.0,0.0,0.0,0.0,0.0,0.0,0.0,0.0,0.0,0.0,0.0,0.0,0.0,0.0,0.0,0.0,0.0,0.0,0.0,0.0,0.0,0.0,0.0,0.0,0.0,0.0,0.0,0.0,0.0,0.0,0.0,0.0,0.0,0.0,0.0,0.0,0.0,0.0,0.0,0.0,0.0,0.0,0.0,0.0,0.0,0.0,0.0,0.0,0.0,0.0,0.0,0.0,0.0,0.0,0.0,0.0,0.0,0.0,0.0,0.0,0.0,0.0,0.0,0.0,0.0,0.0,0.0,0.0,0.0,0.0,0.0,0.0,0.0,0.0,0.0,0.0,0.0,0.0,0.0,0.0,0.0,0.0,0.0,0.0,0.0,0.0,0.0,0.0,0.0,0.0,0.0,0.0,0.0,0.0,0.0,0.0,0.0,0.0,0.0,0.0207,0.0458,0.08,0.0,0.0,0.0,0.0,0.0,0.0,0.0,0.0,0.0,0.0,0.0,0.0,0.0,0.0,0.0,0.0,0.0,0.0,0.0,0.0,0.0,0.0,0.0,0.0,0.0,0.0,0.0,0.0,0.0,0.0,0.0,0.0,0.0,0.0,0.0,0.0,0.0,0.0,0.0,0.0,0.0,0.0,0.0,0.0,0.0,0.0,0.0,0.0,0.0,0.0,0.0,0.0,0.0,0.0,0.0,0.0,0.0,0.0,0.0,0.0,0.0,0.0,0.0,0.0,0.0,0.0,0.0,0.0,0.0,0.0,0.0,0.0,0.0,0.0,0.0,0.0,0.0,0.0,0.0,0.0,0.0,0.0,0.0,0.0,0.0,0.0,0.0,0.0,0.0,0.0,0.0,0.0,0.0,0.0,0.0,0.0,0.0,0.0,0.0,0.0,0.0,0.0,0.0,0.0,0.0,0.0,0.0,0.0,0.0,0.0,0.0,0.0,0.0171,0.0381,0.0,0.0,0.0,0.0,0.0,0.0,0.0,0.0,0.0,0.0,0.0,0.0,0.0,0.0,0.0,0.0,0.0,0.0,0.0,0.0,0.0,0.0,0.0,0.0,0.0,0.0,0.0,0.0,0.0,0.0,0.0,0.0,0.0,0.0,0.0,0.0,0.0,0.0,0.0,0.0,0.0,0.0,0.0,0.0,0.0,0.0,0.0,0.0,0.0,0.0,0.0,0.0,0.0,0.0,0.0,0.0,0.0,0.0,0.0,0.0,0.0,0.0,0.0,0.0,0.0,0.0,0.0,0.0,0.0,0.0,0.0,0.0,0.0,0.0,0.0,0.0,0.0,0.0,0.0,0.0,0.0,0.0,0.0,0.0,0.0,0.0,0.0,0.0,0.0,0.0,0.0,0.0,0.0,0.0,0.0,0.0,0.0,0.0,0.0,0.0,0.0,0.0,0.0,0.0,0.0,0.0,0.0,0.0,0.0,0.0,0.0,0.0,0.0,0.0072,0.0252,0.0,0.0,0.0,0.0,0.0,0.0,0.0,0.0,0.0,0.0,0.0,0.0,0.0,0.0,0.0,0.0,0.0,0.0,0.0,0.0,0.0,0.0,0.0,0.0,0.0,0.0,0.0,0.0,0.0,0.0,0.0,0.0,0.0,0.0,0.0,0.0,0.0,0.0,0.0,0.0,0.0,0.0,0.0,0.0,0.0,0.0,0.0,0.0,0.0,0.0,0.0,0.0,0.0,0.0,0.0,0.0,0.0,0.0,0.0,0.0,0.0,0.0,0.0,0.0,0.0,0.0,0.0,0.0,0.0,0.0,0.0,0.0,0.0,0.0,0.0,0.0,0.0,0.0,0.0,0.0,0.0,0.0,0.0,0.0,0.0,0.0,0.0,0.0,0.0,0.0,0.0,0.0,0.0,0.0,0.0,0.0,0.0,0.0,0.0,0.0,0.0,0.0,0.0,0.0,0.0,0.0,0.0,0.0,0.0,-0.0382,0.0,-0.0466,-0.0392,-0.0383,-0.0152,0.0,0.0,0.0,0.0,0.0,0.0,0.0,0.0,0.0,0.0,0.0,0.0,0.0,0.0,0.0,0.0,0.0,0.0,0.0,0.0,0.0,0.0,0.0,0.0,0.0,0.0,0.0,0.0,0.0,0.0,0.0,0.0,0.0,0.0,0.0,0.0,0.0,0.0,0.0,0.0,0.0,0.0,0.0,0.0,0.0,0.0,0.0,0.0,0.0,0.0,0.0,0.0,0.0,0.0,0.0,0.0,0.0,0.0,0.0,0.0,0.0,0.0,0.0,0.0,0.0,0.0,0.0,0.0,0.0,0.0,0.0,0.0,0.0,0.0,0.0,0.0,0.0,0.0,0.0,0.0,0.0,0.0,0.0,0.0,0.0,0.0,0.0,0.0,0.0,0.0,0.0,0.0,0.0,0.0,0.0,0.0,0.0,0.0,0.0,0.0,0.0,0.0,0.0,0.0,0.0,0.0,0.0,0.0,-0.0709,-0.1214,-0.146,-0.1503,-0.1219,-0.1196,-0.0806,0.0,0.0,0.0,0.0,0.0,0.0,0.0,0.0,0.0,0.0,0.0,0.0,0.0,0.0,0.0,0.0,0.0,0.0,0.0,0.0,0.0,0.0,0.0,0.0,0.0,0.0,0.0,0.0,0.0,0.0,0.0,0.0,0.0,0.0,0.0,0.0,0.0,0.0,0.0,0.0,0.0,0.0,0.0,0.0,0.0,0.0,0.0,0.0,0.0,0.0,0.0,0.0,0.0,0.0,0.0,0.0,0.0,0.0,0.0,0.0,0.0,0.0,0.0,0.0,0.0,0.0,0.0,0.0,0.0,0.0,0.0,0.0,0.0,0.0,0.0,0.0,0.0,0.0,0.0,0.0,0.0,0.0,0.0,0.0,0.0,0.0,0.0,0.0,0.0,0.0,0.0,0.0,0.0,0.0,0.0,0.0,0.0,0.0,0.0,0.0,0.0,0.0,0.0,0.0,0.0,0.0,0.0,0.0,0.0,-0.2112,-0.2454,-0.2583,-0.2426,-0.2067,-0.1575,0.0,0.0,0.0,0.0,0.0,0.0,0.0,0.0,0.0,0.0,0.0,0.0,0.0,0.0,0.0,0.0,0.0,0.0,0.0,0.0,0.0,0.0,0.0,0.0,0.0,0.0,0.0,0.0,0.0,0.0,0.0,0.0,0.0,0.0,0.0,0.0,0.0,0.0,0.0,0.0,0.0,0.0,0.0,0.0,0.0,0.0,0.0,0.0,0.0,0.0,0.0,0.0,0.0,0.0,0.0,0.0,0.0,0.0,0.0,0.0,0.0,0.0,0.0,0.0,0.0,0.0,0.0,0.0,0.0,0.0,0.0,0.0,0.0,0.0,0.0,0.0,0.0,0.0,0.0,0.0,0.0,0.0,0.0,0.0,0.0,0.0,0.0,0.0,0.0,0.0,0.0,0.0,0.0,0.0,0.0,0.0,0.0,0.0,0.0,0.0,0.0,0.0,0.0,0.0,0.0,0.0,0.0,0.0,0.0,-0.4549,-0.4611,-0.4583,-0.4452,-0.3976,-0.3113,-0.1895,0.0,0.0,0.0,0.0,0.0,0.0,0.0,0.0,0.0,0.0,0.0,0.0,0.0,0.0,0.0,0.0,0.0,0.0,0.0,0.0,0.0,0.0,0.0,0.0,0.0,0.0,0.0,0.0,0.0,0.0,0.0,0.0,0.0,0.0,0.0,0.0,0.0,0.0,0.0,0.0,0.0,0.0,0.0,0.0,0.0,0.0,0.0,0.0,0.0,0.0,0.0,0.0,0.0,0.0,0.0,0.0,0.0,0.0,0.0,0.0,0.0,0.0,0.0,0.0,0.0,0.0,0.0,0.0,0.0,0.0,0.0,0.0,0.0,0.0,0.0,0.0,0.0,0.0,0.0,0.0,0.0,0.0,0.0,0.0,0.0,0.0,0.0,0.0,0.0,0.0,0.0,0.0,0.0,0.0,0.0,0.0,0.0,0.0,0.0,0.0,0.0,0.0,0.0,0.0,0.0,0.0,0.0,0.0,-0.8189,-0.7864,-0.7504,-0.7065,-0.6553,-0.5195,0.0,0.0,0.0,0.0,0.0,0.0,0.0,0.0,0.0,0.0,0.0,0.0,0.0,0.0,0.0,0.0,0.0,0.0,0.0,0.0,0.0,0.0,0.0,0.0,0.0,0.0,0.0,0.0,0.0,0.0,0.0,0.0,0.0,0.0,0.0,0.0,0.0,0.0,0.0,0.0,0.0,0.0,0.0,0.0,0.0,0.0,0.0,0.0,0.0,0.0,0.0,0.0,0.0,0.0,0.0,0.0,0.0,0.0,0.0,0.0,0.0,0.0,0.0,0.0,0.0,0.0,0.0,0.0,0.0,0.0,0.0,0.0,0.0,0.0,0.0,0.0,0.0,0.0,0.0,0.0,0.0,0.0,0.0,0.0,0.0,0.0,0.0,0.0,0.0,0.0,0.0,0.0,0.0,0.0,0.0,0.0,0.0,0.0,0.0,0.0,0.0,0.0,0.0,0.0,0.0,0.0,0.0,0.0,0.0,-1.0406,-1.1436,-1.1109,-0.9486,-0.8223,-0.6674,0.0,0.0,0.0,0.0,0.0,0.0,0.0,0.0,0.0,0.0,0.0,0.0,0.0,0.0,0.0,0.0,0.0,0.0,0.0,0.0,0.0,0.0,0.0,0.0,0.0,0.0,0.0,0.0,0.0,0.0,0.0,0.0,0.0,0.0,0.0,0.0,0.0,0.0,0.0,0.0,0.0,0.0,0.0,0.0,0.0,0.0,0.0,0.0,0.0,0.0,0.0,0.0,0.0,0.0,0.0,0.0,0.0,0.0,0.0,0.0,0.0,0.0,0.0,0.0,0.0,0.0,0.0,0.0,0.0,0.0,0.0,0.0,0.0,0.0,0.0,0.0,0.0,0.0,0.0,0.0,0.0,0.0,0.0,0.0,0.0,0.0,0.0,0.0,0.0,0.0,0.0,0.0,0.0,0.0,0.0,0.0,0.0,0.0,0.0,0.0,0.0,0.0,0.0,0.0,0.0,0.0,0.0,0.0,-0.9473,-1.1873,-1.3549,-1.3764,-1.2344,-1.0461,-0.8366,0.0,0.0,0.0,0.0,0.0,0.0,0.0,0.0,0.0,0.0,0.0,0.0,0.0,0.0,0.0,0.0,0.0,0.0,0.0,0.0,0.0,0.0,0.0,0.0,0.0,0.0,0.0,0.0,0.0,0.0,0.0,0.0,0.0,0.0,0.0,0.0,0.0,0.0,0.0,0.0,0.0,0.0,0.0,0.0,0.0,0.0,0.0,0.0,0.0,0.0,0.0,0.0,0.0,0.0,0.0,0.0,0.0,0.0,0.0,0.0,0.0,0.0,0.0,0.0,0.0,0.0,0.0,0.0,0.0,0.0,0.0,0.0,0.0,0.0,0.0,0.0,0.0,0.0,0.0,0.0,0.0,0.0,0.0,0.0,0.0,0.0,0.0,0.0,0.0,0.0,0.0,0.0,0.0,0.0,0.0,0.0,0.0,0.0,0.0,0.0,0.0,0.0,0.0,0.0,0.0,0.0,0.0,0.0,-1.0551,-1.2582,-1.4666,-1.5524,-1.507,-1.2799,-1.01,0.0,0.0,0.0,0.0,0.0,0.0,0.0,0.0,0.0,0.0,0.0,0.0,0.0,0.0,0.0,0.0,0.0,0.0,0.0,0.0,0.0,0.0,0.0,0.0,0.0,0.0,0.0,0.0,0.0,0.0,0.0,0.0,0.0,0.0,0.0,0.0,0.0,0.0,0.0,0.0,0.0,0.0,0.0,0.0,0.0,0.0,0.0,0.0,0.0,0.0,0.0,0.0,0.0,0.0,0.0,0.0,0.0,0.0,0.0,0.0,0.0,0.0,0.0,0.0,0.0,0.0,0.0,0.0,0.0,0.0,0.0,0.0,0.0,0.0,0.0,0.0,0.0,0.0,0.0,0.0,0.0,0.0,0.0,0.0,0.0,0.0,0.0,0.0,0.0,0.0,0.0,0.0,0.0,0.0,0.0,0.0,0.0,0.0,0.0,0.0,0.0,0.0,0.0,0.0,0.0,0.0,0.0,0.0,-1.0995,-1.2864,-1.4774,-1.5492,-1.5125,-1.3441,-1.1364,0.0,0.0,0.0,0.0,0.0,0.0,0.0,0.0,0.0,0.0,0.0,0.0,0.0,0.0,0.0,0.0,0.0,0.0,0.0,0.0,0.0,0.0,0.0,0.0,0.0,0.0,0.0,0.0,0.0,0.0,0.0,0.0,0.0,0.0,0.0,0.0,0.0,0.0,0.0,0.0,0.0,0.0,0.0,0.0,0.0,0.0,0.0,0.0,-0.1472,0.0,0.0,0.0,0.0,0.0,0.0,0.0,0.0,0.0,0.0,0.0,0.0,0.0,0.0,0.0,0.0,0.0,0.0,0.0,0.0,0.0,0.0,0.0,0.0,0.0,0.0,0.0,0.0,0.0,0.0,0.0,0.0,0.0,0.0,0.0,0.0,0.0,0.0,0.0,0.0,0.0,0.0,0.0,0.0,0.0,0.0,0.0,0.0,0.0,0.0,0.0,0.0,0.0,0.0,0.0,0.0,0.0,0.0,0.0,-1.174,-1.4069,-1.5279,-1.5881,-1.5729,-1.4651,-1.2681,0.0,0.0,0.0,0.0,0.0,0.0,0.0,0.0,0.0,0.0,0.0,0.0,0.0,0.0,0.0,0.0,0.0,0.0,0.0,0.0,0.0,0.0,0.0,0.0,0.0,0.0,0.0,0.0,0.0,0.0,0.0,0.0,0.0,0.0,0.0,0.0,0.0,0.0,0.0,0.0,0.0,0.0,0.0,0.0,0.0,0.0,0.0,0.0,0.0,0.0,0.0,0.0,0.0,0.0,0.0,0.0,0.0,0.0,0.0,0.0,0.0,0.0,0.0,0.0,0.0,0.0,0.0,0.0,0.0,0.0,0.0,0.0,0.0,0.0,0.0,0.0,0.0,0.0,0.0,0.0,0.0,0.0,0.0,0.0,0.0,0.0,0.0,0.0,0.0,0.0,0.0,0.0,0.0,0.0,0.0,0.0,0.0,0.0,0.0,0.0,0.0,0.0,0.0,0.0,0.0,0.0,0.0,-1.0331,-1.2406,-1.5237,-1.5866,-1.6147,-1.631,-1.5611,-1.3592,-1.0126,0.0,0.0,0.0,0.0,0.0,0.0,0.0,0.0,0.0,0.0,0.0,0.0,0.0,0.0,0.0,0.0,0.0,0.0,0.0,0.0,0.0,0.0,0.0,0.0,0.0,0.0,0.0,0.0,0.0,0.0,0.0,0.0,0.0,0.0,0.0,0.0,0.0,0.0,0.1944,0.1914,0.0,0.0,0.0,0.0,0.0,0.0,0.0,0.0,-0.159,0.0,0.0,0.0,0.0,0.0,0.0,0.0,0.0,0.0,0.0,0.0,0.0,0.0,0.0,0.0,0.0,0.0,0.0,0.0,0.0,0.0,0.0,0.0,0.0,0.0,0.0,0.0,0.0,0.0,0.0,0.0,0.0,0.0,0.0,0.0,0.0,0.0,0.0,0.0,0.0,0.0,0.0,0.0,0.0,0.0,0.0,0.0,0.0,0.0,0.0,0.0,0.0,0.0,0.0,0.0,0.0,-1.0115,-1.1153,-1.2843,-1.507,-1.5512,-1.5715,-1.5733,-1.4926,-1.3267,-1.079,0.0,0.0,0.0,0.0,0.0,0.0,0.0,0.0,0.0,0.0,0.0,0.0,0.0,0.0,0.0,0.0,0.0,0.0,0.0,0.0,0.0,0.0,0.0,0.0,0.0,0.0,0.0,0.0,0.0,0.0,0.0,0.0,0.0,0.0,0.0,0.0,0.0,0.0,0.0,0.1942,0.1773,0.0,0.0,0.0,0.0,0.0,0.0,0.0,0.0,-0.1479,0.0,0.0,0.0,0.0,0.0,0.0,0.0,0.0,0.0,0.0,0.0,0.0,0.0,0.0,0.0,0.0,0.0,0.0,0.0,0.0,0.0,0.0,0.0,0.0,0.0,0.0,0.0,0.0,0.0,0.0,0.0,0.0,0.0,0.0,0.0,0.0,0.0,0.0,0.0,0.0,0.0,0.0,0.0,0.0,0.0,0.0,0.0,0.0,0.0,0.0,0.0,0.0,0.0,0.0,0.0,-1.0454,-1.1755,-1.3378,-1.5184,-1.5445,-1.5601,-1.5624,-1.4907,-1.3362,0.0,0.0,0.0,0.0,0.0,0.0,0.0,0.0,0.0,0.0,0.0,0.0,0.0,0.0,0.0,0.0,0.0,0.0,0.0,0.0,0.0,0.0,0.0,0.0,0.0,0.0,0.0,0.0,0.0,0.0,0.0,0.0,0.0,0.0,0.0,0.0,0.0,0.0,0.0,0.0,0.1911,0.1681,0.1279,0.0,0.0,0.0,0.0,0.0,0.0,-0.1286,-0.128,0.0,0.0,0.0,0.0,0.0,0.0,0.0,0.0,0.0,0.0,0.0,0.0,0.0,0.0,0.0,0.0,0.0,0.0,0.0,0.0,0.0,0.0,0.0,0.0,0.0,0.0,0.0,0.0,0.0,0.0,0.0,0.0,0.0,0.0,0.0,0.0,0.0,0.0,0.0,0.0,0.0,0.0,0.0,0.0,0.0,0.0,0.0,0.0,0.0,0.0,0.0,0.0,0.0,0.0,0.0,-1.0785,-1.2269,-1.3771,-1.543,-1.5486,-1.5572,-1.5676,-1.4702,-1.3154,0.0,0.0,0.0,0.0,0.0,0.0,0.0,0.0,0.0,0.0,0.0,0.0,0.0,0.0,0.0,0.0,0.0,0.0,0.0,0.0,0.0,0.0,0.0,0.0,0.0,0.0,0.0,0.0,0.0,0.0,0.0,0.0,0.0,0.0,0.0,0.0,0.0,0.0,0.0,0.0,0.0,0.17,0.1397,0.1195,0.0,0.0,0.0,0.0,-0.0804,-0.0895,0.0,0.0,0.0,0.0,0.0,0.0,0.0,0.0,0.0,0.0,0.0,0.0,0.0,0.0,0.0,0.0,0.0,0.0,0.0,0.0,0.0,0.0,0.0,0.0,0.0,0.0,0.0,0.0,0.0,0.0,0.0,0.0,0.0,0.0,0.0,0.0,0.0,0.0,0.0,0.0,0.0,0.0,0.0,0.0,0.0,0.0,0.0,0.0,0.0,0.0,0.0,0.0,0.0,0.0,0.0,0.0,-1.1359,-1.2498,-1.4016,-1.5716,-1.5374,-1.53,-1.5861,-1.3906,-1.2109,0.0,0.0,0.0,0.0,0.0,0.0,0.0,0.0,0.0,0.0,0.0,0.0,0.0,0.0,0.0,0.0,0.0,0.0,0.0,0.0,0.0,0.0,0.0,0.0,0.0,0.0,0.0,0.0,0.0,0.0,0.0,0.0,0.0,0.0,0.0,0.0,0.0,0.0,0.0,0.0,0.0,0.196,0.125,0.0938,0.0755,0.0,0.0,0.0142,-0.0372,-0.043,0.0,0.0,0.0,0.0,0.0,0.0,0.0,0.0,0.0,0.0,0.0,0.0,0.0,0.0,0.0,0.0,0.0,0.0,0.0,0.0,0.0,0.0,0.0,0.0,0.0,0.0,0.0,0.0,0.0,0.0,0.0,0.0,0.0,0.0,0.0,0.0,0.0,0.0,0.0,0.0,0.0,0.0,0.0,0.0,0.0,0.0,0.0,0.0,0.0,0.0,0.0,0.0,0.0,0.0,0.0,-0.9566,-1.1219,-1.2981,-1.425,-1.5051,-1.5076,-1.5084,-1.5076,-1.3494,-1.1831,0.0,0.0,0.0,0.0,0.0,0.0,0.0,0.0,0.0,0.0,0.0,0.0,0.0,0.0,0.0,0.0,0.0,0.0,0.0,0.0,0.0,0.0,0.0,0.0,0.0,0.0,0.0,0.0,0.0,0.0,0.0,0.0,0.0,0.0,0.0,0.0,0.0,0.0,0.0,0.0,0.0,0.0,0.1605,0.1245,0.0,0.0,0.0,0.063,0.0535,0.0,0.0,0.0,0.0,0.0,0.0,0.0,0.0,0.0,0.0,0.0,0.0,0.0,0.0,0.0,0.0,0.0,0.0,0.0,0.0,0.0,0.0,0.0,0.0,0.0,0.0,0.0,0.0,0.0,0.0,0.0,0.0,0.0,0.0,0.0,0.0,0.0,0.0,0.0,0.0,0.0,0.0,0.0,0.0,0.0,0.0,0.0,0.0,0.0,0.0,0.0,0.0,0.0,0.0,0.0,0.0,0.0,-1.1024,-1.3137,-1.4316,-1.4497,-1.4895,-1.4911,-1.4439,-1.3248,0.0,0.0,0.0,0.0,0.0,0.0,0.0,0.0,0.0,0.0,0.0,0.0,0.0,0.0,0.0,0.0,0.0,0.0,0.0,0.0,0.0,0.0,0.0,0.0,0.0,0.0,0.0,-0.0523,0.0,0.0,0.0,0.0,0.0,0.0,0.0,0.0,0.0,0.0,0.0,0.0,0.0,0.0,0.17,0.1828,0.152,0.1434,0.0,0.0,0.1195,0.1345,0.0833,0.0529,0.0,0.0,0.0,0.0,0.0,0.0,0.0,0.0,0.0,0.0,0.0,0.0,0.0,0.0,0.0,0.0,0.0,0.0,0.0,0.0,0.0,0.0,0.0,0.0,0.0,0.0,0.0,0.0,0.0,0.0,0.0,0.0,0.0,0.0,0.0,0.0,0.0,0.0,0.0,0.0,0.0,0.0,0.0,0.0,0.0,0.0,0.0,0.0,0.0,0.0,0.0,0.0,0.0,0.0,-0.9847,-1.1177,-1.299,-1.4156,-1.4667,-1.4724,-1.4724,-1.4684,-1.3377,-1.1946,0.0,0.0,0.0,0.0,0.0,0.0,0.0,0.0,0.0,0.0,0.0,0.0,0.0,0.0,0.0,0.0,0.0,0.0,0.0,0.0,0.0,0.0,0.0,0.0,0.0,0.0,0.0,0.0,0.0,0.0,0.0,0.0,0.0,0.0,0.0,0.0,0.0,0.0,0.0,0.0,0.0,0.1936,0.1674,0.1667,0.1641,0.0,0.1837,0.198,0.1882,0.1673,0.157,0.1688,0.0,0.0,0.0,0.0,0.0,0.0,0.0,0.0,0.0,0.0,0.0,0.0,0.0,0.0,0.0,0.0,0.0,0.0,0.0,0.0,0.0,0.0,0.0,0.0,0.0,0.0,0.0,0.0,0.0,0.0,0.0,0.0,0.0,0.0,0.0,0.0,0.0,0.0,0.0,0.0,0.0,0.0,0.0,0.0,0.0,0.0,0.0,0.0,0.0,0.0,0.0,0.0,0.0,-0.9936,-1.1468,-1.3177,-1.4278,-1.4692,-1.4814,-1.4814,-1.4708,-1.368,-1.2425,0.0,0.0,0.0,0.0,0.0,0.0,0.0,0.0,0.0,0.0,0.0,0.0,0.0,0.0,0.0,0.0,0.0,0.0,0.0,0.0,0.0,0.0,0.0,0.0,0.0,0.0,0.0,0.0,-0.3134,-0.3126,-0.2647,0.0,0.0,0.0,0.0,0.0,0.0,0.0,0.0,0.0,0.0,0.1727,0.1603,0.1618,0.0,0.0,0.2267,0.231,0.2352,0.217,0.2064,0.2072,0.2171,0.0,0.0,0.0,0.0,0.0,0.0,0.0,0.0,0.0,0.0,0.0,0.0,0.0,0.0,0.0,0.0,0.0,0.0,0.0,0.0,0.0,0.0,0.0,0.0,0.0,0.0,0.0,0.0,0.0,0.0,0.0,0.0,0.0,0.0,0.0,0.0,0.0,0.0,0.0,0.0,0.0,0.0,0.0,0.0,0.0,0.0,0.0,0.0,0.0,0.0,0.0,0.0,-1.028,-1.1682,-1.3389,-1.4399,-1.4708,-1.483,-1.4806,-1.4619,-1.389,-1.2827,0.0,0.0,0.0,0.0,0.0,0.0,0.0,0.0,0.0,0.0,0.0,0.0,0.0,0.0,0.0,0.0,0.0,0.0,0.0,0.0,0.0,0.0,0.0,0.0,0.0,0.0,0.0,0.0,-0.3685,-0.3406,-0.2629,0.0,0.0,0.0,0.0,0.0,0.0,0.0,0.0,0.0,0.0,0.1516,0.1617,0.1718,0.2061,0.2627,0.2738,0.2771,0.2824,0.2749,0.2714,0.26,0.0,0.0,0.0,0.0,0.0,0.0,0.0,0.0,0.0,0.0,0.0,0.0,0.0,0.0,0.0,0.0,0.0,0.0,0.0,0.0,0.0,0.0,0.0,0.0,0.0,0.0,0.0,-0.3406,0.0,0.0,-0.3368,0.0,0.0,0.0,0.0,0.0,0.0,0.0,0.0,0.0,0.0,0.0,0.0,0.0,0.0,0.0,0.0,0.0,0.0,0.0,0.0,0.0,0.0,-1.0822,-1.1917,-1.3545,-1.4513,-1.47,-1.4716,-1.4627,-1.444,-1.3857,-1.3128,-1.2082,0.0,0.0,0.0,0.0,0.0,0.0,0.0,0.0,0.0,0.0,0.0,0.0,0.0,0.0,0.0,0.0,0.0,0.0,0.0,0.0,0.0,0.0,0.0,0.0,0.0,0.0,-0.3846,-0.3715,-0.3221,0.0,0.0,0.0,0.0,0.0,0.0,0.0,0.0,0.0,0.0803,0.101,0.1314,0.1566,0.2019,0.2471,0.2771,0.3177,0.3464,0.3391,0.3515,0.365,0.0,0.0,0.0,0.0,0.0,0.0,0.0,0.0,0.0,0.0,0.0,0.0,0.0,0.0,0.0,0.0,0.0,0.0,0.0,0.0,0.0,0.0,0.0,0.0,0.0,0.0,0.0,-0.5184,-0.5814,0.0,0.0,0.0,0.0,0.0,0.0,0.0,0.0,0.0,0.0,0.0,-0.9116,-0.9183,0.0,0.0,0.0,0.0,0.0,0.0,0.0,0.0,0.0,0.0,0.0,0.0,-1.1174,-1.2268,-1.3602,-1.4351,-1.4513,-1.4521,-1.4497,-1.4432,-1.4034,-1.2989,-1.1242,0.0,0.0,0.0,0.0,0.0,0.0,0.0,0.0,0.0,0.0,0.0,0.0,0.0,0.0,0.0,0.0,0.0,0.0,0.0,0.0,0.0,0.0,0.0,0.0,0.0,-0.4002,0.0,0.0,0.0,0.0,0.0,0.0,0.0,0.0,0.0,0.0,0.0531,0.0491,0.0302,0.0808,0.1213,0.1314,0.1969,0.25,0.0,0.0,0.0,0.0,0.0,0.0,0.0,0.0,0.0,0.0,0.0,0.0,0.0,0.0,0.4867,0.4799,0.4603,0.4489,0.4732,0.0,0.0,0.0,0.0,0.0,0.0,0.0,0.0,0.0,0.0,0.0,0.0,0.0,0.0,-0.7228,-0.7822,-0.782,0.0,0.0,0.0,0.0,0.0,0.0,0.0,0.0,-1.0122,-1.0713,-1.0903,-1.0907,-1.0794,-1.0481,-1.01,-0.915,0.0,0.0,0.0,0.0,0.0,0.0,0.0,0.0,-1.1605,-1.2711,-1.3674,-1.4261,-1.4416,-1.4375,-1.4343,-1.4335,-1.3793,-1.2743,-1.1129,-0.9735,-0.8349,0.0,0.0,0.0,0.0,0.0,0.0,0.0,0.0,0.0,0.0,0.0,0.0,0.0,0.0,0.0,0.0,0.0,0.0,0.0,0.0,0.0,0.0,0.0,-0.432,0.0,0.0,0.0,0.0,0.0,0.0,0.0,0.0,0.0,-0.0097,0.0049,0.0099,0.0,0.0659,0.1213,0.1314,0.0,0.0,0.0,0.0,0.0,0.0,0.0,0.3941,0.392,0.4034,0.4231,0.4692,0.5151,0.5475,0.5355,0.0,0.0,0.5022,0.4824,0.4713,0.4954,0.474,0.4638,0.5091,0.529,0.538,0.0,0.0,0.0,0.0,-0.673,0.0,0.0,0.0,-0.9437,-0.9445,0.0,-0.9841,0.0,0.0,0.0,0.0,-0.8502,-0.9552,0.0,0.0,-1.2308,-1.2906,-1.2606,-1.2465,-1.2472,-1.2531,-1.1694,-1.1207,-1.102,-0.9513,0.0,0.0,0.0,0.0,0.0,0.0,-1.22,-1.3381,-1.393,-1.4253,-1.4408,-1.4261,-1.4172,-1.4156,-1.3239,-1.2414,-1.1689,-1.0516,-0.957,-0.8851,-0.6936,0.0,0.0,0.0,0.0,0.0,0.0,0.0,0.0,0.0,0.0,0.0,0.0,0.0,0.0,0.0,0.0,0.0,0.0,0.0,0.0,-0.4486,0.0,0.0,0.0,0.0,0.0,0.0,0.0,0.0,0.0,-0.1213,-0.0912,-0.0598,-0.0299,-0.0052,0.0,0.0,0.0,0.0,0.2924,0.3173,0.362,0.3992,0.4149,0.4305,0.4423,0.4511,0.0,0.0,0.5129,0.5489,0.5712,0.5741,0.5752,0.5602,0.5146,0.5043,0.5048,0.5062,0.5057,0.5136,0.5562,0.5772,0.6001,-0.9842,0.0,0.0,0.0,0.0,-0.8917,-0.9939,-1.1495,-1.13,-1.1475,-1.1942,-1.1551,0.0,0.0,0.0,0.0,0.0,0.0,-1.1036,-1.1747,-1.2676,-1.3141,-1.3158,-1.3239,-1.3231,-1.315,-1.2918,-1.2665,-1.2531,-1.2045,-1.1173,-0.9833,0.0,0.0,0.0,0.0,-1.2797,-1.3381,-1.381,-1.4066,-1.4245,-1.4075,-1.3834,-1.3546,-1.2723,-1.204,-1.1717,-1.0822,-0.9973,-0.9254,-0.8219,0.0,0.0,0.0,0.0,0.0,0.0,0.0,0.0,0.0,0.0,0.0,0.0,0.0,0.0,0.0,0.0,0.0,0.0,0.0,-0.4913,-0.5072,-0.4885,0.0,0.0,0.0,0.0,0.0,0.0,0.0,0.0,0.0,-0.1225,-0.0938,-0.0564,0.0,0.0,0.1363,0.1817,0.2574,0.3165,0.3373,0.369,0.0,0.4153,0.4305,0.4464,0.4686,0.5039,0.54,0.5666,0.599,0.623,0.6321,0.6218,0.606,0.583,0.5566,0.5533,0.5851,0.5739,0.5795,0.6357,0.6456,0.6403,-1.2201,-1.1266,-1.0501,-1.055,-1.1149,-1.1149,-1.2043,-1.345,-1.3046,-1.3012,-1.3172,-1.2834,-1.2057,-1.0996,-1.0413,0.0,0.0,0.0,-1.1992,-1.264,-1.3064,-1.345,-1.3701,-1.3807,-1.3839,-1.379,-1.379,-1.366,-1.3409,-1.3417,-1.2807,-1.171,0.0,-1.177,-1.1999,-1.2681,-1.3192,-1.3603,-1.3833,-1.3881,-1.385,-1.3595,-1.3261,-1.2896,-1.2321,-1.1881,-1.151,-1.098,-1.0405,-0.9935,-0.9199,-0.8185,0.0,0.0,0.0,0.0,0.0,0.0,0.0,0.0,0.0,0.0,0.0,-0.2191,-0.28,0.0,0.0,0.0,-0.4941,-0.5317,-0.5879,-0.5539,0.0,0.0,0.0,0.0,0.0,0.0,0.0,-0.2303,-0.1951,-0.1655,-0.1308,-0.0854,-0.0367,0.0105,0.0923,0.1666,0.2118,0.0,0.341,0.3638,0.3873,0.4186,0.4486,0.4542,0.4656,0.4981,0.5385,0.5703,0.5929,0.6167,0.6322,0.6445,0.6509,0.6436,0.6352,0.6266,0.6233,0.6299,0.6253,0.6397,0.6881,0.6917,0.6965,-1.4538,-1.414,-1.1844,-1.203,-1.3697,-1.3376,-1.3883,-1.5005,-1.4567,-1.4009,-1.3418,-1.3656,-1.3124,-1.1972,-1.1647,0.0,-1.2492,-1.2641,-1.295,-1.3417,-1.3604,-1.3863,-1.4172,-1.418,-1.427,-1.4432,-1.4399,-1.4229,-1.3928,-1.3904,-1.3831,-1.3615,-1.3009,-1.2872,-1.3177,-1.3193,-1.3413,-1.392,-1.3841,-1.3682,-1.3253,-1.2896,-1.261,-1.2173,-1.2023,-1.172,-1.122,-1.1002,-1.0799,-1.0717,-0.9929,-0.9211,-0.8628,0.0,0.0,0.0,0.0,0.0,0.0,0.0,0.0,0.0,0.0,0.0,0.0,0.0,0.0,-0.5607,-0.5931,0.0,-0.6867,-0.5817,0.0,0.0,0.0,-0.3956,-0.3956,-0.3422,-0.3051,-0.3051,0.0,0.0,-0.1314,-0.0539,0.0106,0.0373,0.1343,0.2118,0.237,0.3078,0.366,0.3834,0.4118,0.4477,0.4819,0.4869,0.4959,0.5315,0.5597,0.5824,0.6091,0.618,0.6263,0.6441,0.659,0.6721,0.6715,0.6941,0.7029,0.6495,0.6718,0.7035,0.7141,0.7379,0.753,-1.4634,-1.5673,-1.4753,-1.4382,-1.4474,-1.4697,-1.4936,-1.5168,-1.4806,-1.4483,-1.412,-1.3772,-1.3244,-1.258,-1.2514,-1.2706,-1.3178,-1.3219,-1.3404,-1.3782,-1.3961,-1.4099,-1.418,-1.418,-1.427,-1.4408,-1.4156,-1.4058,-1.4107,-1.3969,-1.3953,-1.4042,-1.3889,-1.3818,-1.3906,-1.3978,-1.4002,-1.4115,-1.3682,-1.3253,-1.2968,-1.2545,-1.228,-1.2087,-1.165,-1.1289,-1.1002,-1.0793,-1.0758,-1.0717,-1.0411,-0.9857,-0.9075,-0.7834,0.0,0.0,0.0,0.0,0.0,0.0,0.0,0.0,0.0,-0.3918,-0.472,0.0,-0.6116,0.0,-0.6574,-0.6449,-0.6335,-0.5722,0.0,0.0,-0.4595,-0.4371,-0.4315,-0.3987,-0.3711,-0.349,-0.2637,-0.1868,-0.1391,-0.0376,0.042,0.0691,0.1446,0.2068,0.237,0.3078,0.366,0.3887,0.411,0.438,0.4672,0.4915,0.5182,0.5573,0.5863,0.6086,0.6302,0.6479,0.67,0.6884,0.6905,0.6911,0.6783,0.6994,0.7142,0.7035,0.7326,0.7574,0.7614,0.7902,0.8112,-1.4814,-1.5667,-1.5429,-1.5093,-1.4885,-1.5172,-1.519,-1.5018,-1.4677,-1.4339,-1.4162,-1.3761,-1.3423,-1.3197,-1.313,-1.3344,-1.3604,-1.3693,-1.3839,-1.4026,-1.4131,-1.4213,-1.4286,-1.4213,-1.427,-1.4424,-1.4083,-1.393,-1.3954,-1.3633,-1.3608,-1.378,-1.3702,-1.3741,-1.3882,-1.3887,-1.3954,-1.3954,-1.3202,-1.2689,-1.2545,-1.2123,-1.1832,-1.1741,-1.1386,-1.1022,-1.0677,-1.0591,-1.0518,-1.0459,-1.0313,-1.0064,-0.9463,-0.8453,-0.7365,0.0,0.0,0.0,0.0,0.0,0.0,0.0,0.0,0.0,0.0,0.0,-0.6666,-0.7133,-0.6796,-0.65,-0.6322,-0.5764,-0.5378,-0.5209,-0.5006,-0.4931,-0.4875,-0.4484,-0.4145,-0.4033,-0.2817,-0.1926,-0.1509,-0.0322,0.0627,0.0798,0.1499,0.212,0.2416,0.3036,0.3629,0.3833,0.4083,0.4364,0.4741,0.5179,0.5593,0.5936,0.6257,0.6523,0.6827,0.6922,0.701,0.7245,0.7227,0.7171,0.7098,0.7106,0.7255,0.7369,0.7469,0.7609,0.7833,0.8126,0.8223,-1.4968,-1.5037,-1.502,-1.4919,-1.4963,-1.5077,-1.4984,-1.4706,-1.4301,-1.405,-1.3888,-1.3742,-1.3606,-1.3606,-1.3606,-1.3687,-1.3841,-1.4019,-1.4107,-1.4035,-1.4148,-1.4237,-1.435,-1.4212,-1.4212,-1.4358,-1.394,-1.3714,-1.3517,-1.313,-1.3058,-1.3133,-1.3,-1.3082,-1.3356,-1.3303,-1.3363,-1.3413,-1.2547,-1.2122,-1.2122,-1.1704,-1.1402,-1.1291,-1.1163,-1.0878,-1.0373,-1.0299,-1.0315,-1.0193,-1.0051,-0.9974,-0.9831,-0.9007,-0.8071,0.0,-0.5996,0.0,0.0,0.0,0.0,0.0,0.0,0.0,0.0,-0.6255,-0.6896,-0.7423,-0.6854,-0.6479,-0.6516,-0.5907,-0.5508,-0.5504,-0.5431,-0.5382,-0.5382,-0.4819,-0.4424,-0.4424,-0.2866,-0.1756,-0.1669,-0.0267,0.0782,0.0844,0.1538,0.2104,0.2406,0.2946,0.3469,0.3718,0.3964,0.4352,0.4876,0.5456,0.5975,0.632,0.6656,0.701,0.7401,0.7312,0.7319,0.7517,0.7496,0.7444,0.7444,0.7316,0.7316,0.7516,0.7349,0.7375,0.782,0.8091,0.8201,-1.4899,-1.542,-1.4966,-1.4667,-1.4521,-1.4424,-1.4465,-1.4433,-1.4075,-1.3937,-1.3896,-1.3863,-1.3855,-1.3847,-1.3855,-1.365,-1.3404,-1.3584,-1.3517,-1.324,-1.3878,-1.4023,-1.3921,-1.3956,-1.3956,-1.3964,-1.334,-1.3047,-1.3072,-1.2937,-1.2887,-1.3044,-1.2648,-1.2655,-1.282,0.0,0.0,0.0,-1.1986,-1.1685,-1.1691,-1.1592,-1.1315,-1.0803,-1.0763,0.0,-0.9844,-0.9831,-0.9952,-1.0193,-1.0051,0.0,0.0,0.0,0.0,0.0,0.0,0.0,0.0,0.0,0.0,0.0,-0.5562,-0.5767,-0.614,-0.6693,-0.7124,-0.7238,-0.6847,-0.6443,-0.6233,-0.5792,-0.5508,-0.5504,-0.5431,-0.5382,-0.5382,-0.4651,-0.4092,-0.4033,-0.251,-0.1401,-0.131,-0.0105,0.0768,0.0831,0.1598,0.214,0.2312,0.2674,0.3136,0.3618,0.4021,0.4459,0.4924,0.5429,0.5936,0.6346,0.6959,0.7356,0.7489,0.7628,0.7804,0.7981,0.7848,0.7643,0.7708,0.7538,0.7368,0.7414,0.7267,0.7228,0.7617,0.7952,0.8184,-1.4891,-1.5267,-1.4947,-1.4732,0.0,-1.4375,-1.431,-1.4286,-1.4018,-1.3904,-1.3904,-1.3904,-1.3753,-1.3611,-1.3611,-1.3396,-1.3047,-1.3306,-1.3273,-1.3133,-1.3446,-1.3559,-1.3475,-1.3374,-1.3363,-1.3356,-1.277,-1.2517,-1.259,-1.2366,-1.2193,-1.2122,-1.1835,-1.1723,-1.171,-1.0992,-1.0819,-1.1325,-1.1175,-1.1103,-1.1253,-1.1044,-1.069,-1.0335,-1.006,0.0,0.0,0.0,0.0,0.0,0.0,0.0,0.0,-0.9374,0.0,-0.7856,-0.718,-0.6673,-0.6266,-0.5957,-0.5838,-0.5957,-0.5883,-0.5968,-0.6328,-0.6584,-0.6815,-0.6989,-0.6657,-0.6382,-0.6248,-0.5831,-0.5573,-0.5569,-0.5459,-0.5326,-0.5098,-0.4484,-0.391,-0.3484,-0.2218,-0.1282,-0.1131,0.0,0.0765,0.0826,0.1498,0.2079,0.227,0.2589,0.3061,0.3569,0.4021,0.4478,0.4924,0.5408,0.5941,0.6605,0.7187,0.754,0.7804,0.776,0.7724,0.7812,0.7612,0.7403,0.7436,0.7255,0.7123,0.7206,0.7108,0.7083,0.7441,0.7876,0.8124,-1.5045,-1.496,-1.4935,-1.4838,-1.4692,-1.4481,-1.4286,-1.4115,-1.3969,0.0,0.0,-1.3825,-1.3611,-1.3325,-1.3253,-1.3039,-1.2704,-1.2927,-1.2992,-1.2918,-1.3089,-1.3089,-1.3045,-1.2859,-1.2711,-1.2689,-1.2259,-1.2122,-1.2051,-1.1691,-1.1385,-1.1265,-1.0951,-1.0661,-1.0462,-1.0009,-0.9951,-1.0239,-1.0359,-1.0581,-1.0887,-1.0364,-1.0013,-0.992,-0.9296,-0.8633,-0.7994,-0.8256,-0.8651,-0.9045,-0.9133,-0.9315,-0.9748,-0.9249,-0.8488,-0.7566,-0.7082,-0.6775,-0.6403,-0.6101,-0.6039,-0.628,-0.6039,-0.6039,-0.6403,-0.6267,-0.6375,-0.6771,-0.6454,-0.625,-0.6246,-0.586,-0.5576,-0.556,-0.5419,-0.5214,-0.4931,-0.4316,-0.3675,-0.3064,-0.1991,-0.117,-0.0847,0.0103,0.0811,0.0868,0.1494,0.2034,0.2319,0.2762,0.3216,0.3577,0.401,0.4478,0.4919,0.5408,0.603,0.6833,0.7238,0.7584,0.7893,0.776,0.7547,0.7591,0.7319,0.7238,0.7187,0.7061,0.6928,0.7098,0.6966,0.6961,0.7344,0.774,0.808,-1.5045,-1.4952,-1.4806,-1.4732,-1.4684,-1.4359,-1.4115,-1.3945,-1.3912,-1.3904,-1.3904,-1.3539,-1.3396,-1.3253,-1.3039,-1.2681,-1.2273,-1.2445,-1.2304,-1.2017,-1.2519,-1.266,-1.2524,-1.2554,-1.2467,-1.2273,-1.1907,-1.1691,-1.1619,-1.126,-1.1057,-1.0998,-1.0396,-0.9891,-0.9541,-0.9457,-0.9446,-0.9446,-0.9709,-1.006,-1.0521,-1.0019,-0.9543,-0.9162,-0.8703,-0.8181,-0.7598,-0.766,-0.8123,-0.9045,-0.8874,-0.906,-0.9748,-0.9181,-0.8488,-0.7872,-0.7261,-0.6771,-0.6403,-0.6101,-0.5916,-0.5978,-0.5916,-0.6039,-0.6403,-0.639,-0.6385,-0.6464,-0.6385,-0.6228,-0.5927,-0.5704,-0.5552,-0.5479,-0.5213,-0.4931,-0.4875,-0.4142,-0.3392,-0.2787,-0.1937,-0.1058,-0.0521,0.0256,0.0804,0.0942,0.1557,0.2319,0.2706,0.3201,0.3525,0.3702,0.4032,0.4486,0.4919,0.5408,0.5941,0.67,0.701,0.7231,0.7577,0.7533,0.7496,0.7716,0.7503,0.7459,0.7584,0.7363,0.7143,0.7098,0.7054,0.7112,0.7419,0.7686,0.7945,-1.4911,-1.4822,-1.4741,-1.4594,-1.4399,-1.414,-1.3834,-1.3539,-1.3404,-1.3396,-1.3539,-1.3396,-1.3111,-1.2689,-1.2545,-1.2259,-1.1842,-1.1987,-1.1976,-1.1837,-1.2125,-1.2199,-1.2049,-1.2046,-1.1976,-1.1835,-1.1691,-1.1476,-1.126,-1.1116,-1.0822,-1.0389,-0.9879,-0.9518,-0.9302,-0.9302,-0.9275,-0.9215,-0.9363,-0.9649,-1.0066,-0.9366,-0.8895,-0.8644,-0.7966,-0.7418,-0.6996,-0.7121,-0.7693,-0.8689,-0.8517,-0.8713,-0.9387,-0.8705,-0.8055,-0.7378,-0.6888,-0.6464,-0.6162,-0.5978,-0.5916,-0.5916,-0.5916,-0.5978,-0.6096,-0.6162,-0.6158,-0.6096,-0.6115,-0.6008,-0.5782,-0.5538,-0.5326,-0.5287,-0.4923,-0.4596,-0.4365,-0.3778,-0.3129,-0.2482,-0.1646,-0.094,-0.0461,0.0305,0.0802,0.0885,0.1628,0.2367,0.2841,0.3275,0.3599,0.3674,0.401,0.4393,0.479,0.5235,0.5769,0.6352,0.6567,0.6871,0.718,0.7224,0.7231,0.7363,0.7363,0.7319,0.7408,0.7275,0.7143,0.7098,0.7098,0.7187,0.7275,0.7635,0.7974,-1.4862,-1.4557,-1.4557,-1.4356,-1.3954,-1.3738,-1.3507,-1.3182,-1.2824,-1.2753,-1.2896,-1.2896,-1.2466,-1.1835,-1.1907,-1.1691,-1.1273,-1.1398,-1.159,-1.1643,-1.167,-1.1663,-1.1703,-1.1667,-1.1619,-1.1619,-1.1476,-1.1332,-1.1044,-1.0828,-1.0389,-0.9807,-0.9446,-0.9302,-0.9302,-0.9302,-0.9258,-0.9182,-0.9159,-0.9204,-0.9372,-0.8617,-0.8237,-0.8083,-0.7463,-0.6942,-0.6723,-0.6965,-0.7445,-0.8274,-0.814,-0.8276,-0.8801,-0.8122,-0.7378,-0.6827,-0.6464,-0.6158,-0.5916,-0.5916,-0.5916,-0.5916,-0.5916,-0.5855,-0.5794,-0.5835,-0.5888,-0.588,-0.5823,-0.5769,-0.559,-0.5311,-0.5047,-0.4971,-0.463,-0.4316,-0.403,-0.3479,-0.2876,-0.2242,-0.147,-0.0825,-0.0304,0.0303,0.085,0.1171,0.1745,0.2331,0.2732,0.3173,0.3492,0.3657,0.3972,0.4433,0.4701,0.5013,0.5419,0.5908,0.608,0.6346,0.67,0.6745,0.6833,0.701,0.7098,0.7143,0.7143,0.7098,0.7098,0.7098,0.7098,0.7143,0.7231,0.7591,0.7988,-1.471,-1.4187,-1.4171,-1.3752,-1.3167,-1.313,-1.3039,-1.2768,-1.2395,-1.2029,-1.1743,-1.1743,-1.1319,-1.0743,-1.0966,-1.075,-1.0179,-1.0523,-1.0815,-1.1089,-1.1186,-1.1398,-1.1581,-1.1626,-1.1619,-1.1548,-1.126,-1.1044,-1.09,-1.0317,-0.9807,-0.9374,-0.9302,-0.9302,-0.9302,-0.9302,-0.9296,-0.9285,-0.8831,-0.8585,-0.8472,-0.8021,-0.7752,-0.7742,-0.7324,-0.7215,-0.7321,-0.7299,-0.7636,-0.8258,-0.7869,-0.7754,-0.804,-0.7439,-0.6827,-0.6464,-0.6101,-0.5916,-0.5916,-0.5916,-0.5855,-0.5916,-0.5855,-0.5728,-0.5475,-0.5657,-0.5794,-0.5786,-0.5782,-0.5586,-0.5219,-0.5062,-0.4907,-0.4564,-0.4267,-0.4036,-0.3918,-0.3482,-0.288,-0.2242,-0.1623,-0.0978,-0.0203,0.0453,0.1043,0.1632,0.1939,0.2283,0.2554,0.2961,0.3323,0.3554,0.393,0.4417,0.4776,0.4835,0.5073,0.557,0.563,0.5841,0.6183,0.6416,0.6517,0.6877,0.701,0.7098,0.7098,0.7098,0.7098,0.7098,0.7143,0.7187,0.7415,0.768,0.7944,-1.4634,-1.4104,-1.433,-1.4113,-1.3451,-1.3124,-1.267,-1.217,-1.1712,-1.1025,-1.0311,-1.0239,-1.0167,-1.0167,-1.0311,-1.0023,-0.9596,-1.0221,-1.0583,-1.0756,-1.0951,-1.124,-1.1554,-1.1619,-1.1476,-1.126,-1.1044,-1.075,-1.0317,-0.9807,-0.9446,-0.9302,-0.9302,-0.9302,-0.9302,-0.9237,-0.9171,-0.9025,-0.8627,-0.8168,-0.7874,-0.7601,-0.7446,-0.7526,-0.7049,-0.6933,-0.7308,-0.7126,-0.7312,-0.7763,-0.7408,-0.7271,-0.7392,-0.6912,-0.6464,-0.6096,-0.579,-0.5609,-0.5609,-0.5425,-0.5302,-0.5302,-0.5302,-0.5223,-0.5051,-0.5136,-0.5204,-0.5112,-0.5272,-0.5238,-0.4886,-0.4559,-0.4405,-0.4207,-0.3924,-0.3757,-0.3754,-0.3176,-0.2683,-0.2396,-0.1611,-0.0815,-0.0252,0.0495,0.1257,0.1878,0.2126,0.2239,0.2568,0.2904,0.3181,0.3418,0.3735,0.4122,0.4594,0.4688,0.4884,0.5175,0.5389,0.5572,0.6046,0.6275,0.6468,0.6902,0.7048,0.7092,0.7098,0.7098,0.7098,0.7098,0.7143,0.7187,0.7459,0.7591,0.768,-1.4099,-1.3498,-1.3597,-1.3514,-1.3245,-1.2633,-1.2122,-1.159,-1.0872,-1.0095,-0.9302,-0.9013,-0.9013,-0.9302,-0.9446,-0.9302,-0.8946,-0.9552,-0.998,-1.0179,-1.0535,-1.0904,-1.1417,-1.1372,-1.1227,-1.0978,-1.0756,-1.0389,-0.9735,-0.9446,-0.9302,-0.9302,-0.9302,-0.9285,-0.9253,-0.91,-0.8927,-0.874,-0.8212,-0.7781,-0.7588,-0.7274,-0.7193,-0.733,-0.7125,-0.7089,-0.7478,-0.7224,-0.7191,-0.7544,-0.7103,-0.6784,-0.6775,-0.6464,-0.6096,-0.5794,-0.5425,-0.5237,-0.5241,-0.5056,-0.4926,-0.4906,-0.4841,-0.4808,-0.4684,-0.471,-0.4594,-0.4389,-0.4633,-0.4683,-0.4445,-0.418,-0.3983,-0.3868,-0.3701,-0.3583,-0.3448,-0.2937,-0.2568,-0.2381,-0.1398,-0.0456,0.0,0.0731,0.1423,0.1948,0.2102,0.2209,0.2585,0.2807,0.3028,0.3253,0.3458,0.3825,0.4316,0.4431,0.4624,0.487,0.5095,0.5462,0.605,0.6196,0.6466,0.686,0.7007,0.7092,0.7092,0.7098,0.7054,0.7054,0.7054,0.7098,0.7194,0.7326,0.737,-1.2643,-1.1808,-1.1227,-1.1551,-1.2121,-1.1167,-1.0951,-1.1164,-0.9937,-0.9374,-0.9085,-0.8218,-0.7711,-0.7856,-0.8435,-0.8362,-0.7797,-0.8236,-0.881,-0.9401,-0.9672,-1.019,-1.0991,-1.0809,-1.073,-1.0834,-1.0317,-0.9801,-0.9368,-0.9302,-0.9302,-0.9296,-0.9291,-0.9247,-0.9084,-0.8763,-0.8565,-0.8372,-0.7648,-0.7397,-0.7582,-0.7233,-0.7063,-0.7121,-0.7655,-0.7984,-0.802,-0.7772,-0.765,-0.7704,-0.6888,-0.6473,-0.6403,-0.6101,-0.5794,-0.5421,-0.5118,-0.4933,-0.493,-0.4865,-0.4838,-0.4777,-0.4704,-0.4674,-0.4362,-0.4425,-0.4329,-0.3848,-0.4023,-0.4105,-0.4049,-0.3989,-0.3868,-0.3701,-0.3645,-0.3453,-0.3134,-0.2843,-0.2473,-0.2047,-0.1088,-0.0051,0.0938,0.1304,0.156,0.1799,0.2007,0.22,0.2375,0.2569,0.2781,0.2989,0.318,0.3487,0.418,0.4288,0.4338,0.4619,0.4961,0.5178,0.5692,0.6171,0.6537,0.6837,0.7024,0.7085,0.7092,0.7054,0.6966,0.6966,0.701,0.7054,0.7017,0.7061,0.7187,-1.2874,-1.2347,-1.1391,-1.1327,-1.1612,-1.081,-1.0298,-1.0064,-0.9283,-0.8657,-0.8218,-0.7783,-0.7421,-0.728,-0.7498,-0.7498,-0.7285,-0.7897,-0.8401,-0.8884,-0.9248,-0.9899,-1.0618,-1.0583,-1.0438,-1.0251,-1.0029,-0.9623,-0.9209,-0.9269,-0.9226,-0.9111,-0.916,-0.8991,-0.8669,-0.8452,-0.8183,-0.7932,-0.736,-0.7242,-0.7511,-0.7407,-0.7326,-0.7326,-0.7593,-0.7892,-0.8283,-0.7742,-0.7374,-0.7297,-0.6781,-0.6345,-0.6105,-0.5794,-0.5425,-0.5118,-0.4745,-0.4542,-0.4504,-0.4316,-0.4228,-0.4166,-0.4157,-0.413,-0.3954,-0.3977,-0.3891,-0.374,-0.3717,-0.3757,-0.3757,-0.3757,-0.3701,-0.3645,-0.3586,-0.3466,-0.3102,-0.2671,-0.2138,-0.153,-0.0466,0.0603,0.1024,0.1341,0.1648,0.2003,0.2056,0.2172,0.2477,0.2591,0.2653,0.2832,0.3021,0.3309,0.3687,0.4019,0.4179,0.4539,0.4858,0.5106,0.5485,0.5984,0.6363,0.6692,0.6897,0.7085,0.7054,0.6966,0.6877,0.6833,0.6877,0.6922,0.6795,0.7061,0.7282,-1.2136,-1.2132,-1.1093,-1.08,-1.1008,-1.022,-0.9637,-0.925,-0.8629,-0.8073,-0.7638,-0.7494,-0.728,-0.699,-0.699,-0.699,-0.7063,-0.7498,-0.7933,-0.8372,-0.8619,-0.9195,-0.9818,-0.9847,-0.9696,-0.9524,-0.9518,-0.9264,-0.8852,-0.8981,-0.8913,-0.8609,-0.8742,-0.8554,-0.8208,-0.7986,-0.7737,-0.7418,-0.7085,-0.6987,-0.7321,-0.7293,-0.736,-0.745,-0.7493,-0.7644,-0.8029,-0.7466,-0.7043,-0.6886,-0.6522,-0.6164,-0.5736,-0.5298,-0.4981,-0.4716,-0.4407,-0.4195,-0.4139,-0.3948,-0.3863,-0.3747,-0.3797,-0.3772,-0.3714,-0.3649,-0.3627,-0.3597,-0.3589,-0.3589,-0.3589,-0.353,-0.3474,-0.3474,-0.3474,-0.3235,-0.2705,-0.2227,-0.1552,-0.0685,0.0154,0.0846,0.1204,0.1434,0.1779,0.2167,0.2118,0.2277,0.2595,0.2591,0.2549,0.2705,0.2946,0.3146,0.3474,0.3762,0.4117,0.4467,0.4702,0.4965,0.5342,0.584,0.6181,0.6505,0.6757,0.6957,0.6966,0.6884,0.6795,0.67,0.6789,0.6884,0.6972,0.7238,0.7415,-1.0374,-1.0966,-1.0092,-0.9955,-1.0134,-0.9319,-0.8897,-0.8715,-0.797,-0.7566,-0.7421,-0.7131,-0.699,-0.699,-0.6918,-0.699,-0.699,-0.7063,-0.7276,-0.772,-0.7797,-0.8158,-0.8734,-0.8596,-0.8586,-0.8729,-0.8729,-0.8507,-0.8198,-0.8497,-0.8447,-0.8069,-0.804,-0.7949,-0.7679,-0.7397,-0.7147,-0.6946,-0.6723,-0.6719,-0.6907,-0.6978,-0.7106,-0.7426,-0.7426,-0.7369,-0.7416,-0.6951,-0.6737,-0.6621,-0.616,-0.5736,-0.5364,-0.48,-0.4407,-0.4295,-0.4042,-0.3888,-0.3836,-0.3827,-0.3741,-0.3689,-0.3679,-0.3654,-0.361,-0.3597,-0.3594,-0.3589,-0.3589,-0.3589,-0.353,-0.325,-0.3138,-0.308,-0.3078,-0.2705,-0.1949,-0.1461,-0.0808,0.0366,0.0866,0.0994,0.14,0.1616,0.1822,0.2073,0.2164,0.2314,0.2598,0.2589,0.252,0.2588,0.2787,0.3061,0.3335,0.3612,0.3999,0.4389,0.4594,0.4883,0.5337,0.5808,0.6083,0.6376,0.661,0.6807,0.6884,0.6751,0.6612,0.6567,0.67,0.6833,0.7061,0.7282,0.7591,-1.0022,-1.0387,-0.9521,-0.9124,-0.9061,-0.8357,-0.8044,-0.7974,-0.7434,-0.7063,-0.6773,-0.6627,-0.6555,-0.6559,-0.6559,-0.67,-0.699,-0.6773,-0.6918,-0.7502,-0.7601,-0.782,-0.8164,-0.8183,-0.8111,-0.7933,-0.7928,-0.7819,-0.7706,-0.7824,-0.7916,-0.7846,-0.7888,-0.7673,-0.7274,-0.7134,-0.6942,-0.6656,-0.6589,-0.6652,-0.6982,-0.6956,-0.7128,-0.7351,-0.7191,-0.6918,-0.6528,-0.6744,-0.6717,-0.6558,-0.6023,-0.5419,-0.481,-0.4453,-0.424,-0.4039,-0.3937,-0.3771,-0.3717,-0.3706,-0.3681,-0.3632,-0.3616,-0.3608,-0.3591,-0.3589,-0.3589,-0.3586,-0.3418,-0.325,-0.3194,-0.297,-0.2802,-0.2805,-0.2608,-0.2141,-0.1189,-0.0426,0.0314,0.0921,0.1254,0.1324,0.1294,0.1417,0.1619,0.1887,0.1944,0.2062,0.2545,0.2586,0.2515,0.2549,0.2787,0.2982,0.3256,0.3608,0.4077,0.4384,0.4623,0.4818,0.5263,0.5755,0.6017,0.6262,0.6486,0.6624,0.665,0.6574,0.6435,0.6435,0.6523,0.6745,0.7054,0.7408,0.7724,-0.9822,-0.9949,-0.9197,-0.8649,-0.8444,-0.7856,-0.7551,-0.7353,-0.699,-0.6627,-0.6413,-0.6264,-0.6264,-0.6337,-0.6264,-0.6482,-0.6918,-0.641,-0.6555,-0.7063,-0.7135,-0.728,-0.743,-0.7502,-0.7353,-0.7204,-0.7131,-0.7102,-0.7052,-0.7242,-0.7415,-0.7424,-0.7436,-0.723,-0.6932,-0.6838,-0.6719,-0.6522,-0.6522,-0.6589,-0.6769,-0.6717,-0.6802,-0.6897,-0.671,-0.6421,-0.6126,-0.6289,-0.6281,-0.5968,-0.5438,-0.4902,-0.4407,-0.4237,-0.4079,-0.3909,-0.3813,-0.3709,-0.3654,-0.3643,-0.3632,-0.3594,-0.3589,-0.3589,-0.3589,-0.353,-0.3418,-0.3362,-0.3138,-0.2914,-0.2917,-0.2468,-0.2183,-0.2001,-0.1981,-0.1413,-0.0483,0.0366,0.0873,0.1162,0.1293,0.1365,0.1338,0.15,0.1647,0.1914,0.2022,0.2089,0.2525,0.2572,0.2531,0.2549,0.2705,0.2943,0.3217,0.3604,0.4112,0.4423,0.4696,0.4857,0.5118,0.5711,0.6133,0.6343,0.6562,0.641,0.6435,0.6308,0.6174,0.6257,0.6428,0.6827,0.7187,0.7584,0.79,-0.9666,-0.9553,-0.8967,-0.8444,-0.8078,-0.772,-0.7357,-0.699,-0.6627,-0.6413,-0.6264,-0.5974,-0.5974,-0.6119,-0.5901,-0.6119,-0.67,-0.6119,-0.5974,-0.6268,-0.6341,-0.6413,-0.6555,-0.6631,-0.6559,-0.641,-0.6406,-0.6333,-0.6395,-0.6696,-0.6941,-0.6985,-0.6832,-0.668,-0.6659,-0.6564,-0.6522,-0.6522,-0.6522,-0.6518,-0.6502,-0.6362,-0.6287,-0.6349,-0.6149,-0.6001,-0.5851,-0.5596,-0.5317,-0.4882,-0.4626,-0.4468,-0.4231,-0.4033,-0.3847,-0.37,-0.3679,-0.3646,-0.3602,-0.3597,-0.3594,-0.3589,-0.353,-0.3589,-0.353,-0.325,-0.3026,-0.297,-0.2805,-0.2636,-0.2412,-0.1846,-0.1276,-0.0929,-0.0922,-0.0482,0.0573,0.0817,0.1012,0.1207,0.124,0.1265,0.1428,0.1774,0.2041,0.2285,0.2392,0.2467,0.2575,0.2561,0.252,0.2588,0.2705,0.2979,0.3292,0.38,0.4268,0.4506,0.4779,0.4935,0.509,0.5601,0.6123,0.6331,0.6404,0.629,0.6213,0.6086,0.6174,0.6346,0.6605,0.6966,0.7363,0.7724,0.79,-0.9169,-0.9007,-0.8499,-0.8222,-0.8005,-0.7425,-0.7135,-0.699,-0.6559,-0.6192,-0.5901,-0.5538,-0.5465,-0.5541,-0.5468,-0.5683,-0.5901,-0.561,-0.5392,-0.5468,-0.5541,-0.5905,-0.6341,-0.6413,-0.6192,-0.5974,-0.5683,-0.5683,-0.5974,-0.6112,-0.6433,-0.6923,-0.6762,-0.668,-0.659,-0.65,-0.6522,-0.6522,-0.6522,-0.6419,-0.6362,-0.6313,-0.6223,-0.6057,-0.6013,-0.5706,-0.5211,-0.4664,-0.4413,-0.4558,-0.445,-0.4237,-0.4028,-0.3836,-0.3717,-0.3679,-0.3635,-0.3608,-0.3594,-0.3589,-0.3589,-0.3589,-0.3362,-0.325,-0.3194,-0.2973,-0.2692,-0.2524,-0.2356,-0.2074,-0.1512,-0.1163,-0.0598,0.0212,0.0317,0.0575,0.0974,0.1266,0.1408,0.1486,0.1461,0.1435,0.15,0.1606,0.1794,0.2095,0.2259,0.2337,0.2448,0.2553,0.251,0.2627,0.2784,0.3096,0.3448,0.3956,0.4389,0.4623,0.4862,0.5018,0.5173,0.5433,0.5912,0.6262,0.6101,0.5952,0.5997,0.5952,0.6169,0.6346,0.6517,0.6827,0.7408,0.7856,0.7944,-0.8651,-0.8434,-0.8066,-0.7788,-0.757,-0.7135,-0.699,-0.6918,-0.641,-0.6047,-0.5752,-0.5247,-0.5104,-0.5177,-0.5032,-0.532,-0.5683,-0.5247,-0.5104,-0.5177,-0.525,-0.5541,-0.5974,-0.5974,-0.5759,-0.5538,-0.5174,-0.5301,-0.5709,-0.5777,-0.6166,-0.6653,-0.6713,-0.6639,-0.659,-0.6568,-0.6522,-0.6522,-0.6518,-0.6489,-0.6378,-0.6296,-0.6219,-0.61,-0.5984,-0.5594,-0.493,-0.4377,-0.4177,-0.4313,-0.4213,-0.3988,-0.3841,-0.3722,-0.3668,-0.3643,-0.3605,-0.3589,-0.3589,-0.3589,-0.353,-0.3418,-0.3194,-0.3026,-0.2914,-0.2692,-0.2356,-0.2244,-0.2076,-0.1621,-0.0995,-0.0489,0.0213,0.094,0.129,0.138,0.1365,0.1426,0.1512,0.1532,0.1457,0.1479,0.158,0.1591,0.1736,0.2004,0.2174,0.2251,0.2364,0.2431,0.251,0.2588,0.2787,0.3061,0.3374,0.3847,0.4268,0.4545,0.474,0.494,0.5199,0.5355,0.5707,0.5987,0.5824,0.5735,0.5819,0.5908,0.6124,0.6302,0.6428,0.6789,0.7415,0.7856,0.79,-0.8229,-0.7831,-0.7641,-0.7349,-0.7063,-0.699,-0.699,-0.6773,-0.6192,-0.5829,-0.561,-0.5029,-0.4883,-0.5104,-0.4883,-0.5101,-0.5607,-0.5029,-0.4956,-0.5032,-0.5101,-0.5313,-0.5515,-0.5462,-0.5323,-0.5174,-0.4878,-0.5129,-0.5519,-0.5713,-0.6015,-0.6438,-0.6562,-0.6518,-0.6417,-0.6421,-0.646,-0.6522,-0.6522,-0.6502,-0.6386,-0.6272,-0.6178,-0.6125,-0.5811,-0.5444,-0.4851,-0.4428,-0.4205,-0.4264,-0.3968,-0.3797,-0.3747,-0.3679,-0.3646,-0.3605,-0.3591,-0.3589,-0.3589,-0.353,-0.3418,-0.3194,-0.3026,-0.2914,-0.2636,-0.23,-0.202,-0.202,-0.1847,-0.1438,-0.0705,0.0212,0.099,0.1496,0.1581,0.162,0.1622,0.1489,0.1433,0.1529,0.1372,0.154,0.1679,0.1862,0.1914,0.2048,0.2174,0.2251,0.2323,0.2431,0.2481,0.251,0.2747,0.2986,0.3303,0.3655,0.4038,0.4384,0.454,0.4776,0.5124,0.5377,0.5624,0.5747,0.5742,0.5691,0.5735,0.5908,0.6124,0.6346,0.6523,0.6922,0.737,0.7635,0.7812,-0.7668,-0.729,-0.7542,-0.7349,-0.7063,-0.699,-0.6773,-0.6482,-0.6047,-0.561,-0.532,-0.4883,-0.4738,-0.481,-0.4738,-0.4808,-0.5026,-0.481,-0.4738,-0.481,-0.481,-0.4852,-0.4973,-0.5069,-0.5171,-0.5087,-0.4754,-0.5012,-0.5486,-0.5645,-0.5799,-0.6142,-0.618,-0.6141,-0.608,-0.6132,-0.6183,-0.6455,-0.6522,-0.6485,-0.6353,-0.6247,-0.6149,-0.6017,-0.5477,-0.4937,-0.4536,-0.4145,-0.3909,-0.3892,-0.3794,-0.3695,-0.367,-0.3635,-0.3605,-0.3594,-0.3589,-0.3589,-0.353,-0.3362,-0.3194,-0.3026,-0.2634,-0.2356,-0.23,-0.1794,-0.157,-0.151,-0.1385,-0.1088,-0.0265,0.0836,0.1393,0.1633,0.1624,0.1718,0.1874,0.1898,0.1872,0.186,0.1991,0.2116,0.2098,0.2079,0.2086,0.2133,0.2174,0.2251,0.233,0.2402,0.2468,0.2542,0.2789,0.3041,0.3207,0.3512,0.3864,0.4212,0.4369,0.454,0.4915,0.5294,0.5523,0.5621,0.5719,0.5691,0.5691,0.5952,0.6213,0.6435,0.6612,0.6966,0.7282,0.7503,0.7547,-0.7006,-0.6653,-0.6751,-0.6624,-0.6482,-0.6482,-0.641,-0.6268,-0.5756,-0.5392,-0.5177,-0.4883,-0.4738,-0.4665,-0.4665,-0.4738,-0.4665,-0.4665,-0.4649,-0.4702,-0.4691,-0.4589,-0.4616,-0.4775,-0.4866,-0.486,-0.469,-0.4873,-0.5188,-0.5292,-0.5443,-0.5719,-0.5779,-0.5822,-0.5919,-0.5912,-0.614,-0.6433,-0.6539,-0.6494,-0.6374,-0.6247,-0.5982,-0.5636,-0.5074,-0.4551,-0.4322,-0.3999,-0.3819,-0.3786,-0.3698,-0.3665,-0.3638,-0.3608,-0.3591,-0.3589,-0.3418,-0.3362,-0.3306,-0.3082,-0.2861,-0.269,-0.2242,-0.1906,-0.1682,-0.1346,-0.1228,-0.1164,-0.1152,-0.0917,0.0104,0.1029,0.1581,0.1776,0.1768,0.192,0.2075,0.2138,0.2115,0.2179,0.226,0.2306,0.2291,0.2208,0.2151,0.212,0.2095,0.2177,0.2358,0.2481,0.257,0.2643,0.2889,0.3061,0.3153,0.341,0.3738,0.4011,0.4174,0.4371,0.4619,0.5009,0.5357,0.5501,0.5641,0.5691,0.5735,0.5997,0.6213,0.639,0.6612,0.6922,0.7098,0.7187,0.7143,-0.6506,-0.6118,-0.589,-0.5752,-0.5756,-0.5829,-0.5974,-0.605,-0.5541,-0.5177,-0.5104,-0.481,-0.4665,-0.4592,-0.4592,-0.4592,-0.4517,-0.4501,-0.433,-0.4445,-0.4424,-0.4455,-0.4485,-0.4547,-0.4538,-0.4458,-0.4466,-0.4652,-0.4896,-0.4928,-0.5108,-0.5258,-0.5315,-0.5386,-0.5647,-0.5848,-0.5994,-0.629,-0.6447,-0.6465,-0.6362,-0.6227,-0.5886,-0.5339,-0.4813,-0.4358,-0.4189,-0.4005,-0.3824,-0.3711,-0.3755,-0.3608,-0.3516,-0.349,-0.3431,-0.3377,-0.3036,-0.2914,-0.2858,-0.2692,-0.2468,-0.2132,-0.1851,-0.1458,-0.1065,-0.0949,-0.0886,-0.0877,-0.0814,-0.0533,0.0363,0.1227,0.1724,0.197,0.2071,0.2169,0.231,0.2258,0.2308,0.2457,0.2528,0.2581,0.2381,0.2244,0.22,0.2142,0.2073,0.2117,0.2342,0.2502,0.2629,0.2646,0.2814,0.3033,0.3159,0.3271,0.3608,0.3874,0.4046,0.4177,0.4397,0.4775,0.5163,0.5396,0.5552,0.5641,0.578,0.5997,0.6213,0.6384,0.6517,0.67,0.6789,0.6789,0.6789,-0.643,-0.6115,-0.589,-0.561,-0.5392,-0.561,-0.561,-0.5392,-0.525,-0.5032,-0.481,-0.4738,-0.4519,-0.4299,-0.4226,-0.401,-0.3857,-0.383,-0.3944,-0.4063,-0.4102,-0.412,-0.4351,-0.434,-0.4387,-0.4362,-0.4384,-0.4607,-0.4792,-0.4888,-0.4861,-0.491,-0.491,-0.4973,-0.5108,-0.5309,-0.57,-0.603,-0.6245,-0.6325,-0.619,-0.5946,-0.5592,-0.5002,-0.4564,-0.4242,-0.4043,-0.3935,-0.3899,-0.3885,-0.3841,-0.3457,-0.3081,-0.2934,-0.2805,-0.2621,-0.2483,-0.2412,-0.2356,-0.2356,-0.2132,-0.1851,-0.157,-0.1121,-0.0614,-0.0388,-0.0439,-0.0379,-0.016,0.026,0.0661,0.1468,0.197,0.2271,0.237,0.2458,0.2571,0.2587,0.2509,0.2661,0.2746,0.2774,0.2564,0.2424,0.2379,0.2321,0.2272,0.2332,0.2471,0.2575,0.2658,0.2687,0.2726,0.2938,0.3149,0.3278,0.3478,0.3798,0.3964,0.4047,0.4298,0.4628,0.4976,0.524,0.5508,0.5691,0.5819,0.5997,0.613,0.6213,0.6346,0.6435,0.6567,0.67,0.6782,-0.5917,-0.5683,-0.536,-0.5247,-0.5247,-0.5174,-0.5247,-0.5177,-0.5032,-0.4883,-0.4665,-0.4447,-0.4299,-0.408,-0.3864,-0.3646,-0.356,-0.3527,-0.3565,-0.3678,-0.3632,-0.379,-0.4088,-0.4083,-0.42,-0.4254,-0.4341,-0.4422,-0.455,-0.4527,-0.4574,-0.4574,-0.4574,-0.4641,-0.4839,-0.5245,-0.558,-0.5889,-0.6163,-0.6161,-0.5904,-0.5519,-0.4971,-0.47,-0.4315,-0.4055,-0.3963,-0.3883,-0.3902,-0.3818,-0.3693,-0.3203,-0.2708,-0.2279,-0.2087,-0.2011,-0.1982,-0.1964,-0.1964,-0.202,-0.1908,-0.1794,-0.1458,-0.0948,-0.0443,-0.022,-0.0163,-0.0053,0.0261,0.0714,0.1011,0.1767,0.2271,0.2523,0.2622,0.2697,0.2801,0.2844,0.2804,0.2769,0.2826,0.2843,0.2771,0.2606,0.2558,0.2494,0.2463,0.2507,0.26,0.2701,0.2744,0.276,0.2803,0.2983,0.3189,0.3322,0.3451,0.3702,0.394,0.4022,0.4257,0.464,0.4879,0.5082,0.5369,0.5691,0.5824,0.5952,0.6041,0.6086,0.6174,0.6302,0.6479,0.6612,0.6745,-0.5419,-0.5339,-0.4982,-0.4883,-0.5032,-0.4883,-0.4956,-0.5032,-0.481,-0.4665,-0.4519,-0.4226,-0.4007,-0.3789,-0.3427,-0.3209,-0.3278,-0.3237,-0.3203,-0.3241,-0.319,-0.335,-0.3607,-0.371,-0.3845,-0.4135,-0.4179,-0.4241,-0.4313,-0.4375,-0.4308,-0.4372,-0.4305,-0.444,-0.4775,-0.5088,-0.5538,-0.583,-0.6024,-0.5877,-0.5476,-0.4847,-0.4376,-0.4315,-0.401,-0.3804,-0.3897,-0.3828,-0.3733,-0.3589,-0.3346,-0.2932,-0.2183,-0.1644,-0.1399,-0.1438,-0.1472,-0.1517,-0.1626,-0.1682,-0.1682,-0.1626,-0.1453,-0.0777,0.0055,0.0382,0.0268,0.0365,0.0665,0.1063,0.1363,0.2019,0.2523,0.2821,0.2912,0.2937,0.2974,0.301,0.2948,0.2951,0.2899,0.288,0.2785,0.2785,0.2695,0.2693,0.2662,0.2665,0.2756,0.2787,0.2853,0.2884,0.2931,0.3034,0.3213,0.3389,0.3535,0.376,0.3992,0.4154,0.4342,0.4621,0.4842,0.5053,0.5413,0.5735,0.5824,0.5819,0.5908,0.5952,0.5997,0.6086,0.6174,0.6491,0.6808,-0.5419,-0.5339,-0.5201,-0.5032,-0.481,-0.5032,-0.4959,-0.4738,-0.4665,-0.4519,-0.4226,-0.408,-0.3644,-0.3134,-0.2697,-0.2478,-0.247,-0.252,-0.2711,-0.283,-0.2781,-0.2965,-0.3253,-0.3327,-0.3523,-0.3804,-0.3917,-0.4039,-0.4171,-0.4238,-0.4305,-0.4305,-0.4305,-0.444,-0.4702,-0.486,-0.4991,-0.5264,-0.5312,-0.5175,-0.4994,-0.4583,-0.4382,-0.4192,-0.3948,-0.3694,-0.386,-0.373,-0.3524,-0.3183,-0.3125,-0.2392,-0.1415,-0.1103,-0.0693,-0.0458,-0.0453,-0.0673,-0.1009,-0.1287,-0.1401,-0.1396,-0.1275,-0.0387,0.0663,0.1466,0.1541,0.1507,0.1531,0.1465,0.1614,0.2271,0.2775,0.3012,0.3039,0.3038,0.3122,0.303,0.3016,0.2972,0.2883,0.2877,0.2875,0.2875,0.2875,0.2872,0.2869,0.2869,0.2867,0.2895,0.2933,0.2953,0.2917,0.3025,0.3232,0.3419,0.3602,0.3786,0.3999,0.4237,0.4397,0.4608,0.4851,0.5102,0.5463,0.5691,0.5735,0.578,0.5774,0.5774,0.5863,0.5819,0.578,0.6236,0.6809,-0.4997,-0.4994,-0.4968,-0.481,-0.4738,-0.4883,-0.481,-0.4665,-0.4447,-0.4299,-0.4007,-0.3571,-0.3061,-0.2622,-0.2333,-0.2333,-0.2254,-0.2304,-0.2351,-0.2404,-0.2503,-0.2613,-0.2868,-0.2982,-0.3113,-0.3456,-0.3715,-0.3835,-0.4037,-0.4171,-0.4305,-0.4305,-0.4305,-0.4375,-0.4565,-0.4712,-0.487,-0.4943,-0.4855,-0.4761,-0.458,-0.4318,-0.4133,-0.4071,-0.3822,-0.3804,-0.3844,-0.3836,-0.3444,-0.3043,-0.2795,-0.2185,-0.1224,-0.0808,-0.0516,-0.0113,-0.0113,-0.0449,-0.084,-0.1112,-0.1169,-0.0948,-0.0664,0.0275,0.1662,0.2285,0.2286,0.1844,0.2,0.1921,0.1816,0.2473,0.2927,0.3162,0.3122,0.3115,0.3102,0.3041,0.2992,0.2953,0.292,0.292,0.292,0.2875,0.2875,0.2875,0.2872,0.2917,0.2917,0.2867,0.2953,0.309,0.3004,0.2998,0.3212,0.3415,0.3639,0.3813,0.4075,0.4255,0.4347,0.4545,0.4781,0.5057,0.5324,0.5508,0.5646,0.5735,0.573,0.5735,0.5691,0.5785,0.5891,0.6337,0.6904,-0.4665,-0.4665,-0.481,-0.481,-0.4738,-0.4738,-0.4738,-0.4519,-0.4226,-0.4,-0.3629,-0.3047,-0.2612,-0.2326,-0.2327,-0.2256,-0.232,-0.2307,-0.2285,-0.2256,-0.2233,-0.2418,-0.2539,-0.2587,-0.2779,-0.3109,-0.3306,-0.3499,-0.3701,-0.3969,-0.4171,-0.4305,-0.4283,-0.4359,-0.4484,-0.4493,-0.4568,-0.4529,-0.4437,-0.4303,-0.4139,-0.4055,-0.3865,-0.3799,-0.3788,-0.3764,-0.3847,-0.3717,-0.3391,-0.2702,-0.24,-0.1801,-0.086,-0.0456,-0.0284,0.0,0.0,-0.0168,-0.0502,-0.0776,-0.0828,-0.0442,0.0443,0.1599,0.241,0.2857,0.26,0.2057,0.2108,0.1974,0.1917,0.2523,0.2977,0.3104,0.3158,0.3106,0.3097,0.3027,0.2975,0.2942,0.292,0.292,0.292,0.292,0.292,0.292,0.292,0.2917,0.2962,0.2962,0.3096,0.3227,0.3138,0.3048,0.3179,0.34,0.363,0.3857,0.4121,0.4255,0.4332,0.451,0.4786,0.5013,0.5235,0.5463,0.5646,0.5691,0.5691,0.5691,0.5735,0.5981,0.62,0.6578,0.7031,-0.4665,-0.4738,-0.5032,-0.4959,-0.4738,-0.5032,-0.4738,-0.4226,-0.408,-0.362,-0.3014,-0.2579,-0.2366,-0.23,-0.2315,-0.2315,-0.2294,-0.2319,-0.2301,-0.2288,-0.2281,-0.232,-0.2361,-0.2336,-0.2393,-0.2663,-0.2912,-0.3098,-0.3297,-0.3633,-0.3969,-0.4233,-0.4193,-0.4467,-0.4513,-0.4384,-0.4237,-0.4129,-0.4057,-0.3844,-0.3751,-0.3725,-0.3754,-0.3497,-0.3401,-0.3482,-0.3777,-0.348,-0.2987,-0.2134,-0.1958,-0.1375,-0.0396,-0.0056,0.0112,0.0,0.0,0.0112,-0.0111,-0.0166,-0.0055,0.0605,0.1712,0.2983,0.3325,0.3382,0.3015,0.23,0.2255,0.1974,0.1967,0.232,0.2876,0.3057,0.3109,0.3146,0.3083,0.3003,0.2956,0.2931,0.292,0.292,0.292,0.292,0.292,0.292,0.292,0.2962,0.3138,0.3183,0.3317,0.3406,0.3272,0.3183,0.3183,0.3406,0.363,0.3812,0.4032,0.421,0.4295,0.4523,0.4656,0.4968,0.5191,0.5419,0.5597,0.5597,0.5641,0.5691,0.5841,0.6133,0.6569,0.7035,0.7482,-0.4665,-0.4738,-0.4883,-0.481,-0.4738,-0.481,-0.4592,-0.408,-0.3862,-0.3258,-0.2502,-0.2344,-0.2263,-0.2271,-0.229,-0.229,-0.227,-0.2293,-0.2286,-0.2263,-0.2244,-0.2229,-0.2207,-0.2192,-0.2306,-0.2443,-0.2564,-0.2761,-0.2894,-0.3226,-0.3408,-0.3656,-0.396,-0.4232,-0.4273,-0.4139,-0.4055,-0.3875,-0.3779,-0.3579,-0.3569,-0.3529,-0.3497,-0.3432,-0.3324,-0.3337,-0.3371,-0.3132,-0.2586,-0.1993,-0.1646,-0.0847,0.0056,0.0337,0.0617,0.0729,0.0729,0.0614,0.0388,0.0439,0.0765,0.2029,0.3155,0.3944,0.3971,0.3826,0.3247,0.2726,0.231,0.2021,0.1767,0.2271,0.2874,0.2957,0.3015,0.3098,0.3088,0.297,0.2972,0.2961,0.2936,0.292,0.292,0.292,0.292,0.292,0.292,0.3006,0.3183,0.3361,0.3451,0.354,0.3406,0.3227,0.3227,0.3406,0.3585,0.3764,0.3987,0.4121,0.43,0.43,0.4523,0.479,0.5057,0.5191,0.5374,0.5463,0.5518,0.5578,0.5924,0.6391,0.6901,0.7446,0.7724,-0.4665,-0.4665,-0.4665,-0.4665,-0.4665,-0.4592,-0.4299,-0.3932,-0.3484,-0.2951,-0.2275,-0.2247,-0.2232,-0.2241,-0.2274,-0.2274,-0.2266,-0.2282,-0.2203,-0.2259,-0.224,-0.2211,-0.2191,-0.2177,-0.224,-0.2227,-0.2357,-0.2559,-0.2558,-0.2881,-0.2996,-0.3235,-0.353,-0.3779,-0.3841,-0.3901,-0.3888,-0.3862,-0.3648,-0.3455,-0.3387,-0.3284,-0.312,-0.3109,-0.3061,-0.2954,-0.2873,-0.2694,-0.2293,-0.1708,-0.1133,-0.0453,0.0226,0.0844,0.1178,0.129,0.1288,0.1114,0.0884,0.115,0.1854,0.3149,0.3847,0.4409,0.4477,0.3962,0.321,0.25,0.2298,0.212,0.1667,0.2221,0.2675,0.2814,0.3021,0.3112,0.3082,0.3027,0.3033,0.3003,0.2975,0.295,0.2939,0.2939,0.2922,0.292,0.292,0.3006,0.3227,0.3361,0.3496,0.354,0.3496,0.3361,0.3227,0.3361,0.3451,0.3674,0.3898,0.4121,0.4255,0.4255,0.43,0.4567,0.479,0.4968,0.5077,0.519,0.5335,0.548,0.6012,0.6638,0.7054,0.7537,0.7671,-0.4665,-0.4665,-0.4665,-0.4665,-0.4592,-0.4299,-0.3935,-0.3488,-0.3092,-0.2632,-0.2253,-0.2221,-0.2204,-0.2218,-0.2262,-0.2263,-0.2255,-0.229,-0.2221,-0.2186,-0.2241,-0.2221,-0.2195,-0.2176,-0.217,-0.2227,-0.2284,-0.2281,-0.2221,-0.252,-0.2572,-0.2677,-0.2958,-0.3184,-0.3153,-0.337,-0.3658,-0.3896,-0.3598,-0.3337,-0.3075,-0.2978,-0.2759,-0.2613,-0.2575,-0.2536,-0.2349,-0.2176,-0.1835,-0.1373,-0.0684,-0.0057,0.0513,0.124,0.1571,0.1458,0.1458,0.14,0.1397,0.2148,0.31,0.3978,0.4405,0.4471,0.4205,0.3681,0.305,0.2355,0.2127,0.192,0.192,0.207,0.2473,0.2714,0.2924,0.3139,0.3109,0.3085,0.3044,0.3047,0.3022,0.3,0.298,0.2961,0.2933,0.2877,0.292,0.3006,0.3227,0.3361,0.3451,0.3496,0.3496,0.3361,0.3224,0.3224,0.3317,0.354,0.3764,0.3942,0.4076,0.4121,0.421,0.4344,0.4572,0.4799,0.4885,0.4922,0.5252,0.5603,0.6289,0.69,0.7313,0.7566,0.7638,-0.4665,-0.4665,-0.4665,-0.4519,-0.4299,-0.4153,-0.3699,-0.309,-0.2631,-0.2335,-0.2263,-0.2223,-0.22,-0.2214,-0.2233,-0.2245,-0.223,-0.2179,-0.2182,-0.2176,-0.2225,-0.2203,-0.2183,-0.2172,-0.2165,-0.2151,-0.214,-0.2138,-0.2221,-0.2302,-0.2278,-0.2323,-0.2469,-0.2749,-0.3189,-0.3486,-0.3606,-0.3603,-0.3339,-0.3022,-0.2708,-0.2614,-0.2524,-0.2329,-0.2175,-0.2034,-0.1843,-0.1612,-0.1322,-0.1033,-0.04,0.017,0.0794,0.1573,0.1908,0.2076,0.2186,0.2398,0.2711,0.3283,0.3817,0.4374,0.4479,0.4432,0.415,0.3431,0.2794,0.2378,0.2176,0.1974,0.1768,0.212,0.2473,0.2574,0.28,0.3073,0.3144,0.3125,0.3095,0.3099,0.3066,0.3036,0.3014,0.2913,0.2843,0.2811,0.2806,0.2925,0.3141,0.3227,0.3317,0.3406,0.3451,0.3317,0.3227,0.3138,0.3183,0.3361,0.354,0.3674,0.3808,0.3898,0.3942,0.3987,0.4352,0.4683,0.4771,0.4957,0.5379,0.5855,0.6506,0.7003,0.7353,0.7483,0.7515,-0.4665,-0.4665,-0.4519,-0.4226,-0.3932,-0.3916,-0.3451,-0.2702,-0.2335,-0.2267,-0.2262,-0.2221,-0.22,-0.2206,-0.2217,-0.2223,-0.2204,-0.2232,-0.2163,-0.2228,-0.2193,-0.2181,-0.2174,-0.2165,-0.215,-0.2138,-0.2123,-0.2119,-0.218,-0.2071,-0.2109,-0.2088,-0.206,-0.2479,-0.2907,-0.309,-0.3211,-0.3152,-0.3022,-0.2714,-0.2522,-0.2382,-0.2176,-0.1972,-0.1773,-0.1581,-0.1277,-0.0981,-0.0747,-0.063,-0.0228,0.0339,0.1073,0.1688,0.2077,0.2412,0.2674,0.2932,0.3455,0.3761,0.4169,0.4744,0.4523,0.4319,0.414,0.3711,0.3114,0.2746,0.249,0.223,0.2073,0.2425,0.2572,0.2725,0.2919,0.3194,0.3235,0.3265,0.3257,0.326,0.3175,0.3139,0.3006,0.2854,0.2751,0.2721,0.2693,0.2811,0.2925,0.3006,0.3048,0.3093,0.3183,0.3048,0.3004,0.3006,0.3048,0.3183,0.3317,0.3451,0.363,0.3719,0.3719,0.373,0.4078,0.4406,0.4708,0.4992,0.549,0.6035,0.6677,0.7081,0.7434,0.7391,0.7341,-0.4665,-0.4665,-0.4299,-0.3862,-0.3562,-0.3453,-0.2988,-0.2252,-0.2274,-0.2271,-0.2179,-0.2221,-0.2134,-0.2134,-0.2203,-0.2133,-0.2134,-0.2159,-0.2222,-0.2207,-0.2189,-0.2176,-0.2159,-0.2148,-0.2129,-0.2114,-0.2034,-0.2017,-0.2064,-0.2042,-0.2014,-0.199,-0.2044,-0.2284,-0.2469,-0.2522,-0.2708,-0.2772,-0.2641,-0.2394,-0.2267,-0.2019,-0.1747,-0.1546,-0.1355,-0.1048,-0.0749,-0.0458,-0.0402,-0.0172,0.0344,0.0745,0.1199,0.1754,0.2026,0.2288,0.2482,0.3079,0.3691,0.3978,0.4418,0.4905,0.4812,0.4471,0.4222,0.4078,0.3708,0.3324,0.3061,0.2794,0.2635,0.273,0.2874,0.3027,0.3229,0.3374,0.3425,0.3419,0.3469,0.344,0.3355,0.3266,0.3119,0.3002,0.2709,0.263,0.2558,0.2401,0.2561,0.2695,0.2693,0.2511,0.2601,0.2735,0.2735,0.2782,0.2872,0.2914,0.3093,0.323,0.3406,0.3502,0.3422,0.349,0.3811,0.4208,0.4693,0.5209,0.5718,0.6262,0.6586,0.6901,0.7141,0.7042,0.6992,-0.4665,-0.4665,-0.4299,-0.3842,-0.3453,-0.2866,-0.2511,-0.2301,-0.2256,-0.2249,-0.2231,-0.223,-0.2073,-0.1881,-0.2073,-0.2063,-0.1995,-0.2069,-0.2138,-0.2196,-0.2044,-0.2151,-0.2135,-0.2059,-0.2105,-0.2015,-0.1869,-0.1864,-0.2054,-0.2031,-0.2003,-0.2044,-0.1974,-0.2036,-0.1966,-0.1893,-0.2204,-0.2387,-0.2254,-0.2006,-0.1816,-0.1566,-0.1249,-0.1121,-0.0881,-0.0582,-0.0405,-0.0172,-0.0057,0.023,0.0398,0.0735,0.1581,0.1798,0.2015,0.2486,0.2813,0.3256,0.3772,0.4249,0.4695,0.4954,0.4986,0.4738,0.4475,0.438,0.4205,0.3811,0.3551,0.334,0.3099,0.3131,0.3226,0.343,0.3682,0.3984,0.4034,0.4034,0.4034,0.3823,0.3738,0.3373,0.3272,0.2869,0.2615,0.2537,0.237,0.2214,0.2192,0.2339,0.235,0.2167,0.2208,0.2345,0.2426,0.2469,0.2603,0.2693,0.2872,0.2962,0.3051,0.3105,0.3077,0.335,0.3792,0.434,0.4913,0.5375,0.5832,0.5902,0.6221,0.6581,0.6842,0.6792,0.6692,-0.4592,-0.4374,-0.4007,-0.3556,-0.3022,-0.2483,-0.2277,-0.23,-0.2258,-0.2275,-0.2318,-0.2238,-0.2078,-0.1954,-0.2133,-0.2044,-0.1703,-0.1839,-0.1839,-0.1699,-0.1826,-0.168,-0.1732,-0.1856,-0.1839,-0.1747,-0.1725,-0.1721,-0.1904,-0.2015,-0.1989,-0.1793,-0.1784,-0.1714,-0.1583,-0.1447,-0.1562,-0.1684,-0.1682,-0.1497,-0.1309,-0.1065,-0.0941,-0.0642,-0.035,-0.0233,0.0,0.0286,0.0399,0.0569,0.0562,0.0898,0.1571,0.1738,0.1961,0.2438,0.2978,0.3351,0.3892,0.4489,0.4847,0.5055,0.5112,0.495,0.4901,0.4824,0.4452,0.404,0.3953,0.3849,0.363,0.3478,0.3629,0.378,0.4232,0.4734,0.4734,0.4734,0.4583,0.4383,0.4021,0.3607,0.3241,0.283,0.2474,0.2308,0.2093,0.1929,0.191,0.2024,0.1989,0.183,0.1914,0.2045,0.2126,0.2249,0.2379,0.2469,0.2603,0.2693,0.274,0.2939,0.31,0.3406,0.3786,0.4384,0.4986,0.5475,0.5877,0.5887,0.5987,0.6337,0.6587,0.6592,0.6542,-0.4447,-0.4078,-0.3637,-0.3045,-0.2386,-0.2238,-0.2236,-0.2283,-0.2275,-0.2297,-0.2301,-0.2233,-0.2141,-0.1943,-0.1981,-0.1824,-0.1553,-0.1487,-0.1487,-0.1145,-0.1281,-0.1275,-0.1339,-0.1407,-0.151,-0.149,-0.141,-0.1393,-0.1742,-0.1794,-0.1732,-0.148,-0.1461,-0.1391,-0.1202,-0.1008,-0.1061,-0.1061,-0.1058,-0.0936,-0.0939,-0.082,-0.0641,-0.0115,0.0057,0.0228,0.0677,0.0842,0.0897,0.0897,0.0953,0.1121,0.1402,0.1626,0.1961,0.2453,0.3095,0.3625,0.4137,0.4686,0.4996,0.5145,0.5124,0.5137,0.512,0.519,0.4858,0.4542,0.4486,0.4247,0.3977,0.3991,0.4131,0.4383,0.4834,0.5186,0.5336,0.5236,0.4985,0.4684,0.4232,0.377,0.3165,0.2752,0.24,0.21,0.1844,0.1676,0.1712,0.1787,0.1757,0.1631,0.1704,0.1832,0.1863,0.1988,0.2157,0.2289,0.2428,0.2618,0.2766,0.2967,0.3218,0.3597,0.4044,0.4494,0.5051,0.5377,0.5636,0.5892,0.5987,0.6237,0.6337,0.6392,0.6437,-0.4447,-0.4073,-0.3282,-0.269,-0.2262,-0.2219,-0.2221,-0.2252,-0.223,-0.2169,-0.2249,-0.2134,-0.1911,-0.1584,-0.1698,-0.1481,-0.101,-0.1144,-0.1144,-0.1077,-0.101,-0.0938,-0.0996,-0.1062,-0.111,-0.1025,-0.0949,-0.0944,-0.1054,-0.1295,-0.1471,-0.1154,-0.1145,-0.1019,-0.0888,-0.0758,-0.0638,-0.0636,-0.0459,-0.046,-0.052,-0.0343,-0.0057,0.0226,0.0338,0.0564,0.0841,0.0953,0.1065,0.1121,0.1177,0.1402,0.1682,0.1794,0.2171,0.276,0.3271,0.381,0.4388,0.4909,0.5184,0.5259,0.5263,0.5275,0.5338,0.5499,0.5489,0.5145,0.4842,0.4538,0.4387,0.4455,0.4634,0.4935,0.5336,0.5636,0.5887,0.5586,0.5286,0.4839,0.4336,0.3783,0.3128,0.2725,0.2322,0.2017,0.1764,0.1605,0.1602,0.1686,0.1657,0.1579,0.1539,0.1616,0.165,0.1737,0.1916,0.2132,0.2313,0.2552,0.2795,0.3173,0.3512,0.3919,0.435,0.4744,0.4922,0.4981,0.5286,0.5636,0.5892,0.6087,0.6247,0.6303,0.6348,-0.4213,-0.3747,-0.288,-0.2371,-0.2236,-0.2199,-0.2198,-0.2147,-0.1987,-0.1915,-0.1925,-0.1901,-0.1696,-0.1301,-0.1423,-0.1077,-0.0606,-0.0741,-0.0673,-0.0606,0.0,-0.0537,-0.0599,-0.0726,-0.0782,-0.0704,-0.0754,-0.0747,-0.0617,-0.0918,-0.1093,-0.0843,-0.0779,-0.0711,0.0,0.0,0.0,-0.0227,0.0,-0.0056,-0.0171,0.0056,0.0336,0.0505,0.0729,0.0953,0.1234,0.1346,0.1458,0.1514,0.1514,0.157,0.1738,0.1794,0.2178,0.2726,0.3342,0.3907,0.454,0.5029,0.5324,0.5341,0.5349,0.5337,0.5341,0.5494,0.5301,0.4969,0.4657,0.4351,0.4238,0.4236,0.4583,0.4885,0.5386,0.5837,0.5687,0.5336,0.5035,0.4638,0.4085,0.3481,0.2977,0.2624,0.2221,0.1868,0.1615,0.1565,0.1566,0.1465,0.1493,0.1521,0.1438,0.1462,0.1548,0.1634,0.1675,0.1943,0.225,0.269,0.3052,0.3412,0.3779,0.4146,0.4525,0.4764,0.4935,0.4993,0.5186,0.5586,0.5787,0.5892,0.6057,0.6239,0.6417,-0.3747,-0.3337,-0.2574,-0.2215,-0.2225,-0.2178,-0.217,-0.205,-0.176,-0.1549,-0.1485,-0.1483,-0.1493,-0.1428,-0.1219,-0.081,-0.0539,-0.0471,-0.0269,0.0,0.0,0.0,0.0,-0.0331,-0.0391,-0.0575,-0.0689,-0.0557,-0.0368,-0.073,-0.0784,-0.054,0.0,0.0,0.0,0.0,0.0,0.0,0.0,0.0,0.028,0.0393,0.0617,0.0897,0.1177,0.1514,0.1794,0.1964,0.202,0.1908,0.1794,0.1738,0.1908,0.1964,0.241,0.2966,0.3578,0.4086,0.4637,0.5139,0.5318,0.5377,0.5382,0.5382,0.5382,0.5341,0.5154,0.4878,0.4561,0.433,0.4222,0.4206,0.4556,0.4893,0.5395,0.5851,0.5495,0.5144,0.4792,0.4444,0.3887,0.3285,0.2826,0.2473,0.2122,0.1718,0.1516,0.1516,0.1415,0.1314,0.1255,0.1297,0.1331,0.1362,0.1488,0.1616,0.1702,0.1979,0.2347,0.2846,0.3316,0.372,0.4058,0.4358,0.464,0.4901,0.5061,0.5166,0.5409,0.5555,0.573,0.5855,0.6123,0.6312,0.6524,-0.3327,-0.2913,-0.237,-0.2213,-0.2174,-0.2227,-0.2023,-0.1757,-0.1619,-0.1481,-0.1144,-0.0808,-0.0742,-0.0744,-0.0675,0.0,0.0,0.0,0.0,0.0,0.0,0.0,0.0,0.0,0.0,-0.0254,-0.0435,-0.0369,-0.0243,-0.0423,-0.0417,-0.0175,0.0,0.0,0.0,0.0,0.0,0.0,0.0,0.0168,0.0336,0.0505,0.0785,0.1009,0.129,0.1626,0.1964,0.2188,0.2188,0.2076,0.1908,0.1851,0.1964,0.2188,0.2692,0.3253,0.3866,0.4428,0.4987,0.527,0.5382,0.5382,0.5382,0.5382,0.5382,0.5382,0.5257,0.5091,0.4766,0.4486,0.4393,0.4398,0.4637,0.4841,0.5225,0.5376,0.5275,0.4918,0.4614,0.4206,0.3748,0.3136,0.2574,0.2223,0.1874,0.147,0.1116,0.1115,0.1116,0.1064,0.1011,0.1109,0.1206,0.1393,0.1519,0.1738,0.1871,0.2105,0.2444,0.3044,0.357,0.4069,0.4403,0.4618,0.4754,0.4963,0.5167,0.5231,0.5362,0.5523,0.5704,0.5877,0.6154,0.6406,0.6689]}]]